[[{"header":{"parameterUnit":"m.s-1","parameterCategory":1,"la1":30.6,"la2":29.2853,"lo1":-89.7004,"lo2":-87.6739,"dx":0.0162,"dy":0.0183,"nx":112,"ny":82,"refTime":"2023-01-07T06:00:00:Z","depth":0,"parameterNumber":2,"parameterNumberName":"U-component_of_WINDS"},"data":[0.0,0.0,0.0,0.0,0.0,0.0,0.0,0.0,0.0,0.0,0.0,0.0,0.0,0.0,0.0,0.0,0.0,0.0,0.0,0.0,0.0,0.0,0.0,0.0,0.0,0.0,0.0,0.0,0.0,0.0,0.0,0.0,0.0,0.0,0.0,0.0,0.0,0.0,0.0,0.0,0.0,0.0,0.0,0.0,0.0,0.0,0.0,0.0,0.0,0.0,0.0,0.0,0.0,0.0,0.0,0.0,0.0,0.0,0.0,0.0,0.0,0.0,0.0,0.0,0.0,0.0,0.0,0.0,0.0,0.0,0.0,0.0,0.0,0.0,0.0,0.0,0.0,0.0,0.0,0.0,0.0,0.0,0.0,0.0,0.0,0.0,0.0,0.0,0.0,0.0,0.0,-3.5031,-3.7025,-3.7955,-3.7178,-3.7197,-3.61,-3.3376,0.0,0.0,0.0,0.0,0.0,0.0,0.0,0.0,0.0,0.0,0.0,0.0,0.0,0.0,0.0,0.0,0.0,0.0,0.0,0.0,0.0,0.0,0.0,0.0,0.0,0.0,0.0,0.0,0.0,0.0,0.0,0.0,0.0,0.0,0.0,0.0,0.0,0.0,0.0,0.0,0.0,0.0,0.0,0.0,0.0,0.0,0.0,0.0,0.0,0.0,0.0,0.0,0.0,0.0,0.0,0.0,0.0,0.0,0.0,0.0,0.0,0.0,0.0,0.0,0.0,0.0,0.0,0.0,0.0,0.0,0.0,0.0,0.0,0.0,0.0,0.0,0.0,0.0,0.0,0.0,0.0,0.0,0.0,0.0,0.0,0.0,0.0,0.0,0.0,0.0,0.0,0.0,0.0,0.0,0.0,0.0,0.0,0.0,0.0,0.0,0.0,0.0,0.0,0.0,-3.4143,-3.6936,-3.7778,-3.7853,-3.7154,-3.7113,-3.6007,-3.337,0.0,0.0,0.0,0.0,0.0,0.0,0.0,0.0,0.0,0.0,0.0,0.0,0.0,0.0,0.0,0.0,0.0,0.0,0.0,0.0,0.0,0.0,0.0,0.0,0.0,0.0,0.0,0.0,0.0,0.0,0.0,0.0,0.0,0.0,0.0,0.0,0.0,0.0,0.0,0.0,0.0,0.0,0.0,0.0,0.0,0.0,0.0,0.0,0.0,0.0,0.0,0.0,0.0,0.0,0.0,0.0,0.0,0.0,0.0,0.0,0.0,0.0,0.0,0.0,0.0,0.0,0.0,0.0,0.0,0.0,0.0,0.0,0.0,0.0,0.0,0.0,0.0,0.0,0.0,0.0,0.0,0.0,0.0,0.0,0.0,0.0,0.0,0.0,0.0,0.0,0.0,0.0,0.0,0.0,0.0,0.0,0.0,0.0,0.0,0.0,0.0,0.0,0.0,-3.3905,-3.5844,-3.8056,-3.8854,-3.8812,-3.7723,-3.7712,-3.643,-3.3336,-3.3153,0.0,0.0,0.0,0.0,0.0,0.0,0.0,0.0,0.0,0.0,0.0,0.0,0.0,0.0,0.0,0.0,0.0,0.0,0.0,0.0,0.0,0.0,0.0,0.0,0.0,0.0,0.0,0.0,0.0,0.0,0.0,0.0,0.0,0.0,0.0,0.0,0.0,0.0,0.0,0.0,0.0,0.0,0.0,0.0,0.0,0.0,0.0,0.0,0.0,0.0,0.0,0.0,0.0,0.0,0.0,0.0,0.0,0.0,0.0,0.0,0.0,0.0,0.0,0.0,0.0,0.0,0.0,0.0,0.0,0.0,0.0,0.0,0.0,0.0,0.0,0.0,0.0,0.0,0.0,0.0,0.0,0.0,0.0,0.0,0.0,0.0,0.0,0.0,0.0,0.0,0.0,0.0,0.0,0.0,0.0,0.0,0.0,0.0,0.0,0.0,0.0,0.0,-3.5578,-3.726,-3.8725,-3.9585,-3.9588,-3.8388,-3.8209,-3.6793,-3.3596,-3.3209,0.0,0.0,0.0,0.0,0.0,0.0,0.0,0.0,0.0,0.0,0.0,0.0,0.0,0.0,0.0,0.0,0.0,0.0,0.0,0.0,0.0,0.0,0.0,0.0,0.0,0.0,0.0,0.0,0.0,0.0,0.0,0.0,0.0,0.0,0.0,0.0,0.0,0.0,0.0,0.0,0.0,0.0,0.0,0.0,0.0,0.0,0.0,0.0,0.0,0.0,0.0,0.0,0.0,0.0,0.0,0.0,0.0,0.0,0.0,0.0,0.0,0.0,0.0,0.0,0.0,0.0,0.0,0.0,0.0,0.0,0.0,0.0,0.0,0.0,0.0,0.0,0.0,0.0,0.0,0.0,0.0,0.0,0.0,0.0,0.0,0.0,0.0,0.0,0.0,0.0,0.0,0.0,0.0,0.0,0.0,0.0,0.0,0.0,0.0,0.0,0.0,0.0,-3.5319,-3.7311,-3.8917,-3.9425,-3.9437,-3.8896,-3.8173,-3.6736,-3.4366,-3.3514,0.0,0.0,0.0,0.0,0.0,0.0,0.0,0.0,0.0,0.0,0.0,0.0,0.0,0.0,0.0,0.0,0.0,0.0,0.0,0.0,0.0,0.0,0.0,0.0,0.0,0.0,0.0,0.0,0.0,0.0,0.0,0.0,0.0,0.0,0.0,0.0,0.0,0.0,0.0,0.0,0.0,0.0,0.0,0.0,0.0,0.0,0.0,0.0,0.0,0.0,0.0,0.0,0.0,0.0,0.0,0.0,0.0,0.0,0.0,0.0,0.0,0.0,0.0,0.0,0.0,0.0,0.0,0.0,0.0,0.0,0.0,0.0,0.0,0.0,0.0,0.0,0.0,0.0,0.0,0.0,0.0,0.0,0.0,0.0,0.0,0.0,0.0,0.0,0.0,0.0,0.0,0.0,0.0,0.0,0.0,0.0,0.0,0.0,0.0,0.0,0.0,0.0,-3.4387,-3.6318,0.0,-3.8785,-3.8763,-3.8552,-3.7794,-3.6291,-3.3881,0.0,0.0,0.0,0.0,0.0,0.0,0.0,0.0,0.0,0.0,0.0,0.0,0.0,0.0,0.0,0.0,0.0,0.0,0.0,0.0,0.0,0.0,0.0,0.0,0.0,0.0,0.0,0.0,0.0,0.0,0.0,0.0,0.0,0.0,0.0,0.0,0.0,0.0,0.0,0.0,0.0,0.0,0.0,0.0,0.0,0.0,0.0,0.0,0.0,0.0,0.0,0.0,0.0,0.0,0.0,0.0,0.0,0.0,0.0,0.0,0.0,0.0,0.0,0.0,0.0,0.0,0.0,0.0,0.0,0.0,0.0,0.0,0.0,0.0,0.0,0.0,0.0,0.0,0.0,0.0,0.0,0.0,0.0,0.0,0.0,0.0,0.0,0.0,0.0,0.0,0.0,0.0,0.0,0.0,0.0,0.0,0.0,0.0,0.0,0.0,0.0,0.0,-3.2106,-3.397,-3.5882,0.0,-3.802,-3.8099,-3.8314,-3.7567,-3.6171,-3.3956,0.0,0.0,0.0,0.0,0.0,0.0,0.0,0.0,0.0,0.0,0.0,0.0,0.0,0.0,0.0,0.0,0.0,0.0,0.0,0.0,0.0,0.0,0.0,0.0,0.0,0.0,0.0,0.0,0.0,0.0,0.0,0.0,0.0,0.0,0.0,0.0,0.0,0.0,0.0,0.0,0.0,0.0,0.0,0.0,0.0,0.0,0.0,0.0,0.0,0.0,0.0,0.0,0.0,0.0,0.0,0.0,0.0,0.0,0.0,0.0,0.0,0.0,0.0,0.0,0.0,0.0,0.0,0.0,0.0,0.0,0.0,0.0,0.0,0.0,0.0,0.0,0.0,0.0,0.0,0.0,0.0,0.0,0.0,0.0,0.0,0.0,0.0,0.0,0.0,0.0,0.0,0.0,0.0,0.0,0.0,0.0,0.0,0.0,0.0,0.0,0.0,0.0,-3.1775,-3.4231,-3.6196,-3.7102,-3.719,-3.7524,-3.8321,-3.7616,-3.6431,0.0,0.0,0.0,0.0,0.0,0.0,0.0,0.0,0.0,0.0,0.0,0.0,0.0,0.0,0.0,0.0,0.0,0.0,0.0,0.0,0.0,0.0,0.0,0.0,0.0,0.0,0.0,0.0,0.0,0.0,0.0,0.0,0.0,0.0,0.0,0.0,0.0,0.0,0.0,0.0,0.0,0.0,0.0,0.0,0.0,0.0,0.0,0.0,0.0,0.0,0.0,0.0,0.0,0.0,0.0,0.0,0.0,0.0,0.0,0.0,0.0,0.0,0.0,0.0,0.0,0.0,0.0,0.0,0.0,0.0,0.0,0.0,0.0,0.0,0.0,0.0,0.0,0.0,0.0,0.0,0.0,0.0,0.0,0.0,0.0,0.0,0.0,0.0,0.0,0.0,0.0,0.0,0.0,0.0,0.0,0.0,0.0,0.0,0.0,0.0,0.0,0.0,0.0,-3.1316,-3.2663,-3.413,-3.5754,-3.6406,-3.7141,-3.8255,-3.84,-3.7277,-3.4524,0.0,0.0,0.0,0.0,0.0,0.0,0.0,0.0,0.0,0.0,0.0,0.0,0.0,0.0,0.0,0.0,0.0,0.0,0.0,0.0,0.0,0.0,0.0,0.0,0.0,0.0,0.0,0.0,0.0,0.0,0.0,0.0,0.0,0.0,0.0,0.0,0.0,0.0,0.0,0.0,0.0,0.0,0.0,0.0,0.0,0.0,0.0,0.0,0.0,0.0,0.0,0.0,0.0,0.0,0.0,0.0,0.0,0.0,0.0,0.0,0.0,0.0,0.0,0.0,0.0,0.0,0.0,0.0,0.0,0.0,0.0,0.0,0.0,0.0,0.0,0.0,0.0,0.0,0.0,0.0,0.0,0.0,0.0,0.0,0.0,0.0,0.0,0.0,0.0,0.0,0.0,0.0,0.0,0.0,0.0,0.0,0.0,0.0,0.0,0.0,0.0,0.0,-3.0803,-3.2128,-3.3475,-3.4936,-3.5728,-3.6654,-3.7893,-3.8511,-3.7714,-3.5044,0.0,0.0,0.0,0.0,0.0,0.0,0.0,0.0,0.0,0.0,0.0,0.0,0.0,0.0,0.0,0.0,0.0,0.0,0.0,0.0,0.0,0.0,0.0,0.0,0.0,0.0,0.0,0.0,0.0,0.0,0.0,0.0,0.0,0.0,0.0,0.0,0.0,0.0,0.0,0.0,0.0,0.0,0.0,0.0,0.0,0.0,0.0,0.0,0.0,0.0,0.0,0.0,0.0,0.0,0.0,0.0,0.0,0.0,0.0,0.0,0.0,0.0,0.0,0.0,0.0,0.0,0.0,0.0,0.0,0.0,0.0,0.0,0.0,0.0,0.0,0.0,0.0,0.0,0.0,0.0,0.0,0.0,0.0,0.0,0.0,0.0,0.0,0.0,0.0,0.0,0.0,0.0,0.0,0.0,0.0,0.0,0.0,0.0,0.0,0.0,0.0,0.0,-3.0369,-3.2142,-3.3683,-3.4425,-3.5221,-3.6166,-3.7332,-3.815,-3.7832,-3.6036,0.0,0.0,0.0,0.0,0.0,0.0,0.0,0.0,0.0,0.0,0.0,0.0,0.0,0.0,0.0,0.0,0.0,0.0,0.0,0.0,0.0,0.0,0.0,0.0,0.0,0.0,0.0,0.0,0.0,0.0,0.0,0.0,0.0,0.0,0.0,0.0,0.0,0.0,0.0,0.0,0.0,0.0,0.0,0.0,0.0,0.0,0.0,0.0,0.0,0.0,0.0,0.0,0.0,0.0,0.0,0.0,0.0,0.0,0.0,0.0,-3.1295,0.0,0.0,0.0,0.0,0.0,0.0,0.0,0.0,0.0,0.0,0.0,0.0,0.0,0.0,0.0,0.0,0.0,0.0,0.0,0.0,0.0,0.0,0.0,0.0,0.0,0.0,0.0,0.0,0.0,0.0,0.0,0.0,0.0,0.0,0.0,0.0,0.0,0.0,0.0,0.0,0.0,-3.0316,-3.1207,-3.2227,-3.36,-3.4864,-3.5954,-3.6793,-3.7936,-3.7895,-3.6243,-3.5755,0.0,0.0,0.0,0.0,0.0,0.0,0.0,0.0,0.0,0.0,0.0,0.0,0.0,0.0,0.0,0.0,0.0,0.0,0.0,0.0,0.0,0.0,0.0,0.0,0.0,0.0,0.0,0.0,0.0,0.0,0.0,0.0,0.0,0.0,0.0,0.0,0.0,0.0,0.0,0.0,0.0,0.0,0.0,0.0,0.0,0.0,0.0,0.0,0.0,0.0,0.0,0.0,0.0,0.0,0.0,0.0,0.0,0.0,0.0,0.0,-3.093,0.0,0.0,0.0,0.0,0.0,0.0,0.0,0.0,0.0,0.0,0.0,0.0,0.0,0.0,0.0,0.0,0.0,0.0,0.0,0.0,0.0,0.0,0.0,0.0,0.0,0.0,0.0,0.0,0.0,0.0,0.0,0.0,0.0,0.0,0.0,0.0,0.0,0.0,0.0,0.0,-2.9724,-3.0457,-3.1532,-3.3152,-3.4273,-3.5414,-3.6548,-3.7612,-3.7693,-3.6502,-3.6199,0.0,0.0,0.0,0.0,0.0,0.0,0.0,0.0,0.0,0.0,0.0,0.0,0.0,0.0,0.0,0.0,0.0,0.0,0.0,0.0,0.0,0.0,0.0,0.0,0.0,0.0,0.0,0.0,0.0,0.0,0.0,0.0,0.0,0.0,0.0,0.0,0.0,0.0,0.0,0.0,0.0,0.0,0.0,0.0,0.0,0.0,0.0,0.0,0.0,0.0,0.0,0.0,0.0,-2.7427,-2.769,-2.8036,-2.8111,-2.8652,-2.9487,-2.95,-2.9805,-3.0313,0.0,0.0,0.0,0.0,0.0,0.0,0.0,0.0,0.0,0.0,0.0,0.0,0.0,0.0,0.0,0.0,0.0,0.0,0.0,0.0,0.0,0.0,0.0,0.0,0.0,-2.774,-2.8667,0.0,0.0,0.0,0.0,0.0,0.0,0.0,0.0,0.0,0.0,0.0,0.0,-2.9147,-2.9998,-3.1171,-3.2696,-3.3485,-3.4463,-3.5792,-3.6645,-3.6936,-3.6469,-3.6218,-3.5455,0.0,0.0,0.0,0.0,0.0,0.0,0.0,0.0,0.0,0.0,0.0,0.0,0.0,0.0,0.0,0.0,0.0,0.0,0.0,0.0,0.0,0.0,0.0,0.0,0.0,0.0,0.0,0.0,0.0,0.0,0.0,0.0,-3.1193,-3.0647,0.0,0.0,0.0,0.0,0.0,0.0,0.0,0.0,0.0,0.0,0.0,0.0,0.0,-2.4892,-2.4887,-2.476,-2.4691,-2.4721,-2.5182,-2.4991,-2.4254,-2.4632,-2.4909,-2.5133,-2.6548,0.0,-3.109,-3.0156,0.0,0.0,0.0,0.0,0.0,0.0,0.0,0.0,0.0,0.0,0.0,0.0,0.0,0.0,0.0,0.0,0.0,0.0,0.0,0.0,0.0,0.0,-2.8108,-2.9125,-2.9822,-3.0297,0.0,-2.9328,-2.8201,-2.8085,-2.9185,0.0,0.0,0.0,0.0,0.0,0.0,0.0,-2.9384,-3.0098,-3.0779,-3.1695,-3.2396,-3.2905,-3.3094,-3.3969,-3.4747,-3.5358,-3.552,-3.5222,-3.435,-3.4038,0.0,0.0,0.0,0.0,0.0,0.0,0.0,0.0,0.0,0.0,0.0,0.0,0.0,0.0,0.0,0.0,0.0,0.0,0.0,0.0,0.0,0.0,0.0,0.0,0.0,0.0,0.0,0.0,0.0,-3.0928,-3.0996,-2.9913,-3.0365,-3.0321,0.0,0.0,0.0,0.0,0.0,0.0,0.0,0.0,0.0,-2.3788,-2.3559,-2.344,-2.344,-2.3688,-2.3823,-2.3823,-2.4041,-2.4075,-2.3914,-2.4126,-2.4686,-2.5531,-2.6274,-2.7721,-2.9419,-2.8527,-2.7683,-2.6991,0.0,0.0,0.0,0.0,-2.5815,-2.5528,-2.5843,-2.629,0.0,-2.5665,0.0,0.0,0.0,0.0,0.0,0.0,0.0,0.0,0.0,0.0,-2.5961,-2.6807,-2.7176,-2.7348,-2.7348,-2.7084,-2.7259,0.0,-2.9345,-2.9334,-2.7673,0.0,0.0,0.0,0.0,0.0,-2.8412,-2.9398,-3.042,-3.1294,-3.1631,-3.2033,-3.2558,-3.2996,-3.3352,-3.3742,-3.4726,-3.4988,-3.4266,-3.4202,-3.3356,0.0,0.0,0.0,0.0,0.0,0.0,0.0,0.0,0.0,0.0,0.0,0.0,0.0,0.0,0.0,0.0,0.0,0.0,0.0,0.0,0.0,0.0,0.0,0.0,0.0,0.0,0.0,0.0,-2.9981,-3.0078,-2.873,-2.9094,-2.8873,0.0,0.0,0.0,0.0,0.0,0.0,-2.328,-2.3034,-2.2821,-2.2537,-2.2533,-2.2534,-2.2534,-2.2934,-2.311,-2.311,-2.3242,-2.3345,-2.3437,-2.3647,-2.4378,-2.5478,-2.5728,-2.6204,-2.6834,-2.6846,-2.6608,-2.6129,-2.5338,-2.4956,-2.4813,-2.4991,-2.4778,-2.4519,-2.5075,-2.5874,-2.6471,-2.5087,0.0,-2.6882,-2.5613,0.0,0.0,0.0,0.0,-2.3051,-2.3699,-2.4033,-2.4326,-2.4893,-2.5115,-2.5244,-2.5244,-2.5625,-2.6476,0.0,-2.9219,-2.9136,-2.7056,0.0,0.0,0.0,0.0,-2.7088,-2.7642,-2.8668,-2.9729,-3.072,-3.0833,-3.1119,-3.1829,-3.2105,-3.2249,-3.2249,-3.3679,-3.4412,-3.41,-3.4235,-3.387,-3.2856,0.0,0.0,0.0,0.0,0.0,0.0,0.0,0.0,0.0,0.0,0.0,0.0,0.0,0.0,0.0,0.0,0.0,0.0,0.0,0.0,0.0,0.0,0.0,0.0,0.0,0.0,0.0,0.0,0.0,-2.6781,-2.6915,0.0,0.0,0.0,0.0,-2.4845,-2.4369,-2.3686,-2.2791,-2.2719,-2.2279,-2.134,-2.1792,-2.2033,-2.2033,-2.2054,-2.2065,-2.2075,-2.2517,-2.2261,-2.137,-2.2195,-2.265,-2.2758,-2.3575,-2.3713,-2.3533,-2.5639,-2.6172,-2.5531,-2.4491,-2.3709,-2.3268,-2.3857,-2.4276,-2.4615,-2.4765,-2.5418,-2.6028,-2.5538,-2.5407,-2.5306,-2.4091,-2.4153,0.0,0.0,-2.3378,-2.3775,-2.3938,-2.4365,-2.4904,-2.5434,-2.6006,-2.6405,-2.6405,-2.6013,-2.5752,0.0,-2.8292,-2.9226,-2.6834,0.0,-2.7456,-2.6093,-2.5348,-2.5699,-2.779,-2.814,-2.8636,-2.9728,-2.9856,-2.9908,-2.9934,-3.0771,-3.1278,-3.1278,-3.22,-3.3108,-3.3969,-3.4068,-3.4166,-3.4301,-3.2914,0.0,0.0,0.0,0.0,0.0,0.0,0.0,0.0,0.0,0.0,0.0,0.0,0.0,0.0,0.0,0.0,0.0,0.0,0.0,0.0,0.0,0.0,0.0,0.0,0.0,0.0,0.0,0.0,-2.5475,-2.549,0.0,-2.4179,-2.3839,-2.3375,-2.2678,-2.2344,-2.18,-2.0952,-2.1165,-2.1178,-2.0847,-2.0998,-2.1116,-2.1116,-2.1379,-2.149,-2.149,-2.197,-2.2137,-2.207,-2.2373,-2.2656,-2.2886,-2.3188,-2.3237,-2.3178,-2.3973,-2.4171,-2.3944,-2.3585,-2.3277,-2.3145,-2.3359,-2.3512,-2.3696,-2.4035,-2.5079,-2.6292,-2.6753,-2.6395,-2.5784,-2.5333,-2.5177,-2.4895,-2.3924,-2.3701,-2.3756,-2.3502,-2.3961,-2.4525,-2.4446,-2.4625,-2.4666,-2.4368,-2.413,-2.404,-2.4158,-2.579,-2.6789,-2.5591,-2.5688,-2.5472,-2.4281,-2.4495,-2.5472,-2.7352,-2.8175,-2.9185,-3.0651,-3.052,-3.0319,-3.0319,-3.0317,-3.0317,-3.0317,-3.118,-3.1852,-3.2177,-3.3366,-3.3568,-3.2622,-3.272,-3.2017,0.0,0.0,0.0,0.0,0.0,0.0,0.0,0.0,0.0,0.0,0.0,0.0,0.0,0.0,0.0,0.0,0.0,0.0,0.0,0.0,0.0,0.0,0.0,0.0,0.0,0.0,-2.4344,-2.3902,-2.3761,-2.3354,-2.2616,-2.206,-2.1565,-2.1141,-2.1039,-2.075,-2.0175,-2.0449,-2.0605,-2.0605,-2.0605,-2.0674,-2.0791,-2.1084,-2.1268,-2.1455,-2.1894,-2.2246,-2.2519,-2.2656,-2.2838,-2.3091,-2.3091,-2.3091,-2.3091,-2.3091,-2.3091,-2.3091,-2.3091,-2.3091,-2.311,-2.3257,-2.3403,-2.3608,-2.4248,-2.5055,-2.6036,-2.6774,-2.6564,-2.5977,-2.5965,-2.574,-2.5349,-2.4604,-2.4306,-2.4121,-2.3682,-2.3949,-2.4346,-2.4072,-2.4004,-2.3887,-2.3447,-2.3359,-2.3276,-2.312,-2.4303,-2.5085,-2.4335,-2.4555,-2.4419,-2.3256,-2.389,-2.4971,-2.6485,-2.7622,-2.8876,-3.0343,-3.0393,-3.0331,-3.0331,-2.9829,-2.9578,-2.9779,-3.0188,-3.0797,-3.1633,-3.2206,-3.2288,-3.1881,-3.1999,-3.1225,-2.9579,0.0,0.0,0.0,0.0,0.0,0.0,0.0,0.0,0.0,0.0,0.0,0.0,0.0,0.0,0.0,0.0,0.0,0.0,0.0,0.0,0.0,0.0,0.0,-2.3067,-2.281,-2.2462,-2.2012,-2.1612,-2.1158,-2.0634,-2.0185,-2.0107,-2.0576,-2.0605,-2.0605,-2.0605,-2.0605,-2.0605,-2.0605,-2.0615,-2.0791,-2.119,-2.122,-2.1484,-2.1904,-2.2334,-2.2529,-2.2549,-2.2906,-2.3091,-2.3091,-2.3091,-2.3091,-2.3091,-2.3091,-2.3091,-2.3091,-2.3091,-2.3101,-2.3169,-2.3633,-2.4062,-2.456,-2.5372,-2.5439,-2.5166,-2.5547,-2.5693,-2.5693,-2.5693,-2.5693,-2.5596,-2.5215,-2.5135,-2.499,-2.457,-2.4453,-2.4453,-2.4443,-2.4434,-2.4316,-2.3896,-2.3799,-2.3662,-2.3198,-2.4016,-2.4425,-2.3309,-2.4006,-2.4382,-2.3276,-2.3516,0.0,-2.528,-2.639,-2.753,-2.8722,-2.9408,-2.979,-2.9817,-2.9289,-2.9202,-2.9754,-2.9264,-3.0001,-3.2401,-3.0618,-3.0446,-3.2341,-3.0801,-2.9592,-2.8812,0.0,0.0,0.0,0.0,0.0,0.0,0.0,0.0,0.0,0.0,0.0,0.0,0.0,0.0,0.0,0.0,0.0,0.0,0.0,0.0,0.0,0.0,-2.1563,-2.1739,-2.1115,-2.0764,-2.0951,-2.0911,-2.0766,-2.0624,-2.0498,-2.0478,-2.0595,-2.0605,-2.0605,-2.0605,-2.0605,-2.0605,-2.0605,-2.0879,-2.1073,-2.119,-2.1814,-2.2227,-2.2344,-2.2721,-2.2925,-2.2925,-2.3042,-2.3091,-2.3091,-2.3091,-2.3091,-2.3091,-2.3091,-2.3091,-2.3091,-2.3091,-2.3286,-2.3623,-2.375,-2.4258,-2.4922,-2.5166,-2.5381,-2.5528,-2.5645,-2.5693,-2.5693,-2.5693,-2.5693,-2.5664,-2.5586,-2.5557,-2.5527,-2.5362,-2.5323,-2.5293,-2.4971,-2.4893,-2.4775,-2.4336,-2.4004,-2.375,-2.3633,-2.3604,-2.3464,-2.3135,-2.3343,-2.3583,-2.3599,-2.3711,0.0,-2.6243,-2.6769,-2.7733,-2.9742,-2.9768,-2.987,-3.034,-2.988,-2.9616,-2.9779,-2.9641,-2.9872,-3.0533,-3.0668,-3.0983,-3.1509,-3.0137,-2.9294,0.0,0.0,0.0,0.0,0.0,0.0,0.0,0.0,0.0,0.0,0.0,0.0,0.0,0.0,0.0,0.0,0.0,0.0,0.0,0.0,0.0,0.0,-2.1044,-2.1124,-2.0958,-2.0518,-2.0283,-2.0576,-2.0605,-2.0605,-2.0605,-2.0605,-2.0605,-2.0605,-2.0605,-2.0605,-2.0605,-2.0605,-2.0693,-2.084,-2.1064,-2.1366,-2.1726,-2.2266,-2.2555,-2.274,-2.2984,-2.3091,-2.3091,-2.3091,-2.3091,0.0,-2.3091,-2.3091,-2.3091,-2.3091,-2.3091,0.0,0.0,0.0,0.0,0.0,-2.4219,-2.4814,-2.5047,-2.5244,-2.5488,-2.5625,-2.5693,-2.5693,-2.5693,-2.5693,-2.5693,-2.5693,-2.5693,-2.5693,-2.5693,-2.5693,-2.5625,-2.541,-2.5352,-2.5081,-2.4051,-2.3626,-2.3409,-2.324,-2.2872,0.0,-2.3508,-2.3481,-2.3496,-2.375,-2.4102,-2.4769,-2.6001,-2.6517,-2.7323,-2.8701,-2.8692,-2.8922,-2.9768,-2.9165,0.0,0.0,0.0,-2.9327,-2.9101,-3.0216,0.0,0.0,0.0,0.0,0.0,0.0,0.0,0.0,-2.8189,-2.8121,0.0,0.0,0.0,0.0,0.0,0.0,0.0,0.0,0.0,0.0,0.0,0.0,0.0,0.0,0.0,0.0,-2.085,-2.1029,-2.0663,-2.0605,-2.0605,-2.0605,-2.0605,-2.0605,-2.0605,-2.0605,-2.0605,-2.0605,-2.0605,-2.0605,-2.0605,0.0,0.0,0.0,0.0,-2.1629,-2.2432,-2.2539,-2.2773,-2.3091,-2.3091,-2.3091,-2.3091,-2.3091,-2.3091,-2.3091,-2.3091,-2.3091,-2.3091,-2.3091,-2.3091,-2.311,-2.3198,-2.3208,-2.3227,-2.376,-2.4078,-2.4299,-2.4884,0.0,0.0,-2.5509,-2.5586,-2.5479,-2.5479,-2.5479,-2.5479,-2.5479,-2.5586,-2.5693,-2.5693,-2.5693,-2.5635,-2.5489,-2.5479,-2.4974,-2.3241,-2.2823,-2.269,-2.2494,-2.2127,-2.2391,-2.4115,-2.4072,-2.3828,-2.3916,-2.458,-2.5135,-2.5184,-2.6003,-2.6615,-2.6702,0.0,0.0,-2.851,-2.7905,-2.8083,-2.9509,-2.9226,-2.8775,-2.831,-2.9652,-2.9986,-2.9114,-2.9139,-2.9465,-2.9967,-2.9967,-2.9428,-2.8397,-2.8701,-2.8692,0.0,0.0,0.0,0.0,0.0,0.0,0.0,0.0,0.0,0.0,0.0,0.0,0.0,0.0,0.0,-1.9739,-2.0222,-2.069,-2.0624,-2.0605,-2.0605,-2.0605,-2.0605,-2.0605,-2.0605,-2.0605,-2.0605,-2.0605,-2.0605,-2.0605,-2.0605,-2.0605,-2.0644,-2.0693,-2.1387,-2.1836,-2.2002,-2.2676,-2.3013,-2.3091,0.0,0.0,-2.3091,-2.3091,-2.3091,-2.3091,-2.3091,-2.3091,-2.3091,-2.3091,-2.3091,-2.3169,-2.3851,-2.3965,-2.376,-2.4578,-2.4184,-2.343,-2.4688,-2.4592,-2.4144,-2.5304,-2.4971,-2.4097,-2.4097,-2.4097,0.0,-2.4097,-2.4873,-2.5693,-2.5693,-2.5693,-2.543,-2.4353,-2.4097,-2.3665,-2.2264,-2.1661,-2.168,-2.2699,-2.2568,-2.2711,-2.4164,-2.4072,-2.4023,-2.4717,-2.5008,-2.5195,-2.5557,-2.5789,-2.6109,-2.664,-2.6764,-2.6959,-2.7383,-2.8104,-2.8481,-2.841,-2.9176,-2.9578,-2.9478,-3.0174,-3.0478,-3.0294,-3.0696,-3.0972,-3.1085,-3.1085,-3.0746,-3.0118,-2.9732,-2.9312,0.0,0.0,0.0,0.0,0.0,0.0,0.0,0.0,0.0,0.0,0.0,-2.1002,0.0,0.0,-2.0393,-1.9703,-2.0146,-2.0605,-2.0605,-2.0605,-2.0605,-2.0605,-2.0605,-2.0605,-2.0605,-2.0605,-2.0605,-2.0605,-2.0605,-2.0605,-2.0605,-2.0605,-2.0811,-2.1251,-2.166,-2.209,-2.251,-2.2886,-2.3091,-2.3091,-2.3091,-2.3091,-2.3091,-2.3091,-2.3091,-2.3091,-2.3091,-2.3091,-2.3091,-2.3091,-2.3091,-2.3159,-2.3848,-2.3975,-2.3809,-2.4023,-2.3806,-2.3439,-2.3655,-2.3422,-2.3111,-2.3556,-2.3226,-2.2717,-2.2717,-2.2717,-2.2818,-2.3534,-2.3692,-2.3998,-2.5333,-2.4716,-2.3692,-2.3692,-2.3176,-2.2307,-2.0939,-2.0448,-2.0482,-2.1186,-2.095,-2.1396,-2.3647,-2.3143,-2.3015,-2.4811,-2.5254,-2.5488,-2.5664,-2.5693,-2.5838,-2.6154,-2.6017,-2.6146,-2.6829,-2.8305,-2.9224,-2.9337,-3.0142,-3.0595,-3.0595,-3.1122,-3.1411,-3.1411,-3.1675,-3.18,-3.18,-3.18,-3.1524,-3.0997,-3.0721,-3.0143,0.0,0.0,0.0,0.0,0.0,0.0,0.0,0.0,-2.2332,-2.1615,-2.1144,-2.0506,-1.9492,-1.9959,-2.0322,-1.9971,-2.0465,-2.0857,-2.0857,-2.1049,-2.1155,-2.1155,-2.0828,-2.0605,-2.0605,-2.0605,-2.0605,-2.0605,-2.0605,-2.0605,-2.0605,-2.0605,-2.0967,-2.1738,-2.1846,-2.2246,-2.2964,-2.3052,-2.3091,-2.3091,-2.3091,-2.3091,-2.3091,-2.3091,-2.3091,-2.3091,-2.3091,-2.3091,-2.3091,-2.3091,-2.3091,-2.313,-2.3525,-2.3625,-2.3496,-2.3105,-2.3057,-2.3025,-2.2342,-2.1996,-2.1815,-2.1712,-2.1499,-2.1296,-2.1296,-2.1296,-2.1499,-2.2626,-2.2316,-2.2206,-2.4353,-2.3335,-2.1904,-2.2717,-2.2064,-2.0888,-1.9524,-1.922,-1.9272,-1.9524,-1.9316,-2.0023,-2.2824,-2.211,-2.1955,-2.4449,-2.5102,-2.5323,-2.5323,-2.5538,-2.5693,-2.5693,-2.541,-2.5674,-2.6795,-2.8589,-2.9922,-3.0566,-3.1097,-3.1386,-3.1386,-3.1913,-3.2215,-3.2215,-3.2328,-3.2378,-3.2378,-3.2378,-3.2089,-3.1549,-3.1436,-3.0871,-3.0969,0.0,0.0,-2.4425,-2.3513,-2.2958,0.0,0.0,-2.0829,-2.0758,-2.0083,-1.9482,-1.9333,-1.9668,-1.9971,-1.9922,-2.1004,-2.1849,-2.1849,-2.2627,-2.3184,-2.3184,-2.1642,-2.0605,-2.0605,-2.0605,-2.0605,-2.0605,-2.0605,-2.0605,-2.0605,-2.0605,-2.0791,-2.1249,-2.168,-2.2109,-2.2578,-2.2906,-2.3091,-2.3091,-2.3091,-2.3091,-2.3091,-2.3091,-2.3091,-2.3091,-2.3091,-2.3091,-2.3091,-2.3091,-2.3091,-2.3101,-2.3149,-2.2934,-2.2541,-2.2487,-2.1781,-2.0802,-2.1063,-2.0614,-2.0087,-2.1322,-2.0837,-1.9834,-1.9834,-1.9834,-1.9878,-2.004,-2.0845,-2.1752,-2.2055,-2.1904,-2.1448,-2.0333,-1.993,-1.9472,-1.8094,-1.7838,-1.8199,-1.9369,-1.9546,-2.0038,-2.1643,-2.1769,-2.2147,-2.3619,-2.3912,-2.3939,-2.3939,-2.4971,-2.5693,-2.5693,-2.5645,-2.6158,-2.7502,-2.8912,-3.0029,-3.0566,-3.1097,-3.1386,-3.1386,-3.1913,-3.2215,-3.2215,-3.2717,-3.298,-3.298,-3.298,-3.2679,-3.2102,-3.1625,-3.1085,-2.7995,0.0,0.0,0.0,-2.0499,-2.0062,-2.036,-2.0168,-2.0043,-2.0502,-2.0321,-2.0208,-2.0778,-2.1005,-2.1305,0.0,-2.2498,-2.2888,-2.2888,-2.322,-2.3514,-2.3514,-2.2776,-2.2048,-2.1479,-2.0934,-2.0605,-2.0605,-2.0605,-2.0605,-2.0605,-2.0605,-2.0771,-2.1181,-2.166,-2.209,-2.251,-2.2886,-2.3091,-2.3091,-2.3091,-2.3091,-2.3091,-2.3091,-2.3091,-2.3091,-2.3091,-2.3091,-2.3091,-2.3091,-2.3091,-2.3047,-2.2325,-2.1932,-2.1752,-2.1752,-2.1332,-2.0631,-1.9838,-1.9418,-1.9279,-1.931,-1.8909,-1.8454,-1.8454,-1.8454,-1.861,-1.9376,-1.9472,-1.9672,-2.1288,-2.0531,-1.9369,-1.9524,-1.9013,-1.8297,-1.774,-1.7582,-1.7793,-1.8349,-1.8454,-1.8857,-2.0231,-1.9826,-1.9775,-2.11,-2.2676,-2.3692,-2.3692,-2.4864,-2.5693,-2.5693,-2.6342,-2.7176,-2.8144,-2.9683,-3.0894,-3.1492,-3.2064,-3.2365,-3.2365,-3.2591,-3.2717,-3.2717,-3.2955,-3.3124,-3.3124,-3.3124,-3.2955,-3.2692,-3.18,-3.1273,-2.5248,0.0,0.0,-1.9737,-1.893,-1.8699,-1.9838,-2.0085,-2.0257,-2.0827,-2.0869,-2.1045,-2.1998,-2.2084,-2.2328,-2.3331,-2.3734,-2.3927,-2.3927,-2.4145,-2.4325,-2.4325,-2.4072,-2.3624,-2.2888,-2.1707,-2.0895,-2.0605,-2.0605,-2.0605,-2.0605,-2.0605,-2.0771,-2.1181,-2.1543,-2.1963,-2.251,-2.2769,-2.2984,-2.3091,-2.3091,-2.3091,-2.3091,-2.3091,-2.3091,-2.3091,-2.3091,-2.3091,-2.3091,-2.3091,-2.3169,-2.3169,-2.182,-2.1212,-2.1054,-2.0585,-2.0379,-2.0121,-1.874,-1.8434,-1.8518,-1.7823,-1.7582,-1.7582,-1.7582,-1.7582,-1.7786,-1.876,-1.8349,-1.8042,-2.0076,-1.9109,-1.7838,-1.8812,-1.8297,-1.7582,-1.7582,-1.7582,-1.7582,-1.7582,-1.7582,-1.7891,-1.8864,-1.8321,-1.7993,-1.893,-2.1436,-2.325,-2.3144,-2.4658,-2.5693,-2.5693,-2.7125,-2.8207,-2.8578,-3.0528,-3.1803,-3.1985,-3.2667,-3.3048,-3.2842,-3.2993,-3.3124,-3.3124,-3.3124,-3.3124,-3.3124,-3.3124,-3.3124,-3.3056,-3.1913,-3.1386,0.0,0.0,-2.0484,-2.0216,-2.0058,-2.028,-2.1556,-2.1824,-2.1814,-2.1846,-2.1514,-2.1471,-2.2486,-2.2304,-2.2328,-2.3331,-2.4337,-2.4933,-2.4933,-2.5804,-2.6418,-2.6418,-2.5558,-2.4933,0.0,-2.311,-2.1593,-2.0673,-2.0605,-2.0605,-2.0605,-2.0605,-2.0771,-2.1181,-2.121,-2.1619,-2.251,-2.2519,-2.2691,-2.3091,-2.3091,-2.3091,-2.3091,-2.3091,-2.3091,-2.3091,-2.3091,-2.3091,-2.3091,-2.3091,-2.3389,-2.3631,-2.1957,-2.102,-2.0399,-1.8787,-1.8372,-1.8464,-1.7867,-1.7615,-1.7621,-1.7635,-1.7582,-1.7582,-1.7582,-1.7582,-1.7635,-1.7635,-1.7635,-1.7635,-1.7681,-1.7687,-1.7635,-1.7635,-1.7635,-1.7582,-1.7582,-1.7582,-1.7582,-1.7582,-1.7582,-1.7635,-1.7635,-1.7829,-1.7929,-1.7675,-2.0218,-2.2064,-2.1794,-2.4048,-2.5693,-2.5693,-2.7898,-2.916,-2.8623,-3.1344,-3.2591,-3.1486,-3.2466,-3.283,-3.2265,-3.278,-3.3124,-3.3124,-3.3124,-3.3124,-3.3124,-3.3124,-3.3124,-3.3056,-3.1913,-3.1386,0.0,0.0,-1.9516,-1.7874,-1.8012,-1.9009,-2.0812,-2.1522,-2.2098,-2.326,-2.3688,-2.4137,-2.5108,-2.4886,-2.4848,-2.5877,-2.6001,-2.599,-2.599,-2.628,-2.6499,-2.6499,-2.6198,0.0,0.0,0.0,0.0,-2.1555,-2.0934,-2.0605,-2.0605,-2.0605,-2.0674,-2.0791,-2.1357,-2.1807,-2.21,-2.2646,-2.2955,-2.3091,-2.3091,-2.3091,-2.3091,-2.3091,-2.3091,-2.3091,-2.3091,-2.2633,-2.1889,-2.1889,-2.1626,-2.1096,-1.9715,-1.9067,-1.8816,-1.7632,-1.7127,-1.7085,-1.7292,-1.7474,-1.7582,-1.7582,-1.7582,-1.7582,-1.7582,-1.7582,-1.7582,-1.7582,-1.7582,-1.7582,-1.7582,-1.7582,-1.7582,-1.7582,-1.7582,-1.7582,-1.7582,-1.7582,-1.7582,-1.7582,-1.7582,-1.7649,-1.7856,-1.7809,-1.8013,-1.8833,-2.0589,-2.246,-2.4115,-2.5118,-2.5693,-2.5693,-2.7945,-2.934,-2.9126,-3.1592,-3.2754,-3.1989,-3.2654,-3.2817,-3.224,-3.2767,-3.3124,-3.3124,-3.3124,-3.3124,-3.3124,-3.3124,-3.3124,-3.3056,-3.1913,-3.1386,0.0,-2.0055,-1.9782,-1.8589,-1.9217,-2.0619,-2.2702,-2.3649,-2.4283,-2.5054,-2.5589,-2.6101,-2.6712,-2.6254,-2.619,-2.7388,-2.7153,-2.6788,-2.6788,-2.6788,-2.6713,-2.6512,-2.6499,0.0,0.0,0.0,0.0,-2.2027,-2.1441,-2.0934,-2.0605,-2.0605,-2.0605,-2.0605,-2.1153,-2.1494,-2.165,-2.2146,-2.2574,-2.2877,-2.3023,-2.3091,-2.3091,-2.3091,-2.3091,-2.3091,-2.3091,-2.2677,-2.1889,-2.148,-2.1382,-2.1296,-1.9011,-1.8545,-1.9,-1.7307,-1.6653,-1.669,-1.7072,-1.7326,-1.7442,-1.7549,-1.7582,-1.7582,-1.7582,-1.7582,-1.7582,-1.7582,-1.7582,-1.7582,-1.7582,-1.7582,-1.7582,-1.7582,-1.7582,-1.7582,-1.7582,-1.7582,-1.7582,-1.7582,-1.7669,-1.7809,-1.7955,-1.8297,-1.8931,-2.0268,-2.1589,-2.3026,-2.4766,-2.5382,-2.5878,-2.6342,-2.8168,-2.9579,-3.0,-3.1921,-3.283,-3.2252,-3.2754,-3.2817,-3.224,-3.2767,-3.3124,-3.3124,-3.3124,-3.3124,-3.3124,-3.3124,-3.3124,-3.3099,-3.2114,-3.1574,-2.14,-2.0989,-2.1362,-2.2248,-2.3433,-2.4907,-2.6967,-2.7972,-2.8201,-2.7308,-2.7292,-2.7452,0.0,0.0,-2.6408,-2.7863,-2.762,-2.7243,-2.7208,-2.7172,-2.6972,0.0,0.0,0.0,0.0,0.0,0.0,-2.2065,0.0,-2.1555,-2.0644,-2.0605,-2.0605,-2.0605,-2.0625,-2.0801,-2.119,-2.122,-2.1639,-2.248,-2.2867,-2.3062,-2.3062,-2.3081,-2.3091,-2.3091,-2.3091,-2.3047,-2.2906,-2.1819,-2.2444,-2.3708,-1.9701,-1.9313,-2.0662,-1.7753,-1.6901,-1.7179,-1.7199,-1.7213,-1.7266,-1.7548,-1.7582,-1.7582,-1.7582,-1.7582,-1.7582,-1.7582,-1.7582,-1.7582,-1.7582,-1.7582,-1.7582,-1.7582,-1.7582,-1.7582,-1.7582,-1.7582,-1.7582,-1.7582,-1.7883,-1.809,-1.8077,-1.9338,-2.0747,-2.198,-2.312,-2.3791,-2.3791,-2.4913,-2.6207,-2.7447,-2.868,-2.9909,-3.1078,-3.2382,-3.283,-3.2252,-3.2754,-3.2817,-3.224,-3.2767,-3.3124,-3.3124,-3.3124,-3.3124,-3.3124,-3.3124,-3.3124,-3.3111,-3.2478,-3.1913,-2.2965,-2.347,-2.4566,-2.4676,-2.5904,-2.7438,-2.8701,-2.9863,-3.0512,-2.9929,-3.0429,-3.0682,0.0,0.0,0.0,-2.8048,-2.7293,0.0,-2.5682,-2.5611,0.0,0.0,0.0,-2.4145,-2.3891,-2.3672,0.0,0.0,-2.1336,-2.0857,-2.0605,-2.0605,-2.0605,-2.0605,-2.0889,-2.1123,-2.119,-2.1553,-2.1826,-2.2051,-2.2471,-2.2676,-2.2643,-2.2955,-2.3091,-2.3091,-2.3091,-2.2589,-2.1774,-2.178,-2.1112,-1.9917,-1.9224,-1.8649,-1.8136,-1.7361,-1.6991,-1.6847,-1.7125,-1.734,-1.7482,-1.7555,-1.7582,-1.7582,-1.7582,-1.7582,-1.7582,-1.7582,-1.7582,-1.7582,-1.7582,-1.7582,-1.7582,-1.7582,-1.7582,-1.7582,-1.7582,-1.7582,-1.7582,-1.7582,-1.8653,-1.9478,-1.9239,-2.135,-2.3142,-2.327,-2.4378,-2.5177,-2.5177,-2.5489,-2.6207,-2.7447,-2.868,-2.9909,-3.1078,-3.2382,-3.283,-3.2252,-3.2754,-3.2817,-3.224,-3.2767,-3.3124,-3.3124,-3.3124,-3.3124,-3.3124,-3.3124,-3.3124,-3.3111,-3.2478,-3.1913,-2.4516,-2.5921,-2.7756,-2.775,-2.927,-3.0996,-3.1827,-3.2792,-3.3271,-3.2366,-3.2828,0.0,0.0,0.0,0.0,0.0,0.0,0.0,-2.6088,-2.5636,-2.5062,0.0,-2.3781,0.0,-2.2888,-2.285,-2.244,0.0,-2.1298,-2.1039,-2.0644,-2.0605,-2.0605,-2.0605,-2.081,-2.0937,-2.0937,-2.1377,-2.1602,-2.1611,-2.2031,-2.2236,-2.2246,-2.2676,-2.2818,-2.2838,0.0,-2.2721,-2.2113,-2.2035,-2.1301,-2.0136,-1.9464,-1.8833,-1.818,-1.7445,-1.7179,-1.7094,-1.7186,-1.7393,-1.7582,-1.7582,-1.7582,-1.7582,-1.7582,-1.7582,-1.7582,-1.7582,-1.7582,-1.7582,-1.7582,-1.7582,-1.7582,-1.7582,-1.7582,-1.7733,-1.8349,-1.7946,-1.7637,-1.8328,-1.9844,-2.0903,-2.0708,-2.2578,-2.4032,-2.3746,-2.4815,-2.5693,-2.5693,-2.5693,-2.6207,-2.7447,-2.868,-2.9909,-3.1078,-3.2591,-3.3307,-3.2968,-3.3483,-3.3545,-3.298,-3.3269,-3.3319,-3.3081,-3.3124,-3.3124,-3.3124,-3.3124,-3.3124,-3.3111,-3.2742,-3.2164,-2.6376,-2.8413,-3.0657,-3.111,-3.2883,-3.4644,-3.5245,-3.5902,-3.5957,-3.4424,0.0,0.0,-3.1777,0.0,-2.9605,-2.8945,0.0,-2.7384,-2.7026,-2.625,-2.548,-2.4873,-2.4036,-2.311,-2.2103,-2.1989,-2.1593,-2.0673,-2.1336,-2.1451,-2.0644,-2.0605,-2.0605,-2.0605,-2.0605,-2.0605,-2.0605,-2.0947,-2.1103,-2.1112,-2.1592,-2.1797,-2.1816,-2.2236,-2.2432,-2.2451,0.0,0.0,-2.2965,-2.2433,-2.2298,-2.2215,-2.0299,-1.9585,-1.9391,-1.7857,-1.742,-1.7549,-1.7347,-1.7427,-1.7582,-1.7582,-1.7582,-1.7582,-1.7582,-1.7582,-1.7582,-1.7582,-1.7582,-1.7582,-1.7582,-1.7733,-1.7891,-1.7891,-1.7989,-1.844,-1.9575,-1.8686,-1.8126,-1.9508,-2.1171,-2.2301,-2.2301,-2.3424,-2.4231,-2.3994,-2.4971,-2.5781,-2.5917,-2.5781,-2.6265,-2.7768,-2.8861,-3.008,-3.1559,-3.3111,-3.401,-3.401,-3.4387,-3.4399,-3.3922,-3.3822,-3.3571,-3.3124,-3.3124,-3.3124,-3.3124,-3.3124,-3.3124,-3.3124,-3.3124,-3.2466,-2.9967,-3.1167,-3.2353,-3.4136,-3.5296,-3.6161,-3.6696,-3.7393,0.0,0.0,0.0,-3.5015,-3.2407,-3.1668,0.0,-2.8863,0.0,0.0,0.0,0.0,-2.4801,0.0,0.0,0.0,0.0,0.0,0.0,0.0,0.0,-2.0789,-2.0605,-2.0605,-2.0605,-2.0605,-2.0605,-2.0605,-2.0605,-2.0683,-2.0684,-2.0723,-2.1133,-2.1307,-2.1327,-2.1797,-2.1992,-2.2002,-2.207,0.0,-2.2633,-2.3235,-2.3055,-2.2336,-2.1553,-2.0586,-1.942,-1.8039,-1.7542,-1.7575,-1.7522,-1.7542,-1.7582,-1.7582,-1.7582,-1.7582,-1.7582,-1.7582,-1.7582,-1.7582,-1.7582,-1.7582,-1.7582,-1.8401,-1.9272,-1.9272,-2.0128,-2.0961,-2.0764,-2.056,-2.0428,-2.0692,-2.2204,-2.3432,-2.3432,-2.4514,-2.541,-2.5342,-2.5538,-2.6062,-2.7125,-2.6332,-2.6752,-2.9462,-2.9918,-3.1159,-3.3868,-3.4377,-3.4575,-3.4575,-3.4248,-3.3997,-3.3897,-3.3458,-3.3224,-3.3124,-3.3124,-3.3124,-3.3124,-3.3124,-3.3124,-3.3124,-3.3124,-3.2466,-3.1862,-3.3357,-3.4709,-3.5545,-3.6572,-3.7492,-3.7881,0.0,0.0,0.0,0.0,-3.5947,-3.3937,0.0,0.0,0.0,0.0,0.0,0.0,0.0,0.0,0.0,0.0,0.0,0.0,0.0,0.0,0.0,0.0,-2.0605,-2.0605,-2.0605,-2.0605,-2.0605,-2.0605,-2.0605,-2.0605,-2.0605,-2.0605,-2.0605,-2.0781,-2.0889,-2.0898,-2.1348,-2.1553,-2.1562,-2.1787,0.0,-2.2256,-2.3115,-2.2785,-2.1767,-2.1979,-2.0801,-1.899,-1.8511,-1.7919,-1.7434,-1.7528,-1.7582,-1.7582,-1.7582,-1.7582,-1.7582,-1.7582,-1.7582,-1.7582,-1.7582,-1.7582,-1.7733,-1.8454,-1.9117,-1.9775,-2.0538,-2.1561,-2.2013,-2.0709,-2.1657,-2.2572,-2.1948,-2.3251,-2.4502,-2.4718,-2.5274,-2.5693,-2.5693,-2.5693,-2.6287,-2.7829,-2.7476,-2.7792,-2.958,-3.0651,-3.1748,-3.3235,-3.4438,-3.5107,-3.5107,-3.4856,-3.4625,-3.4336,-3.3796,-3.337,-3.3124,-3.3124,-3.3124,-3.3124,-3.3124,-3.3124,-3.3124,-3.3124,-3.2629,-3.3179,-3.4829,-3.6129,-3.6309,-3.7116,-3.803,-3.8579,-3.8283,0.0,0.0,0.0,-3.6655,-3.5125,0.0,0.0,0.0,0.0,0.0,0.0,0.0,0.0,0.0,0.0,0.0,0.0,0.0,0.0,0.0,0.0,0.0,-2.0615,-2.0605,-2.0605,-2.0605,-2.0693,-2.0752,-2.0752,-2.0752,-2.0752,-2.0752,-2.0644,-2.0605,-2.0615,-2.0928,-2.1094,-2.1113,-2.1553,0.0,0.0,-2.2856,-2.2602,-2.1725,-2.2231,-2.0971,-1.8973,-1.8897,-1.8152,-1.7139,-1.7315,-1.7395,-1.7447,-1.7701,-1.7684,-1.7582,-1.7582,-1.7582,-1.7582,-1.7582,-1.7786,-1.823,-1.9236,-1.9874,-2.0667,-2.1986,-2.2726,-2.2711,-2.1095,-2.2612,-2.3992,-2.3047,-2.4002,-2.5068,-2.5518,-2.5596,-2.5577,-2.5674,-2.5917,-2.6782,-2.8545,-2.9031,-2.9528,-3.0445,-3.1677,-3.256,-3.2801,-3.4465,-3.5495,-3.5495,-3.527,-3.4956,-3.4562,-3.401,-3.352,-3.3124,-3.3124,-3.3124,-3.3124,-3.3124,-3.3124,-3.3124,-3.3124,-3.2767,-3.4468,-3.507,-3.5144,-3.6711,-3.6838,-3.695,-3.8387,0.0,0.0,0.0,-3.7226,-3.6681,-3.4925,0.0,0.0,0.0,0.0,-3.0153,0.0,0.0,0.0,0.0,0.0,0.0,0.0,0.0,0.0,0.0,0.0,0.0,-2.0644,-2.0605,-2.0605,-2.0605,-2.0957,-2.1132,-2.1132,-2.1132,-2.1132,-2.1132,-2.0762,-2.0605,-2.0605,-2.0644,-2.0664,-2.0693,-2.1103,0.0,0.0,-2.2856,-2.3344,-2.349,-2.2675,-2.1592,-2.024,-1.9022,-1.7775,-1.6747,-1.6774,-1.6787,-1.6981,-1.8059,-1.8048,-1.7582,-1.7582,-1.7582,-1.7582,-1.7582,-1.8454,-1.9361,-1.9116,-2.0875,-2.2955,-2.3899,-2.3924,-2.3651,-2.3474,-2.3673,-2.3803,-2.3703,-2.4088,-2.4619,-2.5106,-2.5174,-2.5273,-2.5625,-2.6668,-2.8078,-2.9797,-3.1044,-3.238,-3.4049,-3.3817,-3.3991,-3.5102,-3.5399,-3.5495,-3.5495,-3.4613,-3.4022,-3.3972,-3.3445,-3.3174,-3.3124,-3.3124,-3.3124,-3.3124,-3.3124,-3.3124,-3.3124,-3.3124,-3.2767,-3.4987,-3.5639,-3.5856,-3.6563,-3.6803,-3.7133,-3.8015,0.0,0.0,-3.7596,-3.7135,-3.6504,-3.5812,-3.4749,-3.4059,-3.4263,-3.2263,0.0,0.0,0.0,0.0,0.0,0.0,0.0,0.0,0.0,0.0,0.0,0.0,0.0,-2.1377,-2.1398,-2.1398,-2.1398,-2.1533,-2.1504,-2.119,-2.119,-2.1064,-2.083,-2.0693,-2.0605,-2.0615,-2.084,-2.0967,-2.0977,-2.1112,0.0,0.0,-2.2256,-2.2637,-2.3023,-2.2888,-2.2062,-2.0963,-2.0597,-1.9686,-1.8654,-1.8859,-1.8935,-1.9033,-1.9464,-1.9455,-1.913,-1.8391,-1.8145,-1.8145,-1.8145,-1.9087,-2.0235,-2.0882,-2.2449,-2.3889,-2.4004,-2.3906,-2.3721,-2.3457,-2.3398,-2.3477,-2.374,-2.3926,-2.4258,-2.4998,-2.5116,-2.55,-2.6693,-2.7268,-2.8636,-3.1436,-3.2263,-3.3276,-3.5015,-3.4929,-3.4823,-3.5031,-3.5307,-3.5357,-3.5019,-3.4324,-3.3897,-3.3897,-3.337,-3.3124,-3.3124,-3.3124,-3.3124,-3.3124,-3.3124,-3.3124,-3.3124,-3.3124,-3.2955,-3.5223,-3.5875,-3.6245,-3.656,-3.6684,-3.6925,0.0,0.0,0.0,-3.7379,-3.6884,-3.6333,-3.6203,-3.4915,-3.4214,-3.5144,-3.2688,-3.0679,-3.0688,0.0,0.0,0.0,0.0,0.0,0.0,0.0,0.0,0.0,0.0,0.0,0.0,-2.2256,-2.208,-2.1709,-2.1943,-2.1807,-2.12,-2.1327,-2.1201,-2.0762,-2.0762,-2.0762,-2.0781,-2.1221,-2.1385,-2.1395,0.0,0.0,0.0,-2.2207,-2.2432,-2.2734,-2.2984,-2.2359,-2.1329,-2.159,-2.0856,-1.9816,-2.0071,-2.0114,-2.0209,-2.0531,-2.0437,-2.0019,-1.9495,-1.9204,-1.9082,-1.9082,-1.9926,-2.1135,-2.2479,-2.3425,-2.3919,-2.3672,-2.3594,-2.3516,-2.3159,-2.3091,-2.3188,-2.3535,-2.3594,-2.3828,-2.4607,-2.5112,-2.5882,-2.7223,-2.814,-2.9628,-3.2321,-3.2959,-3.3741,-3.5103,-3.5257,-3.5094,-3.4705,-3.4881,-3.4856,-3.45,-3.396,-3.3658,-3.3658,-3.3282,-3.3124,-3.3124,-3.3124,-3.3124,-3.3124,-3.3124,-3.3124,-3.3124,-3.3124,-3.3124,-3.5245,-3.56,-3.5854,-3.6923,-3.6399,-3.6015,0.0,0.0,0.0,-3.6416,-3.6395,-3.6245,-3.5694,-3.5052,-3.4587,-3.4605,-3.2461,-3.0597,-3.0081,0.0,0.0,0.0,0.0,0.0,0.0,0.0,0.0,0.0,0.0,0.0,0.0,-2.3081,-2.2506,-2.1239,-2.2019,-2.21,-2.12,-2.166,-2.166,-2.119,-2.119,-2.119,-2.12,-2.168,-2.1875,0.0,0.0,0.0,0.0,-2.2916,-2.3081,-2.3091,-2.3091,-2.2359,-2.1293,-2.1293,-2.0531,-1.9497,-1.9505,-1.9505,-1.9733,-2.0899,-2.0494,-1.9724,-2.0899,-2.083,-2.0377,-2.0377,-2.1041,-2.208,-2.3429,-2.3432,-2.311,-2.3101,-2.3101,-2.3101,-2.3091,-2.3091,-2.3091,-2.3101,-2.3101,-2.3247,-2.3721,-2.5196,-2.643,-2.6823,-2.9353,-3.138,-3.2017,-3.3162,-3.4123,-3.4675,-3.4726,-3.4726,-3.468,-3.4223,-3.3909,-3.3909,-3.3382,-3.3124,-3.3124,-3.3124,-3.3124,-3.3124,-3.3124,-3.3124,-3.3124,-3.3124,-3.3124,-3.3124,-3.3124,-3.3124,-3.5352,-3.56,-3.5672,-3.6032,-3.6139,-3.627,-3.6766,0.0,0.0,-3.6395,-3.6118,-3.5805,-3.5644,-3.5052,-3.4751,-3.5209,-3.3126,-3.1251,0.0,0.0,0.0,0.0,0.0,0.0,0.0,0.0,0.0,0.0,0.0,0.0,0.0,-2.2818,-2.2529,-2.2077,-2.2373,-2.2246,-2.168,-2.1816,-2.1816,-2.168,-2.168,-2.168,-2.1699,-2.2119,0.0,0.0,0.0,0.0,0.0,-2.273,-2.2838,-2.3091,-2.3091,-2.2862,-2.2536,-2.2536,-2.2315,-2.1952,-2.1952,-2.1952,-2.1996,-2.2403,-2.2271,-2.2041,-2.2403,-2.1797,-2.117,-2.2007,-2.2483,-2.2799,-2.3207,-2.3198,-2.3091,-2.3091,-2.3091,-2.3091,-2.3091,-2.3714,-2.4253,-2.4253,-2.4882,-2.554,-2.5969,-2.678,-2.7833,-2.9077,-3.0393,-3.1737,-3.3177,-3.3664,-3.411,-3.4618,-3.4387,-3.4161,-3.4161,-3.3997,-3.3734,-3.337,-3.3169,-3.3124,-3.3124,-3.3124,-3.3124,-3.3124,-3.3124,-3.3124,-3.3124,-3.3124,-3.3124,-3.3124,-3.3124,-3.3124,-3.5481,-3.56,-3.5667,-3.5854,-3.6006,0.0,0.0,0.0,-3.6097,-3.6097,-3.5832,-3.56,-3.56,-3.5052,-3.4652,-3.4819,-3.2718,-3.0956,0.0,0.0,0.0,0.0,0.0,0.0,0.0,0.0,0.0,0.0,0.0,0.0,0.0,-2.2847,-2.2676,-2.2519,-2.2666,-2.2471,-2.1894,-2.2041,-2.2041,-2.1885,-2.2041,-2.2129,-2.2139,-2.2559,0.0,0.0,0.0,0.0,0.0,-2.2808,-2.2857,-2.3091,-2.3091,-2.3091,-2.3091,-2.3091,-2.3091,-2.3091,-2.3091,-2.3091,-2.3091,-2.3091,-2.3091,-2.3091,-2.3091,-2.2589,-2.2129,-2.2906,-2.3091,-2.3091,-2.3091,-2.3091,-2.3091,-2.3091,-2.343,-2.3757,-2.3757,-2.4638,-2.5462,-2.5462,-2.6005,-2.6573,-2.6833,-2.7822,-2.895,-3.0019,-3.1175,-3.2306,-3.3446,-3.3583,-3.3721,-3.406,-3.3796,-3.3583,-3.3583,-3.3583,-3.3445,-3.3106,-3.3124,-3.3124,-3.3124,-3.3124,-3.3124,-3.3124,-3.3124,-3.3124,-3.3124,-3.3124,-3.3124,-3.3124,-3.3124,-3.3124,0.0,-3.56,-3.5717,-3.6224,-3.5912,-3.5654,-3.6159,-3.5843,0.0,-3.543,-3.5408,-3.5403,-3.5431,-3.4872,-3.4211,-3.3681,-3.1552,0.0,0.0,0.0,0.0,0.0,0.0,0.0,0.0,0.0,0.0,0.0,0.0,0.0,0.0,-2.3091,-2.2916,-2.2568,-2.2896,-2.2711,-2.1934,-2.2314,-2.2334,-2.1982,-2.2373,-2.2559,-2.2568,-2.2916,0.0,0.0,0.0,0.0,0.0,-2.3091,-2.3091,-2.3091,-2.3091,-2.3091,-2.3091,-2.3091,-2.3091,-2.3091,-2.3091,-2.3091,-2.3091,-2.3091,-2.3091,-2.3091,-2.3091,-2.3091,-2.3091,-2.3091,-2.3091,-2.3091,-2.3091,-2.3091,-2.3135,-2.3222,-2.4049,-2.483,-2.4914,-2.5797,-2.6595,-2.6595,-2.6712,-2.6775,-2.6775,-2.8579,-2.9959,-2.9959,-3.176,-3.3124,-3.3124,-3.3124,-3.3124,-3.3124,-3.3124,-3.3124,-3.3124,-3.3124,-3.3124,-3.3124,-3.3124,-3.3124,-3.3124,-3.3124,-3.3124,-3.3124,-3.3124,-3.3124,-3.3124,-3.3124,-3.3124,-3.3124,-3.3124,-3.3124,-3.56,0.0,-3.5644,-3.5761,-3.5254,-3.4803,0.0,-3.4406,-3.3909,-3.3909,-3.3533,-3.3394,-3.3912,-3.3074,-3.2568,-3.3407,-3.1497,-2.9931,0.0,0.0,0.0,0.0,0.0,0.0,0.0,0.0,0.0,0.0,0.0,0.0,0.0,-2.3091,-2.3052,-2.2955,-2.3042,-2.2847,-2.2373,-2.2461,-2.2627,-2.2808,-2.2896,-2.2945,-2.2955,-2.3052,0.0,0.0,0.0,0.0,-2.3091,-2.3091,-2.3091,-2.3091,-2.3091,-2.3091,-2.3091,-2.3091,-2.3091,-2.3091,-2.3091,-2.3091,-2.3091,-2.3091,-2.3091,-2.3091,-2.3091,-2.3091,-2.3091,-2.3091,-2.3091,-2.3091,-2.3091,-2.3091,-2.3299,-2.4168,-2.4628,-2.5041,-2.5922,-2.6953,-2.7723,-2.7723,-2.8775,-2.9625,-2.9625,-3.0754,-3.1625,-3.1625,-3.2489,-3.3124,-3.3124,-3.3124,-3.3124,-3.3124,-3.3124,-3.3124,-3.3124,-3.3124,-3.3124,-3.3124,-3.3124,-3.3124,-3.3124,-3.3124,-3.3124,-3.3124,-3.3124,-3.3124,-3.3124,-3.3124,-3.3124,-3.3124,-3.3124,-3.3124,-3.418,-3.488,-3.5515,-3.5182,-3.4793,-3.4404,-3.4066,-3.3467,-3.2988,-3.2988,-3.2496,-3.2097,-3.212,-3.1304,-3.084,0.0,-2.985,0.0,0.0,0.0,0.0,0.0,0.0,0.0,0.0,0.0,0.0,0.0,0.0,0.0,0.0,-2.3091,-2.3091,-2.3091,-2.3091,-2.2984,-2.276,-2.2803,-2.2867,-2.3091,-2.3091,-2.3091,-2.3091,-2.3091,-2.3091,0.0,0.0,0.0,-2.3091,-2.3091,-2.3091,-2.3091,-2.3091,-2.3091,-2.3091,-2.3091,-2.3091,-2.3091,-2.3091,-2.3091,-2.3091,-2.3091,-2.3091,-2.3091,-2.3091,-2.3091,-2.3091,-2.3091,-2.3091,-2.3222,-2.3757,-2.3877,-2.4168,-2.5294,-2.5953,-2.6479,-2.7116,-2.8108,-2.8897,-2.8897,-2.9799,-3.062,-3.062,-3.1512,-3.2215,-3.2215,-3.2704,-3.3124,-3.3124,-3.3124,-3.3124,-3.3124,-3.3124,-3.3124,-3.3124,-3.3124,-3.3124,-3.3124,-3.3124,-3.3124,-3.3124,-3.3124,-3.3124,-3.3124,-3.3124,-3.3124,-3.3124,-3.3124,-3.3124,-3.3124,-3.3124,-3.3124,-3.2628,-3.3883,-3.498,-3.4247,-3.3962,-3.3727,-3.3084,-3.2469,-3.2032,-3.2032,-3.1472,-3.0798,-3.0295,-2.9407,0.0,0.0,0.0,0.0,0.0,0.0,0.0,0.0,0.0,0.0,0.0,0.0,0.0,0.0,0.0,0.0,0.0,-2.3091,-2.3091,-2.3091,-2.3091,-2.3091,-2.3091,-2.3091,-2.3091,-2.3091,-2.3091,-2.3091,-2.3091,-2.3091,-2.3091,0.0,0.0,0.0,-2.3091,-2.3091,-2.3052,-2.3003,-2.3003,-2.3003,-2.3003,-2.3003,-2.3042,-2.3091,-2.3091,-2.3091,-2.3091,-2.3091,-2.3091,-2.3091,-2.3091,-2.3091,-2.3135,-2.3299,-2.3222,-2.3343,-2.45,-2.4787,-2.5126,-2.6419,-2.7452,-2.8136,-2.8307,-2.9106,-2.9817,-2.9905,-3.0369,-3.0758,-3.0846,-3.1687,-3.234,-3.234,-3.2767,-3.3124,-3.3124,-3.3124,-3.3124,-3.3124,-3.3124,-3.3124,-3.3124,-3.3124,-3.3124,-3.3124,-3.3124,-3.3124,-3.3124,-3.3124,-3.3124,-3.3124,-3.3124,-3.3124,-3.3124,-3.3124,-3.3124,-3.3124,-3.3124,-3.3124,-3.3192,-3.3215,-3.291,-3.2206,-3.1575,-3.1089,-3.0969,-3.0393,-2.9884,-2.9884,-2.8904,-2.8162,-2.8645,-2.6931,-2.5807,0.0,0.0,0.0,0.0,0.0,0.0,0.0,0.0,0.0,0.0,0.0,0.0,0.0,0.0,0.0,0.0,-2.3091,-2.3091,-2.3091,-2.3091,-2.3091,-2.3091,-2.3091,-2.3091,-2.3091,-2.3091,-2.3091,-2.3091,-2.3091,-2.3091,-2.3091,0.0,-2.3091,-2.3091,-2.3091,-2.2886,-2.2607,-2.2607,-2.2607,-2.2607,-2.2607,-2.2789,-2.3091,-2.3091,-2.3091,-2.3091,-2.3091,-2.3091,-2.3091,-2.3091,-2.3091,-2.3299,-2.4253,-2.3833,-2.3343,-2.45,-2.4787,-2.5326,-2.7348,-2.7964,-2.8347,-2.9326,-2.9663,-2.993,-3.0407,-3.0909,-3.1424,-3.1888,-3.2503,-3.2943,-3.2943,-3.3061,-3.3124,-3.3124,-3.3124,-3.3124,-3.3124,-3.3124,-3.3124,-3.3124,-3.3124,-3.3124,-3.3124,-3.3124,-3.3124,-3.3124,-3.3124,-3.3124,-3.3124,-3.3124,-3.3124,-3.3124,-3.3124,-3.3124,-3.3124,-3.3124,-3.3124,-3.1206,-3.032,-2.9311,-2.9275,-3.0442,-3.1486,-3.1078,-3.0482,-2.9789,-2.9014,-2.8117,-2.7045,-2.573,0.0,-2.4644,-2.5147,0.0,0.0,0.0,0.0,0.0,0.0,0.0,0.0,0.0,0.0,0.0,0.0,0.0,0.0,0.0,0.0,-2.3091,-2.3091,-2.3091,-2.3091,-2.3091,-2.3091,-2.3091,-2.3091,-2.3091,-2.3091,-2.3091,-2.2857,-2.276,-2.274,0.0,-2.2461,-2.2461,-2.2461,-2.2344,-2.2178,-2.2178,-2.2178,-2.2178,-2.2178,-2.2295,-2.2461,-2.2461,-2.2607,-2.276,-2.276,-2.2916,-2.3222,-2.3833,-2.4006,-2.4253,-2.5378,-2.4882,-2.4414,-2.6149,-2.6562,-2.6982,-2.8648,-2.9028,-2.9145,-2.9702,-2.9792,-2.9867,-3.0118,-3.0834,-3.1474,-3.1725,-3.2503,-3.3124,-3.3124,-3.3124,-3.3124,-3.3124,-3.3124,-3.3124,-3.3124,-3.3124,-3.3124,-3.3124,-3.3124,-3.3124,-3.3124,-3.3124,-3.3124,-3.3124,-3.3124,-3.3124,-3.3124,-3.3124,-3.3124,-3.3124,-3.2426,-3.2052,-3.2052,-3.2052,-3.2052,-2.9432,-2.8111,-2.6841,-2.7246,-2.9109,-3.0747,-3.0438,-2.9913,-2.9218,-2.8257,-2.7663,-2.6476,-2.3705,-2.3338,0.0,-2.3397,0.0,0.0,0.0,0.0,0.0,0.0,0.0,0.0,0.0,0.0,0.0,0.0,0.0,0.0,0.0,0.0,-2.3091,-2.3091,-2.3003,-2.2945,-2.2945,-2.2847,-2.2896,-2.3091,-2.2994,-2.2945,-2.2935,-2.2559,-2.2363,-2.2344,-2.2031,-2.1885,-2.1885,-2.1885,-2.1826,-2.1738,-2.1738,-2.1738,-2.1748,-2.1846,-2.1885,-2.1885,-2.1885,-2.2158,-2.251,-2.251,-2.2955,-2.3671,-2.4542,-2.4999,-2.542,-2.6543,-2.6254,-2.5942,-2.7683,-2.8096,-2.8386,-2.9534,-2.9792,-2.9792,-2.9792,-2.9792,-2.9829,-2.9955,-3.0645,-3.1286,-3.1537,-3.2303,-3.2918,-3.3056,-3.3124,-3.3124,-3.3124,-3.3124,-3.3124,-3.3124,-3.3124,-3.3124,-3.3124,-3.3124,-3.3124,-3.3124,-3.3124,-3.3124,-3.3124,-3.3124,-3.3124,-3.3124,-3.3124,-3.3124,-3.3124,-3.1821,-3.1223,-3.1166,-3.0899,-3.0765,-2.9465,-2.8464,-2.7443,-2.7567,-2.6757,-2.6148,-2.7094,-2.6898,-2.6633,-2.7031,-2.6931,-2.6149,0.0,-2.2168,-2.1009,0.0,0.0,0.0,0.0,0.0,0.0,0.0,0.0,0.0,0.0,0.0,0.0,0.0,0.0,0.0,0.0,0.0,0.0,-2.3091,-2.2721,-2.2559,-2.2559,-2.2168,-2.2373,-2.3091,-2.2701,-2.2559,-2.2539,-2.2129,-2.1934,-2.1934,-2.1894,-2.1885,-2.1885,-2.1885,-2.165,-2.1239,-2.1239,-2.1239,-2.1288,-2.1738,-2.1885,-2.1885,-2.1885,-2.2158,-2.251,-2.251,-2.3491,-2.4702,-2.4787,-2.5546,-2.6595,-2.7683,-2.7924,-2.7884,-2.8044,-2.8096,-2.8386,-2.9534,-2.9792,-2.9792,-2.9792,-2.9792,-2.9942,-3.0457,-3.062,-3.0984,-3.1976,-3.2227,-3.2453,-3.3006,-3.3124,-3.3124,-3.3124,-3.3124,-3.3124,-3.3124,-3.3124,-3.3124,-3.3124,-3.3124,-3.3124,-3.3124,-3.3124,-3.3124,-3.3124,-3.3124,-3.3124,-3.3124,-3.3124,-3.3124,-3.3124,-3.1821,-3.1223,-3.1178,-3.0045,-2.9544,-2.8264,-2.7585,-2.6748,-2.6229,-2.5317,-2.5091,-2.7231,-2.758,-2.7429,-2.744,-2.7364,-2.6567,0.0,0.0,0.0,0.0,0.0,0.0,0.0,0.0,0.0,0.0,0.0,0.0,0.0,0.0,0.0,0.0,0.0,0.0,0.0,0.0,0.0,-2.2711,-2.2344,-2.2129,-2.2129,-2.1963,-2.2041,-2.2353,-2.2197,-2.2129,-2.2109,-2.168,-2.1444,-2.1465,-2.1191,-2.1104,-2.1104,-2.1104,-2.1006,-2.082,-2.082,-2.082,-2.084,-2.1045,-2.1441,-2.1971,-2.1971,-2.2652,-2.3626,-2.3953,-2.4643,-2.5475,-2.6553,-2.7145,-2.7735,-2.8858,-2.9157,-2.9157,-2.9157,-2.9157,-2.9287,-2.9714,-2.9792,-2.9792,-2.9792,-2.9792,-2.9854,-3.0068,-3.0382,-3.0746,-3.116,-3.1775,-3.229,-3.2503,-3.2842,-3.3124,-3.3124,-3.3124,-3.3124,-3.3124,-3.3124,-3.3124,-3.3124,-3.3124,-3.3124,-3.3124,-3.3124,-3.3124,-3.3124,-3.3124,-3.3124,-3.3124,-3.3124,-3.2711,-3.1921,-3.0676,-2.9681,-2.8947,-2.8495,-2.8272,-2.6914,-2.6213,-2.5408,-2.5023,-2.4079,-2.3941,-2.6548,-2.6776,-2.6486,-2.6577,-2.622,-2.5473,-2.4061,0.0,0.0,0.0,0.0,0.0,0.0,0.0,0.0,0.0,0.0,0.0,0.0,0.0,0.0,0.0,0.0,0.0,0.0,0.0,0.0,0.0,-2.1904,-2.168,-2.168,-2.1543,-2.1505,-2.1505,-2.1505,-2.1543,-2.167,-2.1221,-2.1025,-2.1006,-2.0742,-2.0605,-2.0605,-2.0605,-2.0605,-2.0644,-2.0934,-2.1039,-2.1039,-2.1039,-2.1631,-2.244,-2.2103,-2.2978,-2.4305,-2.4836,-2.5526,-2.6359,-2.7679,-2.8347,-2.8806,-2.9573,-2.9792,-2.9792,-2.9792,-2.9792,-2.9792,-2.9792,-2.9792,-2.9792,-2.9792,-2.9792,-2.9792,-2.9792,-3.0093,-3.0457,-3.0796,-3.1474,-3.2077,-3.2428,-3.283,-3.3124,-3.3124,-3.2918,-3.2805,-3.2805,-3.2805,-3.288,-3.3056,-3.3124,-3.3124,-3.3124,-3.3124,-3.3124,-3.3124,-3.3124,-3.3124,-3.3124,-3.3124,-3.2469,-3.1223,-2.984,-2.8589,-2.7369,-2.6848,-2.6598,-2.5651,-2.4471,-2.3568,-2.4134,-2.2997,-2.2265,-2.4307,-2.3682,-2.2983,-2.3977,-2.3037,-2.2542,-2.4168,0.0,0.0,0.0,0.0,0.0,0.0,0.0,0.0,0.0,0.0,0.0,0.0,0.0,0.0,0.0,0.0,0.0,0.0,0.0,0.0,0.0,-2.1455,-2.119,-2.119,-2.083,-2.0605,-2.0605,-2.0605,-2.084,-2.1171,-2.0762,-2.0605,-2.0605,-2.0605,-2.0605,-2.0605,-2.0605,-2.0605,-2.0712,-2.1631,-2.2,-2.2027,-2.2027,-2.2664,-2.3368,-2.2366,-2.2978,-2.4305,-2.4836,-2.6062,-2.7406,-2.7969,-2.8897,-2.9792,-2.9792,-2.9792,-2.9792,-2.9792,-2.9792,-2.9792,-2.9792,-2.9792,-2.9792,-2.9792,-2.9792,-2.9792,-2.9792,-2.9792,-3.0131,-3.1185,-3.1386,-3.1763,-3.2893,-3.3111,-3.3124,-3.3111,-3.2566,-3.2215,-3.2215,-3.2215,-3.2441,-3.3074,-3.3124,-3.3124,-3.3124,-3.3124,-3.3124,-3.3124,-3.3124,-3.3124,-3.3111,-3.3111,-3.2457,-3.1155,-2.9586,-2.814,-2.6829,-2.5155,-2.4414,-2.4404,-2.4493,-2.4497,-2.3276,-2.3433,-2.3746,-2.3295,-2.2688,-2.2505,-2.3621,-2.3709,-2.3475,-2.2988,0.0,0.0,0.0,0.0,0.0,0.0,0.0,0.0,0.0,0.0,0.0,0.0,0.0,0.0,0.0,0.0,0.0,0.0,0.0,0.0,0.0,-2.1162,-2.0762,-2.0762,-2.1292,-2.126,-2.0605,-2.126,-2.1302,-2.0762,-2.0664,-2.0605,-2.0605,-2.0605,-2.0972,-2.1593,-2.1593,-2.1593,-2.1593,-2.1886,-2.244,-2.3073,-2.3073,-2.3697,-2.4528,-2.4217,-2.4873,-2.597,-2.687,-2.747,-2.8052,-2.8991,-2.9534,-2.9792,-2.9792,-2.9792,-2.9792,-2.9792,-2.9792,-2.9792,-2.9792,-2.9792,-2.9792,-2.9792,-2.9792,-2.9792,-2.9792,-2.9792,-2.9892,-3.0218,-3.0896,-3.1499,-3.1838,-3.2566,-3.293,-3.2516,-3.2315,-3.2215,-3.2215,-3.2215,-3.2441,-3.3074,-3.3124,-3.3124,-3.3124,-3.3124,-3.3124,-3.3124,-3.3124,-3.288,-3.2478,-3.2466,-3.1296,-2.8893,-2.8395,-2.7135,-2.5145,-2.4611,-2.4414,-2.3917,-2.4012,-2.4034,-2.3509,-2.3455,-2.3257,-2.202,-2.1856,0.0,0.0,-2.3323,-2.2956,-2.2565,0.0,0.0,0.0,0.0,0.0,0.0,0.0,0.0,0.0,0.0,0.0,0.0,0.0,0.0,0.0,0.0,0.0,0.0,0.0,0.0,0.0,-2.1312,-2.1155,-2.1155,-2.2113,-2.2113,-2.1155,-2.1735,-2.1697,-2.1155,-2.0789,-2.0779,-2.1193,-2.1565,-2.2075,-2.259,-2.259,-2.259,-2.2627,-2.3036,-2.3551,-2.4108,-2.4108,-2.4743,-2.5546,-2.5158,-2.5664,-2.6675,-2.7745,-2.8109,-2.831,-2.9453,-2.9792,-2.9792,-2.9792,-2.9792,-2.9792,-2.9792,-2.9792,-2.9792,-2.9792,-2.9792,-2.9792,-2.9792,-2.9792,-2.9792,-2.9792,-2.9792,-2.9867,-3.008,-3.0645,-3.1223,-3.165,-3.2491,-3.2792,-3.1989,-3.1888,-3.1888,-3.1888,-3.1888,-3.2202,-3.3048,-3.2867,-3.2729,-3.2729,-3.2528,-3.2503,-3.2717,-3.2955,-3.2704,-3.1901,-3.2102,-3.0786,-2.7885,-2.7738,-2.6473,-2.417,-2.3984,-2.3861,-2.394,-2.3262,-2.2829,-2.4355,-2.3249,-2.1619,-2.0898,-2.1349,-2.2155,-2.2986,0.0,0.0,0.0,0.0,0.0,0.0,0.0,0.0,0.0,0.0,0.0,0.0,0.0,0.0,0.0,0.0,0.0,0.0,0.0,0.0,0.0,0.0,0.0,-2.136,-2.1763,-2.2027,-2.214,-2.3147,-2.3147,0.0,-2.2215,-2.2215,-2.2103,-2.1155,-2.1221,-2.2178,-2.3184,-2.3588,-2.3526,-2.3588,-2.3635,-2.3745,-2.4636,-2.5052,-2.5158,-2.5158,-2.5734,-2.6383,-2.5441,-2.577,-2.6738,-2.7758,-2.8134,-2.8386,-2.9465,-2.9792,-2.9792,-2.9792,-2.9792,-2.9792,-2.9792,-2.9792,-2.9792,-2.9792,-2.9792,-2.9792,-2.9792,-2.9792,-2.9792,-2.9792,-2.9792,-2.9942,-3.0457,-3.0583,-3.0972,-3.2051,-3.2667,-3.2591,-3.1461,-3.1361,-3.1348,-3.1248,-3.1286,-3.1775,-3.2905,-3.2466,-3.2152,-3.2215,-3.17,-3.1612,-3.2114,-3.2692,-3.2449,-3.1276,-3.171,-3.0519,-2.762,-2.7272,-2.5904,-2.3721,-2.3276,-2.3091,-2.3599,-2.3536,-2.3723,-2.4076,-2.3482,-2.2571,-2.1799,-2.1748,-2.1663,-2.0837,0.0,0.0,0.0,0.0,0.0,0.0,0.0,0.0,0.0,0.0,0.0,0.0,0.0,0.0,0.0,0.0,0.0,0.0,0.0,0.0,0.0,0.0,0.0,-2.2371,-2.2126,-2.2366,-2.3184,-2.4192,-2.4192,0.0,-2.3963,-2.3927,-2.3147,-2.2151,-2.2253,-2.322,-2.4228,-2.4228,-2.3551,-2.4337,-2.4671,-2.4707,-2.4933,-2.5476,-2.6176,-2.6176,-2.6314,-2.6452,-2.6233,-2.6589,-2.7253,-2.7896,-2.8361,-2.885,-2.9578,-2.9792,-2.9792,-2.9792,-2.9792,-2.9792,-2.9792,-2.9792,-2.9792,-2.9792,-2.9792,-2.9792,-2.9792,-2.9792,-2.9792,-2.9792,-2.9792,-2.9829,-2.9942,-3.0331,-3.0972,-3.2051,-3.2315,-3.2001,-3.0922,-3.1135,-3.1072,-3.0231,-3.052,-3.1223,-3.2303,-3.1888,-3.175,-3.219,-3.17,-3.1436,-3.1562,-3.2102,-3.1687,-3.0163,-3.026,-2.8726,-2.5466,-2.537,-2.4612,-2.3227,-2.314,-2.3091,-2.4025,-2.3626,-2.3237,-2.3517,-2.3168,-2.2676,-2.2031,-2.1728,-2.1318,-2.041,0.0,0.0,0.0,0.0,0.0,0.0,0.0,0.0,0.0,0.0,0.0,0.0,0.0,0.0,0.0,0.0,0.0,0.0,0.0,0.0,0.0,-2.2537,-2.2594,-2.2712,-2.3176,-2.3697,-2.4217,-2.5217,-2.5217,-2.4228,-2.4755,-2.4743,-2.4192,-2.3672,-2.3708,-2.4264,-2.5288,-2.5429,-2.4992,-2.5511,-2.5734,-2.5734,-2.5734,-2.6025,-2.6499,-2.6499,-2.6499,-2.6499,-2.6499,-2.6851,-2.7369,-2.7921,-2.8473,-2.9001,-2.9616,-2.9792,-2.9792,-2.9792,-2.9792,-2.9792,-2.9792,-2.9792,-2.9792,-2.9792,-2.9792,-2.9792,-2.9792,-2.9792,-2.9792,-2.9792,-2.9792,-2.9792,-2.9792,-3.0256,-3.0809,-3.1361,-3.1662,-3.1436,-3.0357,-3.0696,-3.0696,-2.988,-3.0281,-3.1047,-3.2127,-3.1474,-3.1248,-3.1788,-3.1072,-3.0746,-3.1009,-3.0758,-3.0209,-2.938,-2.907,-2.7521,-2.4787,-2.4787,-2.4211,-2.3091,-2.3091,-2.3091,-2.4424,-2.3506,-2.2466,-2.3014,-2.2775,0.0,-2.1865,-2.1494,-2.1103,0.0,0.0,0.0,0.0,0.0,0.0,0.0,0.0,0.0,0.0,0.0,0.0,0.0,0.0,0.0,0.0,0.0,0.0,0.0,0.0,0.0,-2.2539,-2.2992,-2.3192,-2.2974,-2.4311,-2.5075,-2.5264,-2.6094,-2.6094,-2.5264,-2.5264,-2.5264,-2.5264,-2.5264,-2.5264,-2.53,-2.6129,-2.6499,-2.6499,-2.6499,-2.6499,-2.6499,-2.6499,-2.6499,-2.6499,-2.6499,-2.6499,-2.6499,-2.6499,-2.6914,-2.7494,-2.7959,-2.8549,-2.9126,-2.9641,-2.9792,-2.9792,-2.9792,-2.9792,-2.9792,-2.9792,-2.9792,-2.9792,-2.9792,-2.9792,-2.9792,-2.9792,-2.9792,-2.9792,-2.9792,-2.9792,-2.9792,-2.9792,-3.0168,-3.0507,-3.0608,-3.0984,-3.0871,-2.9779,-3.0131,-3.0231,-2.9566,-2.9993,-3.0771,-3.1838,-3.1035,-3.0696,-3.1223,-3.0074,-2.9646,-3.0194,-2.8913,-2.818,-2.8233,-2.7761,-2.6498,-2.45,-2.45,-2.4006,-2.3091,-2.3091,-2.3091,-2.3784,-2.2948,-2.2612,-2.3133,-2.2623,-2.1855,0.0,0.0,0.0,0.0,0.0,0.0,0.0,0.0,0.0,0.0,0.0,0.0,0.0,0.0,0.0,0.0,0.0,0.0,0.0,0.0,0.0,0.0,0.0,0.0,-2.2539,-2.2992,-2.3509,-2.3973,-2.4651,-2.5406,-2.628,-2.6418,-2.6418,-2.6314,-2.6314,-2.6314,-2.6314,-2.6314,-2.6314,-2.6314,-2.6452,-2.6499,-2.6499,-2.6499,-2.6499,-2.6499,-2.6499,-2.6499,-2.6499,-2.6499,-2.6499,-2.6499,-2.6499,-2.7165,-2.8009,-2.8084,-2.8825,-2.9691,-2.9767,-2.9792,-2.9792,-2.9792,-2.9792,-2.9792,-2.9792,-2.9792,-2.9792,-2.9792,-2.9792,-2.9792,-2.9792,-2.9792,-2.9792,-2.9792,-2.9792,-2.9792,-2.9792,-2.9854,-3.0068,-3.0545,-3.067,-3.0319,-2.9189,-2.9553,-2.9503,-2.8448,-2.8825,-2.9565,-3.0733,-3.0269,-3.0143,-3.0683,-2.889,-2.8044,-2.8562,-2.6498,-2.538,-2.5517,-2.5765,-2.5062,-2.3343,-2.3343,-2.3256,-2.3091,-2.3091,-2.3091,-2.4,-2.3525,-2.341,-2.3908,-2.3181,-2.215,-2.139,0.0,0.0,0.0,0.0,0.0,0.0,0.0,0.0,0.0,0.0,0.0,0.0,0.0,0.0,0.0,0.0,0.0,0.0,0.0,0.0,0.0,0.0,-2.2916,-2.2539,-2.3553,-2.4176,-2.42,-2.5266,-2.606,-2.6499,-2.6499,-2.6499,-2.6499,-2.6499,-2.6499,-2.6499,-2.6499,-2.6499,-2.6499,-2.6499,-2.6499,-2.6499,-2.6499,-2.6499,-2.6499,-2.6499,-2.6499,-2.6499,-2.6499,-2.6499,-2.6499,-2.6499,-2.718,-2.8109,-2.8109,-2.8875,-2.9792,-2.9792,-2.9792,-2.9792,-2.9792,-2.9792,-2.9792,-2.9792,-2.9792,-2.9792,-2.9792,-2.9792,-2.9792,-2.9792,-2.9792,-2.9792,-2.9792,-2.9792,-2.9792,-2.9792,-2.9792,-2.988,-3.0118,-2.988,-2.9339,-2.8561,-2.8963,-2.9001,-2.8197,-2.8562,-2.9352,-3.048,-2.9817,-2.9383,-2.9642,-2.851,-2.7659,-2.7331,-2.5703,-2.483,-2.4882,-2.4705,-2.4121,-2.3091,-2.3091,-2.3091,-2.3091,-2.3091,-2.3091,-2.402,-2.3443,-2.3082,-2.4019,-2.3198,-2.1973,0.0,0.0,0.0,0.0,0.0,0.0,0.0,0.0,0.0,0.0,0.0,0.0,0.0,0.0,0.0,0.0,0.0,0.0,0.0,0.0,0.0,0.0,0.0,-2.3036,-2.2901,-2.4108,-2.4719,-2.4578,-2.5813,-2.6499,-2.6499,-2.6499,-2.6499,-2.6499,-2.6499,-2.6499,-2.6499,-2.6499,-2.6499,-2.6499,-2.6499,-2.6499,-2.6499,-2.6499,-2.6499,-2.6499,-2.6499,-2.6499,-2.6499,-2.6499,-2.6499,-2.6512,-2.6663,-2.7341,-2.8134,-2.8273,-2.8988,-2.9792,-2.9792,-2.9792,-2.9792,-2.9792,-2.9792,-2.9792,-2.9792,-2.9792,-2.9792,-2.9792,-2.9792,-2.9792,-2.9792,-2.9792,-2.9792,-2.9792,-2.9792,-2.9792,-2.9792,-2.9792,-2.9792,-2.9792,-2.9302,-2.87,-2.8185,-2.8348,-2.8411,-2.8134,-2.8473,-2.9176,-3.0306,-2.9503,-2.8842,-2.87,-2.773,-2.6777,-2.5942,-2.4724,-2.4093,-2.4206,-2.3819,-2.3467,-2.3091,-2.3091,-2.3091,-2.3091,-2.3091,-2.3091,-2.3356,-2.1801,0.0,-2.2813,-2.1936,-2.0783,0.0,0.0,0.0,0.0,0.0,0.0,0.0,0.0,0.0,0.0,0.0,0.0,0.0,0.0,0.0,0.0,0.0,0.0,0.0,0.0,0.0,0.0,0.0,-2.3328,-2.3888,-2.4469,-2.5027,-2.552,-2.6156,-2.6499,-2.6499,-2.6499,-2.6499,-2.6499,-2.6499,-2.6499,-2.6499,-2.6499,-2.6499,-2.6499,-2.6499,-2.6499,-2.6499,-2.6499,-2.6499,-2.6499,-2.6499,-2.6499,-2.6499,-2.6499,-2.6499,-2.6562,-2.709,-2.762,-2.8185,-2.8675,-2.9302,-2.9792,-2.9792,-2.9792,-2.9792,-2.9792,-2.9792,-2.9792,-2.9792,-2.9792,-2.9792,-2.9792,-2.9792,-2.9792,-2.9792,-2.9792,-2.9792,-2.9792,-2.9792,-2.9792,-2.9792,-2.9792,-2.9792,-2.9792,-2.9302,-2.87,-2.8185,-2.767,-2.7557,-2.8059,-2.8134,-2.8599,-2.9741,-2.9239,-2.8694,-2.8176,-2.5862,-2.4443,-2.4311,-2.2877,-2.2212,-2.2614,-2.2959,-2.312,-2.3091,-2.3091,-2.3091,-2.3091,-2.3091,-2.3091,-2.4564,-2.3413,0.0,-2.346,-2.3198,-2.2331,0.0,0.0,0.0,0.0,0.0,0.0,0.0,0.0,0.0,0.0,0.0,0.0,0.0,0.0,0.0,0.0,0.0,0.0,0.0,0.0,0.0,0.0,0.0,0.0,-2.444,-2.4712,-2.5213,-2.6139,-2.6376,-2.6499,-2.6499,-2.6499,-2.6499,-2.6499,-2.6499,-2.6499,-2.6499,-2.6499,-2.6499,-2.6499,-2.6499,-2.6782,-2.7229,-2.6714,-2.6816,-2.7229,-2.6679,-2.6499,-2.6499,-2.6499,-2.6499,-2.6575,-2.7128,-2.7645,-2.8197,-2.8712,-2.9315,-2.9792,-2.9792,-2.9792,-2.9792,-2.9792,-2.9792,-2.9792,-2.9792,-2.9792,-2.9792,-2.9792,-2.9792,-2.9792,-2.9792,-2.9792,-2.9792,-2.9792,-2.9792,-2.9792,-2.9792,-2.9792,-2.9666,-2.9289,-2.8762,-2.8335,-2.8134,-2.762,-2.7494,-2.8047,-2.8109,-2.8411,-2.9176,-2.8725,-2.7874,-2.6679,-2.543,-2.4161,-2.2765,-2.2201,-2.1953,-2.2109,-2.2256,-2.2598,-2.3091,-2.3091,-2.3091,-2.3091,-2.3091,-2.3091,-2.4416,-2.3767,-2.3185,0.0,0.0,-2.2564,0.0,0.0,0.0,0.0,0.0,0.0,0.0,0.0,0.0,0.0,0.0,0.0,0.0,0.0,0.0,0.0,0.0,0.0,0.0,0.0,0.0,0.0,0.0,0.0,-2.521,-2.5,-2.5337,-2.648,-2.6514,-2.6499,-2.6499,-2.6499,-2.6499,-2.6499,-2.6499,-2.6499,-2.6499,-2.6499,-2.6499,-2.6521,-2.6782,-2.704,-2.7263,-2.6714,-2.6973,-2.7604,-2.6816,-2.6692,-2.6897,-2.6791,-2.6776,-2.6876,-2.7582,-2.829,-2.8902,-2.9151,-2.9682,-3.0279,-3.0279,-3.0279,-3.0279,-3.0279,-3.0279,-3.0216,-2.9895,-2.9792,-2.9792,-2.9792,-2.9792,-2.9792,-2.9792,-2.9792,-2.9792,-2.9792,-2.9792,-2.9792,-2.9792,-2.9628,-2.9365,-2.895,-2.8298,-2.7896,-2.8084,-2.762,-2.7494,-2.8047,-2.8109,-2.8247,-2.8587,-2.8147,-2.7175,-2.5611,-2.5027,-2.3935,-2.2163,-2.1963,-2.1953,-2.209,-2.1963,-2.2227,-2.2886,-2.2886,-2.2955,-2.3091,-2.3091,-2.3091,0.0,0.0,0.0,0.0,0.0,0.0,0.0,0.0,0.0,0.0,0.0,0.0,0.0,0.0,0.0,0.0,0.0,0.0,0.0,0.0,0.0,0.0,0.0,0.0,0.0,0.0,0.0,0.0,0.0,-2.409,-2.6193,-2.5411,-2.5405,-2.6455,-2.6499,-2.6499,-2.6499,-2.6499,-2.6499,-2.6499,-2.6499,-2.6499,-2.6499,-2.6499,-2.6499,-2.6589,-2.7351,-2.7263,-2.6555,-2.6555,-2.7007,-2.767,-2.685,-2.7007,-2.7683,-2.744,-2.7352,-2.748,-2.8549,-2.9534,-3.0286,-2.9936,-3.0419,-3.118,-3.118,-3.118,-3.118,-3.118,-3.118,-3.0932,-3.0037,-2.9792,-2.9792,-2.9792,-2.9792,-2.9792,-2.9792,-2.9792,-2.9792,-2.9792,-2.9792,-2.9792,-2.9792,-2.9315,-2.8888,-2.8863,-2.7984,-2.7482,-2.8034,-2.762,-2.7494,-2.8047,-2.8109,-2.8097,-2.8084,-2.7582,-2.6591,-2.5065,-2.4457,-2.3652,-2.2526,-2.209,-2.206,-2.248,-2.208,-2.208,-2.251,-2.251,-2.2734,-2.3091,-2.3091,-2.3091,-2.3356,0.0,0.0,0.0,0.0,0.0,0.0,0.0,0.0,0.0,0.0,0.0,0.0,0.0,0.0,0.0,0.0,0.0,0.0,0.0,0.0,0.0,0.0,0.0,0.0,0.0,0.0,0.0,-2.4199,-2.4873,-2.6799,-2.7077,-2.6992,-2.649,-2.6499,-2.6499,-2.6499,-2.6499,-2.6499,-2.6499,-2.6499,-2.6499,-2.6499,-2.6499,-2.6816,-2.7384,-2.7604,-2.792,-2.8279,-2.7637,-2.7855,-2.8556,-2.7703,-2.7517,-2.7736,-2.8064,-2.817,-2.8235,-2.8746,-2.9076,-2.9389,-2.968,-2.9972,-3.0177,-3.0177,-3.0177,-3.0177,-3.0177,-3.0177,-3.0139,-2.9869,-2.9792,-2.9792,-2.9792,-2.9792,-2.9792,-2.9792,-2.9792,-2.9792,-2.9792,-2.9792,-2.9792,-2.9792,-2.9315,-2.8762,-2.8398,-2.7733,-2.7482,-2.8034,-2.762,-2.7494,-2.8047,-2.8109,-2.7946,-2.7544,-2.671,-2.5739,-2.4558,-2.3645,-2.2671,-2.1613,-2.1434,-2.1621,-2.2051,-2.1631,-2.1777,-2.251,-2.251,-2.2734,-2.3091,-2.3091,-2.3091,-2.3224,-2.3346,-2.3436,0.0,0.0,0.0,0.0,0.0,0.0,0.0,0.0,0.0,0.0,0.0,0.0,0.0,0.0,0.0,0.0,0.0,0.0,0.0,0.0,0.0,0.0,0.0,0.0,-2.4894,-2.5119,-2.5761,-2.7113,-2.7963,-2.7946,-2.6876,-2.6839,-2.6839,-2.6839,-2.6839,-2.6725,-2.6499,-2.6499,-2.6499,-2.6499,-2.685,-2.7263,-2.7736,-2.846,-2.9066,-2.9504,-2.9002,-2.9097,-2.947,-2.8893,-2.8858,-2.9232,-2.9713,-2.9627,-2.9333,-2.9731,-2.9868,-2.9857,-2.982,-3.0075,-3.0381,-3.0381,-3.0381,-3.0381,-3.0381,-3.0113,-2.9792,-2.9792,-2.9792,-2.9792,-2.9792,-2.9792,-2.9792,-2.9792,-2.9792,-2.9792,-2.9792,-2.9792,-2.9792,-2.9792,-2.9114,-2.8473,-2.816,-2.7444,-2.7218,-2.8009,-2.7821,-2.7588,-2.7484,-2.7471,-2.7005,-2.5793,-2.5167,-2.4411,-2.3415,-2.3105,-2.252,-2.1544,-2.1504,-2.1621,-2.1875,-2.1455,-2.1619,-2.251,-2.251,-2.2734,-2.3091,-2.3091,-2.3091,-2.273,-2.3105,-2.3683,0.0,0.0,0.0,0.0,0.0,0.0,0.0,0.0,0.0,0.0,0.0,0.0,0.0,0.0,0.0,0.0,0.0,0.0,0.0,0.0,0.0,0.0,0.0,-2.4893,-2.5635,-2.6218,-2.6779,-2.7246,-2.8367,-2.8511,-2.7406,-2.7369,-2.7369,-2.7369,-2.7369,-2.7165,-2.6675,-2.6675,-2.6706,-2.6746,-2.7475,-2.7855,-2.8084,-2.9628,-3.0359,-3.0419,-3.0419,-3.0389,-3.0296,-3.0178,-3.0563,-3.1243,-3.1612,-3.1305,-3.0752,-3.1093,-3.1217,-3.1082,-3.0241,-3.0457,-3.1044,-3.1044,-3.1044,-3.1044,-3.1044,-3.0457,-2.9792,-2.9792,-2.9792,-2.9792,-2.9792,-2.9792,-2.9792,-2.9792,-2.9842,-2.988,-2.988,-2.988,-2.988,-2.988,-2.895,-2.8185,-2.8109,-2.7253,-2.6964,-2.7971,-2.7987,-2.7582,-2.6714,-2.6477,-2.5639,-2.3677,-2.346,-2.3016,-2.2075,-2.265,-2.2676,-2.1848,-2.1816,-2.1855,-2.1953,-2.158,-2.1775,-2.2578,-2.2578,-2.273,-2.3091,-2.3091,-2.3091,0.0,0.0,0.0,0.0,0.0,0.0,0.0,0.0,0.0,0.0,0.0,0.0,0.0,0.0,0.0,0.0,0.0,0.0,0.0,0.0,0.0,0.0,0.0,0.0,0.0,0.0,-2.5508,-2.5674,-2.7239,-2.7832,-2.7026,-2.8642,-2.9114,-2.7984,-2.7946,-2.7946,-2.7946,-2.7946,-2.7896,-2.7783,-2.7783,-2.7898,-2.8124,-2.826,-2.888,-2.9827,-3.0133,-3.0673,-3.1278,-3.1278,-3.0866,-3.0357,-3.0793,-3.1053,-3.1243,-3.1545,-3.2033,-3.2452,-3.1518,-3.1217,-3.118,-3.097,-3.052,-3.0075,-3.0075,-3.0075,-3.0075,-3.0075,-2.9934,-2.9792,-2.9792,-2.9792,-2.9792,-2.9792,-2.9792,-2.9792,-2.9792,-3.0143,-3.0457,-3.0457,-3.0457,-3.0457,-3.0457,-2.9515,-2.8612,-2.8172,-2.7544,-2.7392,-2.8021,-2.7385,-2.6827,-2.6639,-2.5831,-2.4819,-2.3604,-2.3096,-2.2618,-2.2059,-2.1736,-2.1549,-2.1317,-2.1317,-2.1689,-2.2373,-2.2594,-2.2808,-2.2974,-2.2974,-2.3013,-2.3091,-2.3091,-2.3091,0.0,0.0,0.0,-2.2808,0.0,0.0,0.0,0.0,0.0,0.0,0.0,0.0,0.0,0.0,0.0,0.0,0.0,0.0,0.0,0.0,0.0,0.0,0.0,0.0,0.0,0.0,-2.5729,-2.66,-2.8093,-2.8677,-2.7878,-2.9326,-2.9679,-2.8512,-2.8511,-2.8511,-2.8511,-2.9014,-2.9114,-2.8818,-2.9324,-2.9445,-2.926,-2.9663,-3.002,-3.0329,-3.0718,-3.1117,-3.1525,-3.1854,-3.1768,-3.1469,-3.2101,-3.2542,-3.2845,-3.281,-3.3112,-3.3373,-3.2283,-3.1609,-3.1217,-3.1217,-3.0558,-2.9792,-2.9792,-2.9792,-2.9792,-2.9792,-2.9792,-2.9792,-2.9792,-2.9792,-2.9792,-2.9792,-2.9792,-2.9792,-2.9792,-3.0231,-3.062,-3.062,-3.0821,-3.0922,-3.0658,-2.964,-2.88,-2.8561,-2.7808,-2.739,-2.7654,-2.7045,-2.6306,-2.5475,-2.4695,-2.3731,-2.2457,-2.2119,-2.1795,-2.1328,-2.1253,-2.119,-2.119,-2.119,-2.1395,-2.1824,-2.2457,-2.2779,-2.2779,-2.2994,-2.3091,-2.3091,-2.3091,-2.3091,0.0,0.0,0.0,0.0,0.0,-2.3163,0.0,0.0,0.0,0.0,0.0,0.0,0.0,0.0,0.0,0.0,0.0,0.0,0.0,0.0,0.0,0.0,0.0,0.0,0.0,0.0,-2.5295,-2.7432,-2.8274,-2.8818,-2.91,-3.0167,-3.0294,-2.9251,-2.9113,-2.9051,-2.9051,-2.9886,-3.0138,-2.9817,-3.0629,-3.0859,-3.062,-3.1282,-3.1271,-3.0773,-3.1412,-3.169,-3.1735,-3.2273,-3.2662,-3.2946,-3.3469,-3.3915,-3.4214,-3.408,-3.3993,-3.3876,-3.2925,-3.2213,-3.1669,-3.1315,-3.0558,-2.9792,-2.9792,-2.9792,-2.9792,-2.9792,-2.9792,-2.9792,-2.9792,-2.9792,-2.9792,-2.9792,-2.9792,-2.9792,-2.9792,-3.0231,-3.062,-3.062,-3.1035,-3.1223,-3.0708,-2.9728,-2.9013,-2.8913,-2.8172,-2.7532,-2.7332,-2.6733,-2.5784,-2.4351,-2.3501,-2.2563,-2.13,-2.1268,-2.1133,-2.0635,-2.0986,-2.1161,-2.1073,-2.1151,-2.119,-2.119,-2.208,-2.251,-2.251,-2.2886,-2.3091,-2.3091,-2.3091,-2.3091,0.0,0.0,0.0,0.0,-2.1864,0.0,0.0,0.0,0.0,0.0,0.0,0.0,0.0,0.0,0.0,0.0,0.0,0.0,0.0,0.0,0.0,0.0,0.0,0.0,0.0,0.0,0.0,-2.7291,-2.6636,-2.7254,-3.0059,-3.0918,-3.1035,-3.0444,-2.9955,-2.9691,-2.9691,-2.9807,-3.0252,-3.1019,-3.1116,-3.1744,-3.2739,-3.2838,-3.2655,-3.2273,-3.2348,-3.2378,-3.2378,-3.2482,-3.32,-3.4294,-3.4369,-3.3906,-3.3306,-3.3811,-3.3993,-3.3876,-3.2925,-3.3066,-3.3415,-3.1742,-3.0558,-2.9792,-2.9792,-2.9792,-2.9792,-2.9792,-2.9792,-2.9792,-2.9792,-2.9792,-2.9792,-2.9792,-2.9792,-2.9792,-2.9792,-3.0231,-3.062,-3.062,-3.1035,-3.1223,-3.0708,-3.0105,-2.9515,-2.8963,-2.8787,-2.8374,-2.7415,-2.6167,-2.5077,-2.4269,-2.2565,-2.14,-2.12,-2.1592,-2.1455,-2.0654,-2.0986,-2.1055,-2.0693,-2.1025,-2.119,-2.119,-2.208,-2.251,-2.251,-2.2886,-2.3091,-2.3091,-2.3091,-2.3091,0.0,0.0,0.0,0.0,0.0,0.0,-2.2865,0.0,-2.33,0.0,0.0,0.0,0.0,0.0,0.0,0.0,0.0,0.0,0.0,0.0,0.0,0.0,0.0,0.0,0.0,0.0,0.0,0.0,0.0,-2.7516,-3.0268,-3.1041,-3.1148,-3.0633,-3.008,-2.9792,-2.9792,-3.0884,-3.1623,-3.2033,-3.315,-3.3758,-3.39,-3.3517,-3.3041,-3.2512,-3.2512,-3.2512,-3.2572,-3.3335,-3.3978,-3.447,-3.4298,-3.4328,-3.4453,-3.4124,-3.3993,-3.3876,-3.2925,-3.2855,-3.2961,-3.1646,-3.0558,-2.9792,-2.9792,-2.9792,-2.9792,-2.9792,-2.9792,-2.9792,-2.9792,-2.9792,-2.9792,-2.9792,-2.9792,-2.9792,-2.9792,-3.0231,-3.052,-3.0206,-3.0041,-2.9797,-2.9232,-2.8952,-2.8536,-2.7624,-2.7199,-2.67,-2.5928,-2.4905,-2.3964,-2.3305,-2.2015,-2.1298,-2.1592,-2.1777,-2.1728,-2.1398,-2.1269,-2.1112,-2.0967,-2.1377,-2.1494,-2.12,-2.2272,-2.2637,-2.2148,-2.2769,-2.3091,-2.3091,-2.3091,-2.3091,-2.1901,0.0,0.0,0.0,0.0,0.0,0.0,0.0,0.0,0.0,0.0,0.0,0.0,0.0,0.0,0.0,0.0,0.0,0.0,0.0,0.0,0.0,0.0,0.0,0.0,0.0,0.0,0.0,0.0,0.0,-3.0718,-3.1207,-3.1148,-3.0633,-3.0328,-3.0177,-3.0177,-3.1792,-3.2749,-3.2996,-3.4394,-3.4978,-3.4741,-3.4068,-3.3499,-3.3036,-3.2856,-3.2886,-3.3125,-3.4114,-3.4623,-3.4737,-3.4501,-3.4872,-3.5359,-3.4075,-3.3636,-3.3484,-3.2522,-3.2033,-3.1756,-3.1328,-3.0558,-2.9792,-2.9792,-2.9792,-2.9792,-2.9792,-2.9792,-2.9792,-2.9792,-2.9792,-2.9792,-2.9792,-2.9792,-2.9792,-2.9792,-3.0105,-3.0177,-2.9479,-2.8991,-2.842,-2.751,-2.7609,-2.7522,-2.6618,-2.6229,-2.57,-2.4883,-2.402,-2.3247,-2.2588,-2.1631,-2.123,-2.167,-2.1816,-2.1885,-2.1885,-2.1592,-2.1317,-2.12,-2.1543,-2.1611,-2.1416,-2.2282,-2.2549,-2.206,-2.274,-2.3091,-2.3091,-2.3091,-2.3091,0.0,0.0,0.0,-2.037,0.0,0.0,0.0,0.0,-2.2434,0.0,0.0,0.0,0.0,0.0,0.0,0.0,0.0,0.0,0.0,0.0,0.0,0.0,0.0,0.0,0.0,0.0,0.0,0.0,0.0,0.0,-3.1876,-3.1687,-3.1148,-3.0633,-3.0956,-3.1143,-3.1143,-3.2105,-3.3066,-3.3959,-3.4027,-3.4528,-3.5444,-3.4756,-3.4459,-3.4414,-3.3739,-3.3829,-3.4444,-3.4488,-3.4861,-3.5474,-3.5472,-3.5472,-3.5279,-3.3359,-3.2629,-3.25,-3.1573,-3.0658,-3.0037,-3.0895,-3.0558,-2.9792,-2.9792,-2.9792,-2.9792,-2.9792,-2.9792,-2.9792,-2.9792,-2.9792,-2.9792,-2.9792,-2.9792,-2.9792,-2.9792,-2.9804,-2.9468,-2.8386,-2.8148,-2.7574,-2.5786,-2.641,-2.701,-2.655,-2.6811,-2.6512,-2.5009,-2.402,-2.3247,-2.2588,-2.1357,-2.0762,-2.1181,-2.1641,-2.1885,-2.1885,-2.1875,-2.167,-2.121,-2.121,-2.1445,-2.1855,-2.1904,-2.2119,-2.249,-2.2886,-2.3091,-2.3091,-2.3091,-2.3091,0.0,0.0,-2.8437,-2.3504,0.0,0.0,0.0,0.0,0.0,0.0,0.0,0.0,0.0,0.0,0.0,0.0,0.0,0.0,0.0,0.0,0.0,0.0,0.0,0.0,0.0,0.0,0.0,0.0,0.0,0.0,0.0,-3.233,-3.1446,-3.062,-3.0994,-3.1402,-3.1849,-3.2957,-3.3905,-3.4681,-3.4896,-3.5166,-3.5489,-3.4801,-3.4503,-3.4503,-3.4279,-3.4294,-3.4533,-3.4966,-3.5295,-3.5424,-3.4758,-3.4905,-3.5359,-3.3993,-3.3136,-3.2464,-3.1536,-3.1007,-3.0758,-3.1106,-3.0558,-2.9792,-2.9792,-2.9792,-2.9792,-2.9792,-2.9792,-2.9792,-2.9792,-2.9792,-2.9792,-2.9792,-2.9792,-2.9685,-2.9229,-2.9141,-2.8901,-2.7992,-2.7253,-2.6596,-2.5975,-2.5809,-2.5532,-2.4828,-2.4848,-2.4611,-2.3774,-2.2962,-2.2368,-2.2122,-2.1222,-2.0752,-2.1161,-2.1885,-2.2305,-2.2305,-2.2305,-2.2236,-2.209,-2.2038,-2.2148,-2.2295,-2.2578,-2.2646,-2.251,-2.2886,-2.3091,-2.3091,-2.3091,-2.3091,-2.8173,-2.9906,0.0,-2.6176,-2.6919,0.0,-2.2793,0.0,0.0,0.0,0.0,0.0,0.0,0.0,0.0,0.0,0.0,0.0,0.0,0.0,0.0,0.0,0.0,0.0,0.0,0.0,0.0,0.0,0.0,0.0,0.0,0.0,-3.1888,-3.0868,-3.1613,-3.2424,-3.3201,-3.4531,-3.5439,-3.5848,-3.6075,-3.6073,-3.5833,-3.5145,-3.4846,-3.4831,-3.4608,-3.4653,-3.4876,-3.5325,-3.5504,-3.5439,-3.4806,-3.4953,-3.5294,-3.3602,-3.2629,-3.2033,-3.1426,-3.1217,-3.1217,-3.1217,-3.0558,-2.9829,-3.003,-3.008,-3.0118,-3.0319,-3.0369,-3.0369,-3.0369,-3.0369,-3.0369,-3.0369,-3.0027,-2.9609,-2.9177,-2.8726,-2.8145,-2.7294,-2.6585,-2.5979,-2.5583,-2.5278,-2.4822,-2.3916,-2.3916,-2.3799,-2.3169,-2.2402,-2.1885,-2.1885,-2.1134,-2.085,-2.1416,-2.1973,-2.2295,-2.2295,-2.2568,-2.2607,-2.2305,-2.2432,-2.2656,-2.2959,-2.293,-2.293,-2.2969,-2.3042,-2.3091,-2.3091,-2.3091,-2.3091]},{"header":{"parameterUnit":"m.s-1","parameterCategory":1,"la1":30.6,"la2":29.2853,"lo1":-89.7004,"lo2":-87.6739,"dx":0.0162,"dy":0.0183,"nx":112,"ny":82,"refTime":"2023-01-07T06:00:00:Z","depth":0,"parameterNumber":3,"parameterNumberName":"V-component_of_WINDS"},"data":[0.0,0.0,0.0,0.0,0.0,0.0,0.0,0.0,0.0,0.0,0.0,0.0,0.0,0.0,0.0,0.0,0.0,0.0,0.0,0.0,0.0,0.0,0.0,0.0,0.0,0.0,0.0,0.0,0.0,0.0,0.0,0.0,0.0,0.0,0.0,0.0,0.0,0.0,0.0,0.0,0.0,0.0,0.0,0.0,0.0,0.0,0.0,0.0,0.0,0.0,0.0,0.0,0.0,0.0,0.0,0.0,0.0,0.0,0.0,0.0,0.0,0.0,0.0,0.0,0.0,0.0,0.0,0.0,0.0,0.0,0.0,0.0,0.0,0.0,0.0,0.0,0.0,0.0,0.0,0.0,0.0,0.0,0.0,0.0,0.0,0.0,0.0,0.0,0.0,0.0,0.0,0.8775,0.5699,0.3154,0.1908,0.0852,0.0985,0.259,0.0,0.0,0.0,0.0,0.0,0.0,0.0,0.0,0.0,0.0,0.0,0.0,0.0,0.0,0.0,0.0,0.0,0.0,0.0,0.0,0.0,0.0,0.0,0.0,0.0,0.0,0.0,0.0,0.0,0.0,0.0,0.0,0.0,0.0,0.0,0.0,0.0,0.0,0.0,0.0,0.0,0.0,0.0,0.0,0.0,0.0,0.0,0.0,0.0,0.0,0.0,0.0,0.0,0.0,0.0,0.0,0.0,0.0,0.0,0.0,0.0,0.0,0.0,0.0,0.0,0.0,0.0,0.0,0.0,0.0,0.0,0.0,0.0,0.0,0.0,0.0,0.0,0.0,0.0,0.0,0.0,0.0,0.0,0.0,0.0,0.0,0.0,0.0,0.0,0.0,0.0,0.0,0.0,0.0,0.0,0.0,0.0,0.0,0.0,0.0,0.0,0.0,0.0,0.0,0.9388,0.7431,0.5815,0.402,0.1988,0.162,0.1848,0.2663,0.0,0.0,0.0,0.0,0.0,0.0,0.0,0.0,0.0,0.0,0.0,0.0,0.0,0.0,0.0,0.0,0.0,0.0,0.0,0.0,0.0,0.0,0.0,0.0,0.0,0.0,0.0,0.0,0.0,0.0,0.0,0.0,0.0,0.0,0.0,0.0,0.0,0.0,0.0,0.0,0.0,0.0,0.0,0.0,0.0,0.0,0.0,0.0,0.0,0.0,0.0,0.0,0.0,0.0,0.0,0.0,0.0,0.0,0.0,0.0,0.0,0.0,0.0,0.0,0.0,0.0,0.0,0.0,0.0,0.0,0.0,0.0,0.0,0.0,0.0,0.0,0.0,0.0,0.0,0.0,0.0,0.0,0.0,0.0,0.0,0.0,0.0,0.0,0.0,0.0,0.0,0.0,0.0,0.0,0.0,0.0,0.0,0.0,0.0,0.0,0.0,0.0,0.0,1.0935,1.0194,0.8089,0.6851,0.5498,0.3757,0.3009,0.2867,0.3467,0.3521,0.0,0.0,0.0,0.0,0.0,0.0,0.0,0.0,0.0,0.0,0.0,0.0,0.0,0.0,0.0,0.0,0.0,0.0,0.0,0.0,0.0,0.0,0.0,0.0,0.0,0.0,0.0,0.0,0.0,0.0,0.0,0.0,0.0,0.0,0.0,0.0,0.0,0.0,0.0,0.0,0.0,0.0,0.0,0.0,0.0,0.0,0.0,0.0,0.0,0.0,0.0,0.0,0.0,0.0,0.0,0.0,0.0,0.0,0.0,0.0,0.0,0.0,0.0,0.0,0.0,0.0,0.0,0.0,0.0,0.0,0.0,0.0,0.0,0.0,0.0,0.0,0.0,0.0,0.0,0.0,0.0,0.0,0.0,0.0,0.0,0.0,0.0,0.0,0.0,0.0,0.0,0.0,0.0,0.0,0.0,0.0,0.0,0.0,0.0,0.0,0.0,0.0,1.1474,1.0993,0.97,0.8595,0.7292,0.5694,0.4691,0.4192,0.4274,0.4225,0.0,0.0,0.0,0.0,0.0,0.0,0.0,0.0,0.0,0.0,0.0,0.0,0.0,0.0,0.0,0.0,0.0,0.0,0.0,0.0,0.0,0.0,0.0,0.0,0.0,0.0,0.0,0.0,0.0,0.0,0.0,0.0,0.0,0.0,0.0,0.0,0.0,0.0,0.0,0.0,0.0,0.0,0.0,0.0,0.0,0.0,0.0,0.0,0.0,0.0,0.0,0.0,0.0,0.0,0.0,0.0,0.0,0.0,0.0,0.0,0.0,0.0,0.0,0.0,0.0,0.0,0.0,0.0,0.0,0.0,0.0,0.0,0.0,0.0,0.0,0.0,0.0,0.0,0.0,0.0,0.0,0.0,0.0,0.0,0.0,0.0,0.0,0.0,0.0,0.0,0.0,0.0,0.0,0.0,0.0,0.0,0.0,0.0,0.0,0.0,0.0,0.0,1.2248,1.163,1.1991,1.1026,0.9422,0.7165,0.6774,0.6024,0.4563,0.4301,0.0,0.0,0.0,0.0,0.0,0.0,0.0,0.0,0.0,0.0,0.0,0.0,0.0,0.0,0.0,0.0,0.0,0.0,0.0,0.0,0.0,0.0,0.0,0.0,0.0,0.0,0.0,0.0,0.0,0.0,0.0,0.0,0.0,0.0,0.0,0.0,0.0,0.0,0.0,0.0,0.0,0.0,0.0,0.0,0.0,0.0,0.0,0.0,0.0,0.0,0.0,0.0,0.0,0.0,0.0,0.0,0.0,0.0,0.0,0.0,0.0,0.0,0.0,0.0,0.0,0.0,0.0,0.0,0.0,0.0,0.0,0.0,0.0,0.0,0.0,0.0,0.0,0.0,0.0,0.0,0.0,0.0,0.0,0.0,0.0,0.0,0.0,0.0,0.0,0.0,0.0,0.0,0.0,0.0,0.0,0.0,0.0,0.0,0.0,0.0,0.0,0.0,1.4464,1.4169,0.0,1.2977,1.1759,0.9344,0.8899,0.8379,0.7434,0.0,0.0,0.0,0.0,0.0,0.0,0.0,0.0,0.0,0.0,0.0,0.0,0.0,0.0,0.0,0.0,0.0,0.0,0.0,0.0,0.0,0.0,0.0,0.0,0.0,0.0,0.0,0.0,0.0,0.0,0.0,0.0,0.0,0.0,0.0,0.0,0.0,0.0,0.0,0.0,0.0,0.0,0.0,0.0,0.0,0.0,0.0,0.0,0.0,0.0,0.0,0.0,0.0,0.0,0.0,0.0,0.0,0.0,0.0,0.0,0.0,0.0,0.0,0.0,0.0,0.0,0.0,0.0,0.0,0.0,0.0,0.0,0.0,0.0,0.0,0.0,0.0,0.0,0.0,0.0,0.0,0.0,0.0,0.0,0.0,0.0,0.0,0.0,0.0,0.0,0.0,0.0,0.0,0.0,0.0,0.0,0.0,0.0,0.0,0.0,0.0,0.0,1.5573,1.6067,1.607,0.0,1.5072,1.4103,1.1759,1.1262,1.0543,0.9257,0.0,0.0,0.0,0.0,0.0,0.0,0.0,0.0,0.0,0.0,0.0,0.0,0.0,0.0,0.0,0.0,0.0,0.0,0.0,0.0,0.0,0.0,0.0,0.0,0.0,0.0,0.0,0.0,0.0,0.0,0.0,0.0,0.0,0.0,0.0,0.0,0.0,0.0,0.0,0.0,0.0,0.0,0.0,0.0,0.0,0.0,0.0,0.0,0.0,0.0,0.0,0.0,0.0,0.0,0.0,0.0,0.0,0.0,0.0,0.0,0.0,0.0,0.0,0.0,0.0,0.0,0.0,0.0,0.0,0.0,0.0,0.0,0.0,0.0,0.0,0.0,0.0,0.0,0.0,0.0,0.0,0.0,0.0,0.0,0.0,0.0,0.0,0.0,0.0,0.0,0.0,0.0,0.0,0.0,0.0,0.0,0.0,0.0,0.0,0.0,0.0,0.0,1.6409,1.6742,1.7071,1.7301,1.7342,1.6462,1.4232,1.3831,1.25,0.0,0.0,0.0,0.0,0.0,0.0,0.0,0.0,0.0,0.0,0.0,0.0,0.0,0.0,0.0,0.0,0.0,0.0,0.0,0.0,0.0,0.0,0.0,0.0,0.0,0.0,0.0,0.0,0.0,0.0,0.0,0.0,0.0,0.0,0.0,0.0,0.0,0.0,0.0,0.0,0.0,0.0,0.0,0.0,0.0,0.0,0.0,0.0,0.0,0.0,0.0,0.0,0.0,0.0,0.0,0.0,0.0,0.0,0.0,0.0,0.0,0.0,0.0,0.0,0.0,0.0,0.0,0.0,0.0,0.0,0.0,0.0,0.0,0.0,0.0,0.0,0.0,0.0,0.0,0.0,0.0,0.0,0.0,0.0,0.0,0.0,0.0,0.0,0.0,0.0,0.0,0.0,0.0,0.0,0.0,0.0,0.0,0.0,0.0,0.0,0.0,0.0,0.0,1.8909,2.0262,2.071,1.9615,1.9767,1.9129,1.6982,1.6053,1.4825,1.3123,0.0,0.0,0.0,0.0,0.0,0.0,0.0,0.0,0.0,0.0,0.0,0.0,0.0,0.0,0.0,0.0,0.0,0.0,0.0,0.0,0.0,0.0,0.0,0.0,0.0,0.0,0.0,0.0,0.0,0.0,0.0,0.0,0.0,0.0,0.0,0.0,0.0,0.0,0.0,0.0,0.0,0.0,0.0,0.0,0.0,0.0,0.0,0.0,0.0,0.0,0.0,0.0,0.0,0.0,0.0,0.0,0.0,0.0,0.0,0.0,0.0,0.0,0.0,0.0,0.0,0.0,0.0,0.0,0.0,0.0,0.0,0.0,0.0,0.0,0.0,0.0,0.0,0.0,0.0,0.0,0.0,0.0,0.0,0.0,0.0,0.0,0.0,0.0,0.0,0.0,0.0,0.0,0.0,0.0,0.0,0.0,0.0,0.0,0.0,0.0,0.0,0.0,2.0485,2.2081,2.2845,2.2043,2.1841,2.1162,1.9673,1.8524,1.7187,1.5695,0.0,0.0,0.0,0.0,0.0,0.0,0.0,0.0,0.0,0.0,0.0,0.0,0.0,0.0,0.0,0.0,0.0,0.0,0.0,0.0,0.0,0.0,0.0,0.0,0.0,0.0,0.0,0.0,0.0,0.0,0.0,0.0,0.0,0.0,0.0,0.0,0.0,0.0,0.0,0.0,0.0,0.0,0.0,0.0,0.0,0.0,0.0,0.0,0.0,0.0,0.0,0.0,0.0,0.0,0.0,0.0,0.0,0.0,0.0,0.0,0.0,0.0,0.0,0.0,0.0,0.0,0.0,0.0,0.0,0.0,0.0,0.0,0.0,0.0,0.0,0.0,0.0,0.0,0.0,0.0,0.0,0.0,0.0,0.0,0.0,0.0,0.0,0.0,0.0,0.0,0.0,0.0,0.0,0.0,0.0,0.0,0.0,0.0,0.0,0.0,0.0,0.0,2.1463,2.298,2.4081,2.4386,2.3645,2.2874,2.2321,2.1256,1.9747,1.7673,0.0,0.0,0.0,0.0,0.0,0.0,0.0,0.0,0.0,0.0,0.0,0.0,0.0,0.0,0.0,0.0,0.0,0.0,0.0,0.0,0.0,0.0,0.0,0.0,0.0,0.0,0.0,0.0,0.0,0.0,0.0,0.0,0.0,0.0,0.0,0.0,0.0,0.0,0.0,0.0,0.0,0.0,0.0,0.0,0.0,0.0,0.0,0.0,0.0,0.0,0.0,0.0,0.0,0.0,0.0,0.0,0.0,0.0,0.0,0.0,1.8944,0.0,0.0,0.0,0.0,0.0,0.0,0.0,0.0,0.0,0.0,0.0,0.0,0.0,0.0,0.0,0.0,0.0,0.0,0.0,0.0,0.0,0.0,0.0,0.0,0.0,0.0,0.0,0.0,0.0,0.0,0.0,0.0,0.0,0.0,0.0,0.0,0.0,0.0,0.0,0.0,0.0,2.3053,2.5611,2.6922,2.5608,2.5975,2.5942,2.5051,2.4168,2.2826,2.0819,1.9162,0.0,0.0,0.0,0.0,0.0,0.0,0.0,0.0,0.0,0.0,0.0,0.0,0.0,0.0,0.0,0.0,0.0,0.0,0.0,0.0,0.0,0.0,0.0,0.0,0.0,0.0,0.0,0.0,0.0,0.0,0.0,0.0,0.0,0.0,0.0,0.0,0.0,0.0,0.0,0.0,0.0,0.0,0.0,0.0,0.0,0.0,0.0,0.0,0.0,0.0,0.0,0.0,0.0,0.0,0.0,0.0,0.0,0.0,0.0,0.0,2.0961,0.0,0.0,0.0,0.0,0.0,0.0,0.0,0.0,0.0,0.0,0.0,0.0,0.0,0.0,0.0,0.0,0.0,0.0,0.0,0.0,0.0,0.0,0.0,0.0,0.0,0.0,0.0,0.0,0.0,0.0,0.0,0.0,0.0,0.0,0.0,0.0,0.0,0.0,0.0,0.0,2.5163,2.7848,2.9276,2.8127,2.8002,2.7669,2.6983,2.6032,2.5008,2.3761,2.159,0.0,0.0,0.0,0.0,0.0,0.0,0.0,0.0,0.0,0.0,0.0,0.0,0.0,0.0,0.0,0.0,0.0,0.0,0.0,0.0,0.0,0.0,0.0,0.0,0.0,0.0,0.0,0.0,0.0,0.0,0.0,0.0,0.0,0.0,0.0,0.0,0.0,0.0,0.0,0.0,0.0,0.0,0.0,0.0,0.0,0.0,0.0,0.0,0.0,0.0,0.0,0.0,0.0,2.8902,2.9243,2.9803,2.9948,3.0591,3.1415,2.7389,2.54,2.4822,0.0,0.0,0.0,0.0,0.0,0.0,0.0,0.0,0.0,0.0,0.0,0.0,0.0,0.0,0.0,0.0,0.0,0.0,0.0,0.0,0.0,0.0,0.0,0.0,0.0,2.5868,2.5869,0.0,0.0,0.0,0.0,0.0,0.0,0.0,0.0,0.0,0.0,0.0,0.0,2.7479,2.9802,3.1171,3.069,2.9887,2.9239,2.8919,2.7928,2.7082,2.6496,2.4086,2.2208,0.0,0.0,0.0,0.0,0.0,0.0,0.0,0.0,0.0,0.0,0.0,0.0,0.0,0.0,0.0,0.0,0.0,0.0,0.0,0.0,0.0,0.0,0.0,0.0,0.0,0.0,0.0,0.0,0.0,0.0,0.0,0.0,2.1338,2.1063,0.0,0.0,0.0,0.0,0.0,0.0,0.0,0.0,0.0,0.0,0.0,0.0,0.0,2.8825,2.901,3.0238,3.0972,3.1148,3.1729,3.235,3.3003,3.3671,3.4049,3.4199,3.4133,0.0,3.0753,2.806,0.0,0.0,0.0,0.0,0.0,0.0,0.0,0.0,0.0,0.0,0.0,0.0,0.0,0.0,0.0,0.0,0.0,0.0,0.0,0.0,0.0,0.0,2.8046,2.8935,2.9757,3.0165,0.0,2.5326,2.164,2.1405,2.1204,0.0,0.0,0.0,0.0,0.0,0.0,0.0,2.9642,3.1509,3.2505,3.1695,3.1905,3.2055,3.2028,3.1127,3.0138,2.9082,2.7565,2.5885,2.4052,2.1269,0.0,0.0,0.0,0.0,0.0,0.0,0.0,0.0,0.0,0.0,0.0,0.0,0.0,0.0,0.0,0.0,0.0,0.0,0.0,0.0,0.0,0.0,0.0,0.0,0.0,0.0,0.0,0.0,0.0,2.2625,2.3676,2.4386,2.4975,2.5273,0.0,0.0,0.0,0.0,0.0,0.0,0.0,0.0,0.0,2.9115,3.0495,3.1248,3.1248,3.2232,3.2714,3.2714,3.3014,3.3519,3.4232,3.4536,3.5337,3.6462,3.675,3.6704,3.6167,3.2601,3.0949,3.0441,0.0,0.0,0.0,0.0,2.7683,2.7496,2.7896,2.7826,0.0,2.7582,0.0,0.0,0.0,0.0,0.0,0.0,0.0,0.0,0.0,0.0,3.2131,3.303,3.3485,3.3697,3.3697,3.1294,2.8413,0.0,2.5397,2.4778,2.3324,0.0,0.0,0.0,0.0,0.0,3.1973,3.3448,3.4083,3.3121,3.3259,3.3171,3.2629,3.2213,3.1788,3.1259,2.9593,2.8144,2.7013,2.4228,2.2183,0.0,0.0,0.0,0.0,0.0,0.0,0.0,0.0,0.0,0.0,0.0,0.0,0.0,0.0,0.0,0.0,0.0,0.0,0.0,0.0,0.0,0.0,0.0,0.0,0.0,0.0,0.0,0.0,2.455,2.5803,2.7323,2.7791,2.8188,0.0,0.0,0.0,0.0,0.0,0.0,2.9399,3.0429,3.1124,3.1306,3.2481,3.3096,3.3096,3.3604,3.3862,3.3862,3.4055,3.4529,3.5242,3.5642,3.6657,3.8131,3.8504,3.9125,3.9596,3.6115,3.421,3.3444,3.2724,3.2303,3.2191,3.235,3.2292,3.2171,3.2532,3.2601,3.2472,3.24,0.0,3.0119,2.9725,0.0,0.0,0.0,0.0,3.1946,3.2248,3.3693,3.523,3.5883,3.6204,3.6305,3.6305,3.5677,3.4041,0.0,2.9475,2.8757,2.7412,0.0,0.0,0.0,0.0,3.4131,3.4288,3.5166,3.5429,3.4495,3.4394,3.4109,3.3394,3.3101,3.2961,3.2961,3.1269,3.0046,2.9512,2.6989,2.5119,2.4091,0.0,0.0,0.0,0.0,0.0,0.0,0.0,0.0,0.0,0.0,0.0,0.0,0.0,0.0,0.0,0.0,0.0,0.0,0.0,0.0,0.0,0.0,0.0,0.0,0.0,0.0,0.0,0.0,0.0,2.8971,2.8926,0.0,0.0,0.0,0.0,3.1944,3.1473,3.1503,3.2324,3.2446,3.2797,3.3416,3.4124,3.4502,3.4502,3.4535,3.4552,3.4568,3.5259,3.5974,3.6736,3.8154,3.8839,3.9024,4.0425,4.0661,3.9951,3.8281,3.7205,3.6462,3.5139,3.4256,3.3777,3.439,3.5075,3.5648,3.5615,3.6469,3.752,3.6814,3.5784,3.4751,3.4727,3.4255,0.0,0.0,3.4175,3.4755,3.4667,3.5203,3.5899,3.6577,3.7226,3.771,3.771,3.715,3.6186,0.0,3.3346,3.253,3.2122,0.0,3.3306,3.4237,3.513,3.5864,3.6381,3.6507,3.6244,3.5507,3.5424,3.5407,3.5359,3.4476,3.391,3.391,3.2982,3.2042,3.1127,2.955,2.804,2.6619,2.4244,0.0,0.0,0.0,0.0,0.0,0.0,0.0,0.0,0.0,0.0,0.0,0.0,0.0,0.0,0.0,0.0,0.0,0.0,0.0,0.0,0.0,0.0,0.0,0.0,0.0,0.0,0.0,0.0,3.1041,3.1129,0.0,3.2305,3.1925,3.2025,3.2997,3.2894,3.3094,3.3775,3.4286,3.4645,3.4868,3.5119,3.523,3.523,3.5756,3.6031,3.6031,3.6745,3.7487,3.8227,3.8751,3.9242,3.974,4.0265,4.035,4.0045,3.9506,3.9156,3.8883,3.8393,3.8078,3.7861,3.8119,3.8369,3.8668,3.9125,3.9556,3.9817,3.9108,3.8949,3.8772,3.7381,3.7415,3.7791,3.6839,3.7746,3.8861,3.8352,3.9101,3.9924,3.9698,3.9794,3.986,3.9379,3.9089,3.8754,3.8197,3.6662,3.5229,3.4663,3.5848,3.6717,3.6253,3.7095,3.7853,3.7995,3.756,3.7104,3.6772,3.6372,3.6133,3.6133,3.5418,3.4953,3.4953,3.4027,3.3345,3.3031,3.1319,3.0291,3.0024,2.8569,2.6746,0.0,0.0,0.0,0.0,0.0,0.0,0.0,0.0,0.0,0.0,0.0,0.0,0.0,0.0,0.0,0.0,0.0,0.0,0.0,0.0,0.0,0.0,0.0,0.0,0.0,0.0,3.1369,3.2898,3.2855,3.3122,3.417,3.3647,3.3526,3.4163,3.4249,3.4448,3.4856,3.5329,3.56,3.56,3.56,3.5718,3.6011,3.6518,3.6931,3.7161,3.7922,3.8531,3.9005,3.9242,3.9656,4.0096,4.0096,4.0096,4.0096,4.0096,4.0096,4.0096,4.0096,4.0096,4.013,4.0383,4.0637,4.0993,4.1999,4.2114,4.1768,4.1625,4.1898,4.2081,4.0659,4.0894,4.1366,4.0151,4.0855,4.1779,4.1018,4.1585,4.2168,4.1694,4.1576,4.1373,4.0612,4.046,4.0417,4.0146,3.8705,3.7454,3.7294,3.8175,3.8702,3.8136,3.8985,3.9577,3.9266,3.8547,3.7887,3.7555,3.6706,3.6148,3.6148,3.5549,3.525,3.5489,3.4651,3.3979,3.3553,3.2206,3.1317,3.0922,3.0433,2.9118,2.6927,0.0,0.0,0.0,0.0,0.0,0.0,0.0,0.0,0.0,0.0,0.0,0.0,0.0,0.0,0.0,0.0,0.0,0.0,0.0,0.0,0.0,0.0,0.0,3.0404,3.1759,3.3145,3.4469,3.4006,3.4107,3.547,3.4962,3.4827,3.5549,3.56,3.56,3.56,3.56,3.56,3.56,3.5616,3.6011,3.6795,3.6846,3.7212,3.7939,3.8684,3.9022,3.9056,3.9774,4.0096,4.0096,4.0096,4.0096,4.0096,4.0096,4.0096,4.0096,4.0096,4.0113,4.0231,4.0933,4.1677,4.254,4.4056,4.4062,4.3589,4.4361,4.4615,4.4615,4.4615,4.4615,4.4445,4.3673,4.3426,4.3284,4.2557,4.2354,4.2354,4.2337,4.232,4.2117,4.139,4.1221,4.0984,4.0282,3.948,3.9183,3.9969,3.9463,3.9209,4.0011,4.073,0.0,4.026,3.9495,3.8685,3.7857,3.6478,3.5582,3.5534,3.4906,3.4801,3.5459,3.4876,3.3984,3.2757,3.2335,3.1254,2.9377,2.9679,2.9656,2.9192,0.0,0.0,0.0,0.0,0.0,0.0,0.0,0.0,0.0,0.0,0.0,0.0,0.0,0.0,0.0,0.0,0.0,0.0,0.0,0.0,0.0,0.0,3.2501,3.2689,3.3466,3.4303,3.5215,3.5148,3.5166,3.5543,3.5414,3.538,3.5583,3.56,3.56,3.56,3.56,3.56,3.56,3.6163,3.6592,3.6795,3.7879,3.8497,3.87,3.9453,3.9808,3.9808,4.0011,4.0096,4.0096,4.0096,4.0096,4.0096,4.0096,4.0096,4.0096,4.0096,4.0434,4.0916,4.1136,4.2016,4.3166,4.3589,4.3961,4.4327,4.453,4.4615,4.4615,4.4615,4.4615,4.4564,4.4316,4.4265,4.4215,4.4039,4.3972,4.3809,4.325,4.3115,4.2912,4.2151,4.1576,4.1136,4.0933,4.0272,3.9833,4.007,3.9927,4.0035,4.0772,4.1068,0.0,4.1593,4.1419,4.0732,3.929,3.8359,3.7384,3.6319,3.5609,3.5295,3.5489,3.5325,3.5053,3.4739,3.3912,3.3225,3.27,3.2037,3.1621,0.0,0.0,0.0,0.0,0.0,0.0,0.0,0.0,0.0,0.0,0.0,0.0,0.0,0.0,0.0,0.0,0.0,0.0,0.0,0.0,0.0,0.0,3.2561,3.3806,3.4368,3.4746,3.5131,3.5549,3.56,3.56,3.56,3.56,3.56,3.56,3.56,3.56,3.56,3.56,3.5752,3.6096,3.6575,3.71,3.7726,3.8565,3.9165,3.9486,3.991,4.0096,4.0096,4.0096,4.0096,0.0,4.0096,4.0096,4.0096,4.0096,4.0096,0.0,0.0,0.0,0.0,0.0,4.1948,4.298,4.3274,4.3724,4.4147,4.4496,4.4615,4.4615,4.4615,4.4615,4.4615,4.4615,4.4615,4.4615,4.4615,4.4615,4.4496,4.4012,4.391,4.3773,4.3278,4.2843,4.245,4.2142,4.1475,0.0,4.1027,4.0773,4.0696,4.1136,4.1745,4.226,4.2639,4.2435,4.1874,4.0894,3.9581,3.8294,3.709,3.6096,0.0,0.0,0.0,3.4951,3.4681,3.4003,0.0,0.0,0.0,0.0,0.0,0.0,0.0,0.0,2.9254,2.8993,0.0,0.0,0.0,0.0,0.0,0.0,0.0,0.0,0.0,0.0,0.0,0.0,0.0,0.0,0.0,0.0,3.3286,3.4232,3.5431,3.56,3.56,3.56,3.56,3.56,3.56,3.56,3.56,3.56,3.56,3.56,3.56,0.0,0.0,0.0,0.0,3.7557,3.8853,3.9039,3.9445,4.0096,4.0096,4.0096,4.0096,4.0096,4.0096,4.0096,4.0096,4.0096,4.0096,4.0096,4.0096,4.013,4.0282,4.0299,4.0333,4.1153,4.1916,4.2622,4.321,0.0,0.0,4.4406,4.4654,4.4692,4.4692,4.4692,4.4692,4.4692,4.4654,4.4615,4.4615,4.4615,4.4626,4.4709,4.4692,4.4709,4.4645,4.4553,4.4292,4.3558,4.2847,4.2334,4.23,4.1694,4.1271,4.1424,4.2574,4.3426,4.3511,4.2958,4.2489,4.2319,0.0,0.0,3.7919,3.6614,3.5784,3.5638,3.4985,3.4369,3.3739,3.3589,3.3893,3.4696,3.4803,3.5115,3.5714,3.5714,3.507,3.3768,3.1185,3.0634,0.0,0.0,0.0,0.0,0.0,0.0,0.0,0.0,0.0,0.0,0.0,0.0,0.0,0.0,0.0,3.3096,3.433,3.5301,3.5543,3.56,3.56,3.56,3.56,3.56,3.56,3.56,3.56,3.56,3.56,3.56,3.56,3.56,3.5667,3.5842,3.7043,3.7821,3.8108,3.9276,3.996,4.0096,0.0,0.0,4.0096,4.0096,4.0096,4.0096,4.0096,4.0096,4.0096,4.0096,4.0096,4.0231,4.1416,4.1508,4.1153,4.2462,4.3405,4.3949,4.3525,4.4139,4.5051,4.4725,4.4934,4.532,4.532,4.532,0.0,4.532,4.4988,4.4615,4.4615,4.4615,4.472,4.5205,4.532,4.5459,4.5901,4.5541,4.4947,4.4309,4.3586,4.2938,4.2385,4.1694,4.161,4.2811,4.3206,4.3639,4.4265,4.4221,4.3669,4.2427,4.191,4.0828,3.8836,3.7808,3.7033,3.6446,3.571,3.525,3.513,3.5565,3.5922,3.6103,3.6582,3.6911,3.7045,3.7045,3.6641,3.5893,3.4812,3.4169,0.0,0.0,0.0,0.0,0.0,0.0,0.0,0.0,0.0,0.0,0.0,3.1137,0.0,0.0,3.4024,3.3955,3.4895,3.56,3.56,3.56,3.56,3.56,3.56,3.56,3.56,3.56,3.56,3.56,3.56,3.56,3.56,3.56,3.5955,3.6715,3.7516,3.8261,3.8988,3.974,4.0096,4.0096,4.0096,4.0096,4.0096,4.0096,4.0096,4.0096,4.0096,4.0096,4.0096,4.0096,4.0096,4.0214,4.1305,4.1525,4.1238,4.161,4.2184,4.2834,4.3228,4.382,4.4514,4.5251,4.5707,4.594,4.594,4.594,4.589,4.5571,4.5511,4.5372,4.4776,4.5052,4.5511,4.5511,4.5732,4.6119,4.6756,4.661,4.6275,4.5957,4.5313,4.4607,4.401,4.3526,4.3285,4.341,4.3741,4.4147,4.4564,4.4615,4.4305,4.3528,4.3086,4.2252,4.0727,3.9138,3.7743,3.6635,3.6484,3.6462,3.6462,3.709,3.7434,3.7434,3.7749,3.7898,3.7898,3.7898,3.7569,3.6941,3.6611,3.5923,0.0,0.0,0.0,0.0,0.0,0.0,0.0,0.0,3.102,3.1524,3.2636,3.3545,3.3423,3.4484,3.5199,3.459,3.5003,3.5407,3.5407,3.5293,3.5207,3.5207,3.5447,3.56,3.56,3.56,3.56,3.56,3.56,3.56,3.56,3.56,3.6225,3.7652,3.7838,3.8531,3.9876,4.0028,4.0096,4.0096,4.0096,4.0096,4.0096,4.0096,4.0096,4.0096,4.0096,4.0096,4.0096,4.0096,4.0096,4.0163,4.0747,4.1231,4.1529,4.0942,4.1171,4.197,4.3263,4.3877,4.4359,4.5906,4.6501,4.6594,4.6594,4.6594,4.6501,4.6007,4.6136,4.6167,4.5205,4.5673,4.6312,4.594,4.6257,4.6778,4.7428,4.7572,4.7551,4.7428,4.6922,4.6327,4.5778,4.5585,4.5139,4.3995,4.4368,4.4759,4.4759,4.4682,4.4615,4.4615,4.4012,4.3155,4.1959,3.9896,3.8041,3.6588,3.706,3.7404,3.7404,3.8033,3.8392,3.8392,3.8527,3.8586,3.8586,3.8586,3.8242,3.7599,3.7464,3.6791,1.9872,0.0,0.0,2.773,2.9363,3.0535,0.0,0.0,3.2305,3.235,3.2934,3.3406,3.3402,3.4066,3.459,3.4506,3.4614,3.4712,3.4712,3.4186,3.3811,3.3811,3.4887,3.56,3.56,3.56,3.56,3.56,3.56,3.56,3.56,3.56,3.6011,3.6897,3.755,3.8294,3.9106,3.9774,4.0096,4.0096,4.0096,4.0096,4.0096,4.0096,4.0096,4.0096,4.0096,4.0096,4.0096,4.0096,4.0096,4.0113,4.0197,4.1374,4.3071,4.2968,4.333,4.3981,4.4786,4.5895,4.6895,4.6518,4.6801,4.7299,4.7299,4.7299,4.7259,4.7212,4.6819,4.6383,4.624,4.6312,4.6524,4.7044,4.7237,4.7449,4.8075,4.8191,4.8035,4.7491,4.7334,4.7064,4.6413,4.6289,4.6044,4.5373,4.5329,4.5381,4.5381,4.4934,4.4615,4.4615,4.453,4.332,4.0488,3.9251,3.8006,3.6588,3.706,3.7404,3.7404,3.8033,3.8392,3.8392,3.899,3.9305,3.9305,3.9305,3.8945,3.8257,3.7689,3.7045,2.5097,0.0,0.0,0.0,3.4371,3.5101,3.5087,3.5287,3.5246,3.446,3.4499,3.4565,3.4157,3.4362,3.4429,0.0,3.3991,3.4012,3.4012,3.3786,3.3582,3.3582,3.4087,3.4609,3.4965,3.5362,3.56,3.56,3.56,3.56,3.56,3.56,3.5977,3.6778,3.7516,3.8261,3.8988,3.974,4.0096,4.0096,4.0096,4.0096,4.0096,4.0096,4.0096,4.0096,4.0096,4.0096,4.0096,4.0096,4.0096,4.0121,4.0483,4.114,4.1897,4.1897,4.3139,4.488,4.5086,4.5885,4.6832,4.7346,4.7697,4.7917,4.7917,4.7917,4.7856,4.7509,4.7449,4.7345,4.6577,4.6937,4.7491,4.7428,4.7656,4.7977,4.8248,4.8306,4.8229,4.7957,4.7917,4.7718,4.7088,4.7281,4.7302,4.6705,4.5982,4.5511,4.5511,4.4971,4.4615,4.4615,4.4167,4.2967,4.0759,4.0114,3.9189,3.7698,3.8212,3.8571,3.8571,3.8841,3.899,3.899,3.9275,3.9388,3.9388,3.9388,3.9275,3.896,3.7898,3.727,2.8226,0.0,0.0,3.5977,3.7658,3.8339,3.7806,3.7676,3.7406,3.6441,3.6056,3.5727,3.5033,3.4748,3.4382,3.371,3.3427,3.3313,3.3313,3.3156,3.3024,3.3024,3.3209,3.3505,3.4012,3.4823,3.5385,3.56,3.56,3.56,3.56,3.56,3.5977,3.6778,3.7313,3.8041,3.8988,3.9537,3.991,4.0096,4.0096,4.0096,4.0096,4.0096,4.0096,4.0096,4.0096,4.0096,4.0096,4.0096,4.0231,4.0434,4.0823,4.1296,4.1771,4.1743,4.3209,4.5324,4.5807,4.6352,4.7011,4.7988,4.8306,4.8306,4.8306,4.8306,4.821,4.7777,4.7957,4.8094,4.7154,4.7596,4.8191,4.7756,4.7977,4.8306,4.8306,4.8306,4.8306,4.8306,4.8306,4.8172,4.7736,4.8198,4.8446,4.7752,4.6766,4.6001,4.5792,4.5062,4.4615,4.4615,4.3621,4.2415,4.1099,4.0605,3.9714,3.8202,3.8931,3.9298,3.914,3.932,3.9388,3.9388,3.9388,3.9388,3.9388,3.9388,3.9388,3.9394,3.8033,3.7404,0.0,0.0,3.3673,3.5193,3.7136,3.8545,3.8003,3.7895,3.7879,3.7838,3.7263,3.6542,3.5811,3.5094,3.4382,3.371,3.3039,3.2641,3.2641,3.2007,3.1553,3.1553,3.2203,3.2641,0.0,3.3862,3.4894,3.5538,3.56,3.56,3.56,3.56,3.5977,3.6778,3.6829,3.754,3.8988,3.9005,3.9402,4.0096,4.0096,4.0096,4.0096,4.0096,4.0096,4.0096,4.0096,4.0096,4.0096,4.0096,4.051,4.1137,4.0972,4.216,4.3997,4.386,4.4353,4.5413,4.7472,4.8232,4.825,4.8287,4.8306,4.8306,4.8306,4.8306,4.8287,4.8287,4.8287,4.8287,4.8249,4.8267,4.8287,4.8287,4.8287,4.8306,4.8306,4.8306,4.8306,4.8306,4.8306,4.8287,4.8287,4.8985,4.926,4.8397,4.7921,4.7316,4.6472,4.5346,4.4615,4.4615,4.3061,4.1741,4.1068,4.0028,3.8841,3.7524,3.8691,3.9125,3.8452,3.9065,3.9388,3.9388,3.9388,3.9388,3.9388,3.9388,3.9388,3.9394,3.8033,3.7404,0.0,0.0,3.467,3.7263,3.8192,3.823,3.7257,3.7371,3.7328,3.5989,3.5873,3.5785,3.5038,3.4331,3.3657,3.2972,3.2325,3.1881,3.1881,3.1668,3.1511,3.1511,3.171,0.0,0.0,0.0,0.0,3.4918,3.5362,3.56,3.56,3.56,3.5718,3.6011,3.6992,3.777,3.8278,3.9225,3.9859,4.0096,4.0096,4.0096,4.0096,4.0096,4.0096,4.0096,4.0096,4.0311,4.0631,4.0631,4.1324,4.2427,4.2764,4.3334,4.406,4.4905,4.5058,4.5095,4.6873,4.7846,4.8306,4.8306,4.8306,4.8306,4.8306,4.8306,4.8306,4.8306,4.8306,4.8306,4.8306,4.8306,4.8306,4.8306,4.8306,4.8306,4.8306,4.8306,4.8306,4.8306,4.8306,4.8489,4.9058,4.893,4.8501,4.7811,4.721,4.6435,4.5354,4.4852,4.4615,4.4615,4.3031,4.1901,4.1693,4.0255,3.9035,3.8123,3.8916,3.911,3.8422,3.905,3.9388,3.9388,3.9388,3.9388,3.9388,3.9388,3.9388,3.9394,3.8033,3.7404,0.0,3.3794,3.5595,3.7283,3.7513,3.7007,3.5721,3.5899,3.6086,3.5125,3.5221,3.5354,3.4969,3.4138,3.3372,3.2931,3.2288,3.1854,3.1854,3.1854,3.1765,3.1525,3.1511,0.0,0.0,0.0,0.0,3.4576,3.4988,3.5362,3.56,3.56,3.56,3.56,3.6546,3.7229,3.7499,3.8454,3.9199,3.9723,3.9977,4.0096,4.0096,4.0096,4.0096,4.0096,4.0096,4.0286,4.0631,4.0827,4.1626,4.283,4.3593,4.409,4.4492,4.5532,4.5755,4.57,4.6746,4.7443,4.7921,4.8214,4.8306,4.8306,4.8306,4.8306,4.8306,4.8306,4.8306,4.8306,4.8306,4.8306,4.8306,4.8306,4.8306,4.8306,4.8306,4.8306,4.8306,4.8306,4.8545,4.893,4.95,4.8937,4.8213,4.7603,4.6696,4.5808,4.5025,4.4748,4.4485,4.4167,4.2862,4.1853,4.1576,4.022,3.9125,3.8437,3.9035,3.911,3.8422,3.905,3.9388,3.9388,3.9388,3.9388,3.9388,3.9388,3.9388,3.9358,3.8272,3.7629,3.2562,3.476,3.6085,3.5176,3.4987,3.4678,3.3302,3.341,3.4059,3.4953,3.5089,3.5137,0.0,0.0,3.3499,3.3502,3.2916,3.2467,3.2497,3.2526,3.2287,0.0,0.0,0.0,0.0,0.0,0.0,3.4552,0.0,3.4918,3.5577,3.56,3.56,3.56,3.5633,3.6028,3.6795,3.6846,3.7574,3.8937,3.9706,4.0045,4.0045,4.0079,4.0096,4.0096,4.0096,4.0121,4.0179,4.0713,4.1552,4.2552,4.3608,4.4549,4.5338,4.5801,4.6434,4.7039,4.7094,4.7131,4.7278,4.8048,4.8306,4.8306,4.8306,4.8306,4.8306,4.8306,4.8306,4.8306,4.8306,4.8306,4.8306,4.8306,4.8306,4.8306,4.8306,4.8306,4.8306,4.8306,4.8966,4.9534,4.9498,4.8935,4.829,4.7677,4.6372,4.5459,4.5459,4.4944,4.427,4.3396,4.252,4.1642,4.0777,3.99,3.9125,3.8437,3.9035,3.911,3.8422,3.905,3.9388,3.9388,3.9388,3.9388,3.9388,3.9388,3.9388,3.9373,3.8706,3.8033,3.2798,3.2752,3.216,3.1655,3.0735,2.9747,2.8889,2.941,3.0115,3.0257,3.1787,3.3264,0.0,0.0,0.0,3.35,3.2527,0.0,3.2504,3.256,0.0,0.0,0.0,3.3156,3.3339,3.3495,0.0,0.0,3.5075,3.5407,3.56,3.56,3.56,3.56,3.618,3.6586,3.6795,3.733,3.7804,3.8193,3.892,3.9276,3.9317,3.9859,4.0096,4.0096,4.0096,4.0336,4.0737,4.1507,4.2812,4.4474,4.5288,4.6013,4.6637,4.6743,4.6526,4.6287,4.6892,4.748,4.8031,4.8233,4.8306,4.8306,4.8306,4.8306,4.8306,4.8306,4.8306,4.8306,4.8306,4.8306,4.8306,4.8306,4.8306,4.8306,4.8306,4.8306,4.8306,4.8306,4.8593,4.8669,4.807,4.7535,4.6928,4.6166,4.5369,4.4841,4.4841,4.4709,4.427,4.3396,4.252,4.1642,4.0777,3.99,3.9125,3.8437,3.9035,3.911,3.8422,3.905,3.9388,3.9388,3.9388,3.9388,3.9388,3.9388,3.9388,3.9373,3.8706,3.8033,3.2906,3.1938,3.0224,2.8673,2.7235,2.5836,2.4422,2.4767,2.5588,2.6385,2.8475,0.0,0.0,0.0,0.0,0.0,0.0,0.0,3.2505,3.2813,3.3033,0.0,3.3417,0.0,3.4012,3.4037,3.4309,0.0,3.5098,3.5276,3.5577,3.56,3.56,3.56,3.6045,3.6265,3.6265,3.7026,3.7415,3.7432,3.8159,3.8514,3.8531,3.9276,3.9622,3.9656,0.0,4.0262,4.0621,4.166,4.2958,4.444,4.5716,4.6613,4.7206,4.7129,4.7039,4.6966,4.7058,4.7626,4.8306,4.8306,4.8306,4.8306,4.8306,4.8306,4.8306,4.8306,4.8306,4.8306,4.8306,4.8306,4.8306,4.8306,4.8306,4.823,4.7957,4.7838,4.7807,4.7902,4.8056,4.8074,4.7626,4.7072,4.6413,4.5615,4.4998,4.4615,4.4615,4.4615,4.427,4.3396,4.252,4.1642,4.0777,4.0157,3.9694,3.929,3.9903,3.9978,3.9305,3.9649,3.9709,3.9424,3.9388,3.9388,3.9388,3.9388,3.9388,3.9373,3.902,3.8332,3.2499,3.1211,2.8839,2.5759,2.4055,2.2606,2.04,2.0312,2.1233,2.322,0.0,0.0,3.0553,0.0,3.2238,3.3815,0.0,3.2348,3.2496,3.3001,3.3206,3.2784,3.3235,3.3862,3.4528,3.46,3.4894,3.5538,3.5075,3.5005,3.5577,3.56,3.56,3.56,3.56,3.56,3.56,3.6282,3.6643,3.666,3.7398,3.7753,3.7787,3.8514,3.8853,3.8886,0.0,0.0,4.0078,4.1425,4.2493,4.3482,4.5459,4.6704,4.7398,4.7288,4.77,4.8214,4.7498,4.7718,4.8306,4.8306,4.8306,4.8306,4.8306,4.8306,4.8306,4.8306,4.8306,4.8306,4.8306,4.823,4.8172,4.8172,4.8114,4.7881,4.7258,4.6987,4.6913,4.7096,4.7273,4.742,4.742,4.6854,4.6177,4.5485,4.4934,4.4542,4.444,4.4542,4.4258,4.3377,4.2587,4.1783,4.0851,4.0616,4.0531,4.0531,4.098,4.0995,4.0427,4.0307,4.0008,3.9388,3.9388,3.9388,3.9388,3.9388,3.9388,3.9388,3.9388,3.8691,3.0164,2.7879,2.5051,2.2062,2.0584,1.9481,1.8146,1.8188,0.0,0.0,0.0,2.4804,2.7496,2.8955,0.0,3.1567,0.0,0.0,0.0,0.0,3.2912,0.0,0.0,0.0,0.0,0.0,0.0,0.0,0.0,3.547,3.56,3.56,3.56,3.56,3.56,3.56,3.56,3.5735,3.5825,3.5802,3.6603,3.6998,3.7032,3.7753,3.8091,3.8108,3.8227,0.0,3.93,4.0756,4.2132,4.3485,4.557,4.6784,4.747,4.7929,4.8196,4.8288,4.8141,4.8196,4.8306,4.8306,4.8306,4.8306,4.8306,4.8306,4.8306,4.8306,4.8306,4.8306,4.8306,4.7937,4.7551,4.7551,4.7132,4.6532,4.5828,4.5641,4.5615,4.5668,4.5778,4.5865,4.5865,4.5385,4.4912,4.4793,4.4682,4.4355,4.3621,4.415,4.4194,4.317,4.2927,4.2399,4.136,4.1243,4.1205,4.1205,4.0816,4.0516,4.0397,3.9873,3.9508,3.9388,3.9388,3.9388,3.9388,3.9388,3.9388,3.9388,3.9388,3.8691,2.8625,2.5828,2.2326,2.011,1.9038,1.7983,1.6079,0.0,0.0,0.0,0.0,2.2082,2.4431,0.0,0.0,0.0,0.0,0.0,0.0,0.0,0.0,0.0,0.0,0.0,0.0,0.0,0.0,0.0,0.0,3.56,3.56,3.56,3.56,3.56,3.56,3.56,3.56,3.56,3.56,3.56,3.5994,3.618,3.6197,3.6975,3.733,3.7347,3.7736,0.0,3.8548,4.0037,4.121,4.2263,4.4082,4.5382,4.6274,4.6993,4.7452,4.7736,4.8159,4.8306,4.8306,4.8306,4.8306,4.8306,4.8306,4.8306,4.8306,4.8306,4.8306,4.823,4.7917,4.7614,4.7302,4.6955,4.6106,4.5133,4.4284,4.3915,4.3826,4.4141,4.4309,4.4546,4.4939,4.4786,4.4615,4.4615,4.4615,4.4404,4.3894,4.4185,4.3941,4.2639,4.2382,4.2131,4.1595,4.1776,4.1931,4.1931,4.1632,4.1265,4.092,4.0277,3.9768,3.9388,3.9388,3.9388,3.9388,3.9388,3.9388,3.9388,3.9388,3.8886,2.6808,2.4218,2.0859,1.8951,1.8354,1.7482,1.4713,1.4936,0.0,0.0,0.0,1.9799,2.2109,0.0,0.0,0.0,0.0,0.0,0.0,0.0,0.0,0.0,0.0,0.0,0.0,0.0,0.0,0.0,0.0,0.0,3.5616,3.56,3.56,3.56,3.5752,3.5853,3.5853,3.5853,3.5853,3.5853,3.5667,3.56,3.5616,3.6248,3.6535,3.6569,3.733,0.0,0.0,3.9487,4.0463,4.1183,4.2705,4.3966,4.497,4.5763,4.6379,4.6929,4.7572,4.7792,4.7773,4.7659,4.7936,4.8306,4.8306,4.8306,4.8306,4.8306,4.821,4.7961,4.7313,4.6964,4.6556,4.571,4.4602,4.3511,4.2777,4.2305,4.2191,4.2669,4.2969,4.342,4.4198,4.4333,4.4412,4.4581,4.444,4.4244,4.4061,4.386,4.3267,4.2001,4.2037,4.2052,4.1889,4.2183,4.2396,4.2396,4.2126,4.1752,4.119,4.0531,3.9948,3.9388,3.9388,3.9388,3.9388,3.9388,3.9388,3.9388,3.9388,3.905,2.3745,2.2666,2.1221,1.8204,1.8167,1.8072,1.4831,0.0,0.0,0.0,1.7359,1.8439,2.1507,0.0,0.0,0.0,0.0,3.0886,0.0,0.0,0.0,0.0,0.0,0.0,0.0,0.0,0.0,0.0,0.0,0.0,3.5667,3.56,3.56,3.56,3.6299,3.6694,3.6694,3.6694,3.6694,3.6694,3.596,3.56,3.56,3.5667,3.5701,3.5752,3.6552,0.0,0.0,3.9487,4.0536,4.1308,4.2758,4.3664,4.4285,4.4949,4.5562,4.6012,4.6085,4.6122,4.603,4.5555,4.6713,4.8306,4.8306,4.8306,4.8306,4.8306,4.7917,4.7325,4.6581,4.5541,4.4331,4.3004,4.2072,4.1486,4.1384,4.1315,4.1331,4.1366,4.1933,4.2642,4.3375,4.3494,4.3775,4.4496,4.3948,4.334,4.3153,4.2435,4.182,4.1489,4.2705,4.3214,4.2393,4.2374,4.2396,4.2396,4.125,4.0546,4.0487,3.9858,3.9448,3.9388,3.9388,3.9388,3.9388,3.9388,3.9388,3.9388,3.9388,3.905,2.2938,2.1573,1.9875,1.863,1.8149,1.7464,1.5504,0.0,0.0,1.6396,1.7415,1.87,1.9953,2.2191,2.4294,2.5702,2.8733,0.0,0.0,0.0,0.0,0.0,0.0,0.0,0.0,0.0,0.0,0.0,0.0,0.0,3.7026,3.6969,3.6969,3.6969,3.7297,3.7246,3.6795,3.6795,3.6575,3.6079,3.5752,3.56,3.5616,3.6096,3.6315,3.6332,3.666,0.0,0.0,3.8548,3.9208,3.9977,4.0974,4.1712,4.2275,4.3062,4.37,4.4214,4.47,4.488,4.4839,4.4632,4.5147,4.59,4.6243,4.6361,4.6361,4.6361,4.5938,4.5316,4.4655,4.3823,4.2876,4.1891,4.1407,4.1085,4.0629,4.0527,4.0663,4.1119,4.1441,4.2016,4.3189,4.3392,4.3507,4.3773,4.3532,4.3161,4.2874,4.2525,4.2211,4.2008,4.2561,4.2622,4.1841,4.2171,4.2231,4.1826,4.0905,4.0397,4.0397,3.9768,3.9388,3.9388,3.9388,3.9388,3.9388,3.9388,3.9388,3.9388,3.9388,3.9275,2.2063,2.0869,1.9323,1.8678,1.839,1.7811,0.0,0.0,0.0,1.6838,1.794,1.9116,1.9402,2.1448,2.346,2.4723,2.7919,3.028,3.0355,0.0,0.0,0.0,0.0,0.0,0.0,0.0,0.0,0.0,0.0,0.0,0.0,3.8548,3.8244,3.7601,3.8007,3.777,3.6812,3.7032,3.6721,3.596,3.596,3.596,3.5994,3.6755,3.7134,3.7151,0.0,0.0,0.0,3.8464,3.8853,3.9377,3.991,4.0441,4.0972,4.1585,4.2176,4.2739,4.3288,4.3505,4.3461,4.3288,4.3332,4.3549,4.3786,4.4298,4.4818,4.4818,4.4235,4.3453,4.2839,4.2151,4.1534,4.1001,4.0865,4.073,4.0214,4.0096,4.0265,4.0764,4.0865,4.1271,4.2513,4.2739,4.2757,4.2937,4.2717,4.251,4.2408,4.2186,4.2041,4.2113,4.2111,4.1916,4.1452,4.1662,4.1632,4.1115,4.0472,4.0113,4.0113,3.9664,3.9388,3.9388,3.9388,3.9388,3.9388,3.9388,3.9388,3.9388,3.9388,3.9388,2.0709,2.0605,2.0079,1.7859,1.8948,1.9708,0.0,0.0,0.0,1.8957,1.8997,1.9323,2.0401,2.1375,2.2515,2.4062,2.67,2.8846,2.969,0.0,0.0,0.0,0.0,0.0,0.0,0.0,0.0,0.0,0.0,0.0,0.0,4.0079,3.908,3.688,3.8234,3.8278,3.6812,3.7516,3.7516,3.6795,3.6795,3.6795,3.6812,3.755,3.7889,0.0,0.0,0.0,0.0,3.9791,4.0079,4.0096,4.0096,4.0441,4.0903,4.0903,4.1291,4.181,4.1828,4.1828,4.1721,4.1127,4.1331,4.1703,4.1127,4.2472,4.4201,4.4201,4.326,4.2078,4.141,4.0688,4.013,4.0113,4.0113,4.0113,4.0096,4.0096,4.0096,4.0113,4.0113,4.0367,4.1085,4.1116,4.1288,4.2104,4.1342,4.0988,4.1632,4.0952,4.0666,4.1324,4.1384,4.1384,4.1422,4.0786,4.0412,4.0412,3.9783,3.9388,3.9388,3.9388,3.9388,3.9388,3.9388,3.9388,3.9388,3.9388,3.9388,3.9388,3.9388,3.9388,2.0565,2.0605,2.044,1.9717,1.952,1.9234,1.8181,0.0,0.0,1.8997,1.9559,2.0206,2.0527,2.1375,2.2621,2.4596,2.7307,2.9462,0.0,0.0,0.0,0.0,0.0,0.0,0.0,0.0,0.0,0.0,0.0,0.0,0.0,3.9622,3.9022,3.8335,3.8751,3.8531,3.755,3.7787,3.7787,3.755,3.755,3.755,3.7584,3.8311,0.0,0.0,0.0,0.0,0.0,3.9469,3.9656,4.0096,4.0096,4.0204,4.0343,4.0343,4.0466,4.0642,4.0642,4.0642,4.0618,4.0417,4.049,4.0594,4.0417,4.1101,4.1888,4.1498,4.1087,4.0711,4.0502,4.0282,4.0096,4.0096,4.0096,4.0096,4.0096,3.9662,3.9289,3.9289,3.887,3.877,3.9516,3.9985,4.0309,4.0484,4.0608,4.0713,4.0788,4.0566,4.0651,4.1347,4.098,4.0711,4.0711,4.0516,4.0202,3.9768,3.9529,3.9388,3.9388,3.9388,3.9388,3.9388,3.9388,3.9388,3.9388,3.9388,3.9388,3.9388,3.9388,3.9388,2.0537,2.0605,2.0489,2.0079,1.9805,0.0,0.0,0.0,1.9599,1.9599,2.0118,2.0605,2.0605,2.1375,2.2557,2.4267,2.6911,2.912,0.0,0.0,0.0,0.0,0.0,0.0,0.0,0.0,0.0,0.0,0.0,0.0,0.0,3.9673,3.9276,3.9005,3.9259,3.892,3.7922,3.8176,3.8176,3.7905,3.8176,3.8328,3.8345,3.9073,0.0,0.0,0.0,0.0,0.0,3.9605,3.969,4.0096,4.0096,4.0096,4.0096,4.0096,4.0096,4.0096,4.0096,4.0096,4.0096,4.0096,4.0096,4.0096,4.0096,4.0336,4.0546,4.0179,4.0096,4.0096,4.0096,4.0096,4.0096,4.0096,3.9876,3.9636,3.9636,3.9049,3.8469,3.8469,3.8104,3.795,3.8411,3.9004,3.9393,3.9299,3.9813,4.0162,4.0036,4.0023,4.0187,4.0591,4.0277,4.0023,4.0023,4.0023,3.9858,3.9454,3.9388,3.9388,3.9388,3.9388,3.9388,3.9388,3.9388,3.9388,3.9388,3.9388,3.9388,3.9388,3.9388,3.9388,0.0,2.0605,2.0362,1.9362,1.9855,2.0275,1.9277,1.9817,0.0,2.0507,2.0546,2.0594,2.0663,2.1369,2.2376,2.3475,2.5837,0.0,0.0,0.0,0.0,0.0,0.0,0.0,0.0,0.0,0.0,0.0,0.0,0.0,0.0,4.0096,3.9791,3.9089,3.9757,3.9436,3.799,3.865,3.8684,3.8075,3.8751,3.9073,3.9089,3.9791,0.0,0.0,0.0,0.0,0.0,4.0096,4.0096,4.0096,4.0096,4.0096,4.0096,4.0096,4.0096,4.0096,4.0096,4.0096,4.0096,4.0096,4.0096,4.0096,4.0096,4.0096,4.0096,4.0096,4.0096,4.0096,4.0096,4.0096,4.007,4.002,3.9437,3.8881,3.8827,3.8246,3.7719,3.7719,3.7709,3.7711,3.7711,3.8185,3.8606,3.8606,3.9046,3.9388,3.9388,3.9388,3.9388,3.9388,3.9388,3.9388,3.9388,3.9388,3.9388,3.9388,3.9388,3.9388,3.9388,3.9388,3.9388,3.9388,3.9388,3.9388,3.9388,3.9388,3.9388,3.9388,3.9388,3.9388,2.0605,0.0,2.0527,2.0284,2.0149,1.9992,0.0,1.9664,1.9627,1.9627,2.0149,2.0715,2.1139,2.1581,2.2646,2.489,2.6606,2.8157,0.0,0.0,0.0,0.0,0.0,0.0,0.0,0.0,0.0,0.0,0.0,0.0,0.0,4.0096,4.0028,3.9859,4.0011,3.9673,3.8751,3.8903,3.9191,3.9605,3.9757,3.9842,3.9859,4.0028,0.0,0.0,0.0,0.0,4.0096,4.0096,4.0096,4.0096,4.0096,4.0096,4.0096,4.0096,4.0096,4.0096,4.0096,4.0096,4.0096,4.0096,4.0096,4.0096,4.0096,4.0096,4.0096,4.0096,4.0096,4.0096,4.0096,4.0096,3.9952,3.9342,3.9032,3.8745,3.8161,3.744,3.6873,3.6873,3.683,3.6829,3.6829,3.7725,3.845,3.845,3.8977,3.9388,3.9388,3.9388,3.9388,3.9388,3.9388,3.9388,3.9388,3.9388,3.9388,3.9388,3.9388,3.9388,3.9388,3.9388,3.9388,3.9388,3.9388,3.9388,3.9388,3.9388,3.9388,3.9388,3.9388,3.9388,2.0588,2.0597,2.0556,2.0312,2.0088,1.9863,1.9668,1.9763,1.9919,1.9919,2.0603,2.1396,2.2024,2.264,2.3718,0.0,2.7412,0.0,0.0,0.0,0.0,0.0,0.0,0.0,0.0,0.0,0.0,0.0,0.0,0.0,0.0,4.0096,4.0096,4.0096,4.0096,3.991,3.952,3.9495,3.9706,4.0096,4.0096,4.0096,4.0096,4.0096,4.0096,0.0,0.0,0.0,4.0096,4.0096,4.0096,4.0096,4.0096,4.0096,4.0096,4.0096,4.0096,4.0096,4.0096,4.0096,4.0096,4.0096,4.0096,4.0096,4.0096,4.0096,4.0096,4.0096,4.0096,4.002,3.9636,3.9542,3.9342,3.858,3.8117,3.7729,3.7322,3.6631,3.6086,3.6086,3.631,3.6492,3.6492,3.7554,3.8392,3.8392,3.8975,3.9388,3.9388,3.9388,3.9388,3.9388,3.9388,3.9388,3.9388,3.9388,3.9388,3.9388,3.9388,3.9388,3.9388,3.9388,3.9388,3.9388,3.9388,3.9388,3.9388,3.9388,3.9388,3.9388,3.9388,3.9388,2.0686,2.0814,2.0811,2.0324,2.0155,2.0015,1.9683,2.0093,2.0603,2.0603,2.1379,2.2273,2.2985,2.408,0.0,0.0,0.0,0.0,0.0,0.0,0.0,0.0,0.0,0.0,0.0,0.0,0.0,0.0,0.0,0.0,0.0,4.0096,4.0096,4.0096,4.0096,4.0096,4.0096,4.0096,4.0096,4.0096,4.0096,4.0096,4.0096,4.0096,4.0096,0.0,0.0,0.0,4.0096,4.0096,4.0028,3.9943,3.9943,3.9943,3.9943,3.9943,4.0011,4.0096,4.0096,4.0096,4.0096,4.0096,4.0096,4.0096,4.0096,4.0096,4.007,3.9952,4.002,3.9927,3.9113,3.8908,3.869,3.7819,3.71,3.6584,3.6477,3.5943,3.5534,3.5639,3.6193,3.6656,3.6761,3.7764,3.8542,3.8542,3.905,3.9388,3.9388,3.9388,3.9388,3.9388,3.9388,3.9388,3.9388,3.9388,3.9388,3.9388,3.9388,3.9388,3.9388,3.9388,3.9388,3.9388,3.9388,3.9388,3.9388,3.9388,3.9388,3.9388,3.9388,3.9388,2.1146,2.1829,2.2251,2.1723,2.1297,2.097,2.0938,2.0743,2.0587,2.0587,2.178,2.301,2.3561,2.5445,2.7315,0.0,0.0,0.0,0.0,0.0,0.0,0.0,0.0,0.0,0.0,0.0,0.0,0.0,0.0,0.0,0.0,4.0096,4.0096,4.0096,4.0096,4.0096,4.0096,4.0096,4.0096,4.0096,4.0096,4.0096,4.0096,4.0096,4.0096,4.0096,0.0,4.0096,4.0096,4.0096,3.974,3.9157,3.9157,3.9157,3.9157,3.9157,3.9571,4.0096,4.0096,4.0096,4.0096,4.0096,4.0096,4.0096,4.0096,4.0096,3.9952,3.9289,3.9568,3.9927,3.9113,3.8908,3.8536,3.7128,3.6691,3.6446,3.5814,3.5587,3.5669,3.6237,3.6836,3.7449,3.8003,3.8736,3.926,3.926,3.9313,3.9388,3.9388,3.9388,3.9388,3.9388,3.9388,3.9388,3.9388,3.9388,3.9388,3.9388,3.9388,3.9388,3.9388,3.9388,3.9388,3.9388,3.9388,3.9388,3.9388,3.9388,3.9388,3.9388,3.9388,3.9388,2.09,2.2232,2.3577,2.3654,2.2887,2.2047,2.1812,2.1944,2.2194,2.2313,2.3281,2.4459,2.5562,0.0,2.937,3.1757,0.0,0.0,0.0,0.0,0.0,0.0,0.0,0.0,0.0,0.0,0.0,0.0,0.0,0.0,0.0,0.0,4.0096,4.0096,4.0096,4.0096,4.0096,4.0096,4.0096,4.0096,4.0096,4.0096,4.0096,3.969,3.952,3.9486,0.0,3.8903,3.8903,3.8903,3.87,3.8413,3.8413,3.8413,3.8413,3.8413,3.8616,3.8903,3.8903,3.9157,3.952,3.952,3.9791,4.002,3.9568,3.9463,3.9289,3.8525,3.887,3.9166,3.7958,3.7671,3.7395,3.6259,3.6006,3.5911,3.5554,3.5504,3.5594,3.5893,3.6746,3.7509,3.7808,3.8736,3.9388,3.9388,3.9388,3.9388,3.9388,3.9388,3.9388,3.9388,3.9388,3.9388,3.9388,3.9388,3.9388,3.9388,3.9388,3.9388,3.9388,3.9388,3.9388,3.9388,3.9388,3.9388,3.9388,3.9864,4.0115,4.0115,4.0115,4.0115,2.0994,2.2764,2.4596,2.5021,2.4317,2.3487,2.3409,2.3794,2.4247,2.4564,2.5404,2.6419,2.7451,2.9078,0.0,3.4043,0.0,0.0,0.0,0.0,0.0,0.0,0.0,0.0,0.0,0.0,0.0,0.0,0.0,0.0,0.0,0.0,4.0096,4.0096,3.9943,3.9842,3.9842,3.9673,3.9757,4.0096,3.9926,3.9842,3.9825,3.9073,3.8734,3.87,3.8159,3.7905,3.7905,3.7905,3.7804,3.7652,3.7652,3.7652,3.7669,3.7838,3.7905,3.7905,3.7905,3.8379,3.8988,3.8988,3.9362,3.9688,3.9086,3.8772,3.8497,3.7732,3.7933,3.8101,3.6904,3.6615,3.6415,3.5668,3.5504,3.5504,3.5504,3.5504,3.5549,3.5699,3.6522,3.7285,3.7584,3.8497,3.923,3.9394,3.9388,3.9388,3.9388,3.9388,3.9388,3.9388,3.9388,3.9388,3.9388,3.9388,3.9388,3.9388,3.9388,3.9388,3.9388,3.9388,3.9388,3.9388,3.9388,3.9388,3.9388,4.0274,4.069,4.0709,4.0912,4.1013,2.2204,2.3779,2.5037,2.493,2.5061,2.5528,2.6683,2.6548,2.6344,2.6913,2.8133,2.8914,0.0,3.0512,3.2584,0.0,0.0,0.0,0.0,0.0,0.0,0.0,0.0,0.0,0.0,0.0,0.0,0.0,0.0,0.0,0.0,0.0,0.0,4.0096,3.9453,3.9073,3.9073,3.8396,3.8751,4.0096,3.9419,3.9073,3.9039,3.8328,3.799,3.799,3.7922,3.7905,3.7905,3.7905,3.7499,3.688,3.688,3.688,3.6965,3.7652,3.7905,3.7905,3.7905,3.8379,3.8988,3.8988,3.8999,3.8962,3.8908,3.8414,3.7719,3.6904,3.6722,3.6752,3.663,3.6615,3.6415,3.5668,3.5504,3.5504,3.5504,3.5504,3.5684,3.6297,3.6492,3.6926,3.8108,3.8407,3.8676,3.9334,3.9388,3.9388,3.9388,3.9388,3.9388,3.9388,3.9388,3.9388,3.9388,3.9388,3.9388,3.9388,3.9388,3.9388,3.9388,3.9388,3.9388,3.9388,3.9388,3.9388,3.9388,4.0274,4.069,4.0724,4.1543,4.1901,2.1493,2.3095,2.4726,2.5163,2.6217,2.7262,2.765,2.758,2.773,2.8916,2.9602,3.0294,0.0,0.0,0.0,0.0,0.0,0.0,0.0,0.0,0.0,0.0,0.0,0.0,0.0,0.0,0.0,0.0,0.0,0.0,0.0,0.0,0.0,3.9436,3.87,3.8328,3.8328,3.8041,3.8176,3.8717,3.8447,3.8328,3.8294,3.755,3.7235,3.7178,3.6705,3.6462,3.6462,3.6462,3.6293,3.6062,3.6062,3.6062,3.6096,3.636,3.6219,3.5854,3.5854,3.6075,3.6381,3.6797,3.7232,3.7591,3.7485,3.7277,3.6889,3.6117,3.5926,3.5926,3.5926,3.5926,3.5846,3.5569,3.5504,3.5504,3.5504,3.5504,3.5579,3.5833,3.6207,3.6641,3.7135,3.7868,3.8482,3.8736,3.914,3.9388,3.9388,3.9388,3.9388,3.9388,3.9388,3.9388,3.9388,3.9388,3.9388,3.9388,3.9388,3.9388,3.9388,3.9388,3.9388,3.9388,3.9388,3.9681,4.022,4.108,4.1804,4.2316,4.2645,4.2816,2.1697,2.3192,2.486,2.5631,2.7097,2.8532,2.9291,2.9479,2.9871,3.1394,3.1667,3.2096,3.3577,0.0,0.0,0.0,0.0,0.0,0.0,0.0,0.0,0.0,0.0,0.0,0.0,0.0,0.0,0.0,0.0,0.0,0.0,0.0,0.0,0.0,3.7939,3.755,3.755,3.7313,3.7155,3.7155,3.7155,3.7313,3.7533,3.6755,3.6417,3.6383,3.5836,3.56,3.56,3.56,3.56,3.5577,3.5362,3.5276,3.5276,3.5276,3.4871,3.4309,3.4528,3.4633,3.4792,3.547,3.6035,3.6447,3.6565,3.6446,3.6134,3.5636,3.5504,3.5504,3.5504,3.5504,3.5504,3.5504,3.5504,3.5504,3.5504,3.5504,3.5504,3.5504,3.5863,3.6297,3.6701,3.7509,3.8227,3.8646,3.9125,3.9388,3.9388,3.923,3.9095,3.9095,3.9095,3.9185,3.9394,3.9388,3.9388,3.9388,3.9388,3.9388,3.9388,3.9388,3.9388,3.9388,3.9388,3.9829,4.069,4.1354,4.2087,4.296,4.2965,4.2983,2.3147,2.4418,2.5664,2.6337,2.759,2.9346,3.2111,3.2671,3.2976,3.4402,3.4641,3.4546,3.4436,0.0,0.0,0.0,0.0,0.0,0.0,0.0,0.0,0.0,0.0,0.0,0.0,0.0,0.0,0.0,0.0,0.0,0.0,0.0,0.0,0.0,3.7161,3.6795,3.6795,3.5988,3.56,3.56,3.56,3.6005,3.6761,3.596,3.56,3.56,3.56,3.56,3.56,3.56,3.56,3.5515,3.4871,3.4616,3.4576,3.4576,3.4161,3.3684,3.4358,3.4633,3.4792,3.547,3.5625,3.5716,3.6368,3.6086,3.5504,3.5504,3.5504,3.5504,3.5504,3.5504,3.5504,3.5504,3.5504,3.5504,3.5504,3.5504,3.5504,3.5504,3.5504,3.5908,3.7165,3.7404,3.7853,3.92,3.9373,3.9388,3.9373,3.8811,3.8392,3.8392,3.8392,3.8661,3.9328,3.9388,3.9388,3.9388,3.9388,3.9388,3.9388,3.9388,3.9388,3.9373,3.9373,3.9814,4.0693,4.0815,4.1329,4.2215,4.2282,4.2286,2.2167,2.3756,2.5758,2.7073,2.9327,3.1873,3.4374,3.3322,3.2215,3.3578,3.4256,3.4558,3.4486,0.0,0.0,0.0,0.0,0.0,0.0,0.0,0.0,0.0,0.0,0.0,0.0,0.0,0.0,0.0,0.0,0.0,0.0,0.0,0.0,0.0,3.6654,3.596,3.596,3.5261,3.5121,3.56,3.5121,3.5278,3.596,3.5701,3.56,3.56,3.56,3.5339,3.4894,3.4894,3.4894,3.4894,3.4688,3.4309,3.3887,3.3887,3.3453,3.2922,3.3103,3.2858,3.2649,3.378,3.4151,3.4333,3.5483,3.5668,3.5504,3.5504,3.5504,3.5504,3.5504,3.5504,3.5504,3.5504,3.5504,3.5504,3.5504,3.5504,3.5504,3.5504,3.5504,3.5624,3.6013,3.6821,3.7539,3.7943,3.8811,3.9245,3.8751,3.8512,3.8392,3.8392,3.8392,3.8661,3.9328,3.9388,3.9388,3.9388,3.9388,3.9388,3.9388,3.9388,3.9185,3.8706,3.8691,3.9169,4.0135,4.0178,4.0899,4.2265,4.2307,4.2286,2.3452,2.5303,2.7527,2.9291,3.1554,3.3761,3.5411,3.4892,0.0,0.0,3.5154,3.5349,3.4997,0.0,0.0,0.0,0.0,0.0,0.0,0.0,0.0,0.0,0.0,0.0,0.0,0.0,0.0,0.0,0.0,0.0,0.0,0.0,0.0,0.0,3.6001,3.5207,3.5207,3.4544,3.4544,3.5207,3.4783,3.4807,3.5207,3.547,3.5453,3.5184,3.4934,3.4568,3.4211,3.4211,3.4211,3.4186,3.3912,3.3556,3.3182,3.3182,3.2761,3.2188,3.2492,3.212,3.172,3.3066,3.3499,3.3739,3.51,3.5504,3.5504,3.5504,3.5504,3.5504,3.5504,3.5504,3.5504,3.5504,3.5504,3.5504,3.5504,3.5504,3.5504,3.5504,3.5504,3.5594,3.5848,3.6522,3.721,3.7719,3.8721,3.908,3.8123,3.8003,3.8003,3.8003,3.8003,3.8377,3.9298,3.917,3.9005,3.9005,3.8766,3.8736,3.899,3.9275,3.8975,3.8018,3.8257,3.8877,3.9916,3.9614,4.0283,4.1863,4.1542,4.1433,2.6012,2.8157,3.0364,3.2393,3.4145,3.5452,3.5745,3.6884,3.7612,3.6696,0.0,0.0,0.0,0.0,0.0,0.0,0.0,0.0,0.0,0.0,0.0,0.0,0.0,0.0,0.0,0.0,0.0,0.0,0.0,0.0,0.0,0.0,0.0,3.6719,3.534,3.4576,3.4503,3.3836,3.3836,0.0,3.4455,3.4455,3.4528,3.5207,3.5144,3.4479,3.3811,3.3531,3.3598,3.3531,3.3521,3.3443,3.2841,3.2574,3.2492,3.2492,3.2064,3.1582,3.2272,3.2109,3.1795,3.308,3.3529,3.3829,3.5115,3.5504,3.5504,3.5504,3.5504,3.5504,3.5504,3.5504,3.5504,3.5504,3.5504,3.5504,3.5504,3.5504,3.5504,3.5504,3.5504,3.5684,3.6297,3.6447,3.6911,3.8197,3.8931,3.8841,3.7494,3.7375,3.736,3.724,3.7285,3.7868,3.9215,3.8691,3.8317,3.8392,3.7778,3.7674,3.8272,3.896,3.8756,3.7522,3.8127,3.8888,3.9814,3.9129,3.9605,4.1085,4.0417,4.0096,2.5529,2.8488,3.1768,3.3831,3.6682,3.8704,3.7662,3.7669,3.7334,3.5374,0.0,0.0,0.0,0.0,0.0,0.0,0.0,0.0,0.0,0.0,0.0,0.0,0.0,0.0,0.0,0.0,0.0,0.0,0.0,0.0,0.0,0.0,0.0,3.5975,3.5068,3.4358,3.3811,3.3145,3.3145,0.0,3.3287,3.3313,3.3836,3.452,3.4431,3.3786,3.3119,3.3119,3.3556,3.3039,3.2815,3.2788,3.2641,3.2244,3.1754,3.1754,3.164,3.1524,3.1682,3.197,3.2407,3.3245,3.3874,3.4459,3.525,3.5504,3.5504,3.5504,3.5504,3.5504,3.5504,3.5504,3.5504,3.5504,3.5504,3.5504,3.5504,3.5504,3.5504,3.5504,3.5504,3.5549,3.5684,3.6148,3.6911,3.8197,3.8512,3.8138,3.6851,3.7105,3.703,3.6028,3.6372,3.721,3.8497,3.8003,3.7838,3.8362,3.7778,3.7464,3.7614,3.8257,3.8525,3.8348,3.8471,3.8733,3.9121,3.8974,3.9388,4.0333,4.018,4.0096,2.5933,2.9372,3.3109,3.6474,3.8463,3.9276,3.8159,3.7635,3.6924,3.5351,0.0,0.0,0.0,0.0,0.0,0.0,0.0,0.0,0.0,0.0,0.0,0.0,0.0,0.0,0.0,0.0,0.0,0.0,0.0,0.0,0.0,3.7976,3.687,3.5737,3.436,3.3453,3.3103,3.2422,3.2422,3.3119,3.2776,3.2761,3.3145,3.3495,3.3469,3.3093,3.2367,3.2256,3.2571,3.2216,3.2064,3.2064,3.2064,3.1853,3.1511,3.1511,3.1511,3.1511,3.1511,3.1929,3.2617,3.3275,3.3933,3.4638,3.5295,3.5504,3.5504,3.5504,3.5504,3.5504,3.5504,3.5504,3.5504,3.5504,3.5504,3.5504,3.5504,3.5504,3.5504,3.5504,3.5504,3.5504,3.5504,3.6058,3.6716,3.7375,3.7734,3.7464,3.6178,3.6582,3.6582,3.5609,3.6088,3.7,3.8287,3.7509,3.724,3.7883,3.703,3.6641,3.6956,3.7646,3.8063,3.8116,3.8842,3.9122,3.8908,3.8908,3.9315,4.0096,4.0096,4.0096,2.5907,2.9817,3.3942,3.8397,3.915,0.0,3.7872,3.7229,3.6552,0.0,0.0,0.0,0.0,0.0,0.0,0.0,0.0,0.0,0.0,0.0,0.0,0.0,0.0,0.0,0.0,0.0,0.0,0.0,0.0,0.0,3.9039,3.7611,3.6404,3.5546,3.3615,3.2532,3.241,3.1796,3.1796,3.241,3.241,3.241,3.241,3.241,3.241,3.2382,3.1768,3.1511,3.1511,3.1511,3.1511,3.1511,3.1511,3.1511,3.1511,3.1511,3.1511,3.1511,3.1511,3.2004,3.2766,3.332,3.4023,3.4788,3.5325,3.5504,3.5504,3.5504,3.5504,3.5504,3.5504,3.5504,3.5504,3.5504,3.5504,3.5504,3.5504,3.5504,3.5504,3.5504,3.5504,3.5504,3.5504,3.5953,3.6357,3.6477,3.6926,3.6791,3.5489,3.5908,3.6028,3.5235,3.5744,3.6671,3.7943,3.6985,3.6582,3.721,3.616,3.5804,3.6466,3.7341,3.7824,3.7809,3.9191,3.9657,3.9113,3.9113,3.9463,4.0096,4.0096,4.0096,2.3475,2.8338,3.3444,3.6488,3.7652,3.7855,0.0,0.0,0.0,0.0,0.0,0.0,0.0,0.0,0.0,0.0,0.0,0.0,0.0,0.0,0.0,0.0,0.0,0.0,0.0,0.0,0.0,0.0,0.0,0.0,3.9039,3.7611,3.62,3.488,3.339,3.2299,3.1668,3.1553,3.1553,3.164,3.164,3.164,3.164,3.164,3.164,3.164,3.1524,3.1511,3.1511,3.1511,3.1511,3.1511,3.1511,3.1511,3.1511,3.1511,3.1511,3.1511,3.1511,3.2303,3.338,3.3469,3.4352,3.5385,3.5474,3.5504,3.5504,3.5504,3.5504,3.5504,3.5504,3.5504,3.5504,3.5504,3.5504,3.5504,3.5504,3.5504,3.5504,3.5504,3.5504,3.5504,3.5504,3.5579,3.5833,3.6402,3.6552,3.6133,3.4786,3.522,3.516,3.3903,3.4352,3.5312,3.6626,3.6073,3.5923,3.6567,3.5916,3.5815,3.6476,3.7931,3.8711,3.8644,3.9486,3.9913,3.9927,3.9927,3.9978,4.0096,4.0096,4.0096,2.3534,2.7912,3.1927,3.5279,3.6388,3.6683,3.677,0.0,0.0,0.0,0.0,0.0,0.0,0.0,0.0,0.0,0.0,0.0,0.0,0.0,0.0,0.0,0.0,0.0,0.0,0.0,0.0,0.0,0.0,3.9791,3.9039,3.7239,3.5758,3.4723,3.2927,3.1824,3.1511,3.1511,3.1511,3.1511,3.1511,3.1511,3.1511,3.1511,3.1511,3.1511,3.1511,3.1511,3.1511,3.1511,3.1511,3.1511,3.1511,3.1511,3.1511,3.1511,3.1511,3.1511,3.1511,3.2392,3.3499,3.3499,3.4412,3.5504,3.5504,3.5504,3.5504,3.5504,3.5504,3.5504,3.5504,3.5504,3.5504,3.5504,3.5504,3.5504,3.5504,3.5504,3.5504,3.5504,3.5504,3.5504,3.5504,3.5504,3.5609,3.5893,3.5609,3.5043,3.4038,3.4517,3.4562,3.3604,3.4114,3.5058,3.6405,3.5534,3.5565,3.7016,3.6492,3.6457,3.7189,3.8286,3.8881,3.887,4.002,4.0443,4.0096,4.0096,4.0096,4.0096,4.0096,4.0096,2.2497,2.6094,2.9083,3.2909,3.4392,3.5164,0.0,0.0,0.0,0.0,0.0,0.0,0.0,0.0,0.0,0.0,0.0,0.0,0.0,0.0,0.0,0.0,0.0,0.0,0.0,0.0,0.0,0.0,0.0,3.9699,3.8782,3.6859,3.5385,3.4457,3.2525,3.1511,3.1511,3.1511,3.1511,3.1511,3.1511,3.1511,3.1511,3.1511,3.1511,3.1511,3.1511,3.1511,3.1511,3.1511,3.1511,3.1511,3.1511,3.1511,3.1511,3.1511,3.1511,3.1525,3.1705,3.2512,3.3529,3.3694,3.4547,3.5504,3.5504,3.5504,3.5504,3.5504,3.5504,3.5504,3.5504,3.5504,3.5504,3.5504,3.5504,3.5504,3.5504,3.5504,3.5504,3.5504,3.5504,3.5504,3.5504,3.5504,3.5504,3.5504,3.4921,3.4279,3.3589,3.3784,3.3858,3.3529,3.3933,3.4771,3.6118,3.516,3.5301,3.7234,3.655,3.6603,3.7746,3.8345,3.8745,3.8927,4.0236,4.0646,4.0096,4.0096,4.0096,4.0096,4.0096,4.0096,1.8578,2.1424,0.0,2.8171,3.0967,3.3098,0.0,0.0,0.0,0.0,0.0,0.0,0.0,0.0,0.0,0.0,0.0,0.0,0.0,0.0,0.0,0.0,0.0,0.0,0.0,0.0,0.0,0.0,0.0,3.9505,3.8136,3.662,3.5168,3.3789,3.23,3.1511,3.1511,3.1511,3.1511,3.1511,3.1511,3.1511,3.1511,3.1511,3.1511,3.1511,3.1511,3.1511,3.1511,3.1511,3.1511,3.1511,3.1511,3.1511,3.1511,3.1511,3.1511,3.1585,3.2213,3.2916,3.3589,3.4249,3.4921,3.5504,3.5504,3.5504,3.5504,3.5504,3.5504,3.5504,3.5504,3.5504,3.5504,3.5504,3.5504,3.5504,3.5504,3.5504,3.5504,3.5504,3.5504,3.5504,3.5504,3.5504,3.5504,3.5504,3.4921,3.4279,3.3589,3.2976,3.2841,3.344,3.3529,3.4083,3.5444,3.4923,3.512,3.6554,3.5433,3.5648,3.7705,3.7886,3.828,3.8973,3.9766,4.0146,4.0096,4.0096,4.0096,4.0096,4.0096,4.0096,1.5312,1.7643,0.0,2.4453,2.7524,3.0247,0.0,0.0,0.0,0.0,0.0,0.0,0.0,0.0,0.0,0.0,0.0,0.0,0.0,0.0,0.0,0.0,0.0,0.0,0.0,0.0,0.0,0.0,0.0,0.0,3.8642,3.681,3.5347,3.4374,3.2499,3.1511,3.1511,3.1511,3.1511,3.1511,3.1511,3.1511,3.1511,3.1511,3.1511,3.1511,3.1511,3.1219,3.0777,3.1278,3.119,3.0777,3.1307,3.1511,3.1511,3.1511,3.1511,3.16,3.2258,3.2946,3.3604,3.4294,3.4936,3.5504,3.5504,3.5504,3.5504,3.5504,3.5504,3.5504,3.5504,3.5504,3.5504,3.5504,3.5504,3.5504,3.5504,3.5504,3.5504,3.5504,3.5504,3.5504,3.5504,3.5504,3.5355,3.4906,3.4277,3.3769,3.3529,3.2916,3.2766,3.3425,3.3499,3.3858,3.4771,3.4233,3.4653,3.6553,3.5816,3.6074,3.7794,3.7879,3.8024,3.8294,3.8548,3.914,4.0096,4.0096,4.0096,4.0096,4.0096,4.0096,1.2948,1.4707,1.7,0.0,0.0,2.6832,0.0,0.0,0.0,0.0,0.0,0.0,0.0,0.0,0.0,0.0,0.0,0.0,0.0,0.0,0.0,0.0,0.0,0.0,0.0,0.0,0.0,0.0,0.0,0.0,3.8635,3.6804,3.5114,3.3666,3.2235,3.1511,3.1511,3.1511,3.1511,3.1511,3.1511,3.1511,3.1511,3.1511,3.1511,3.1467,3.1219,3.097,3.0748,3.1278,3.1029,3.0389,3.119,3.1322,3.1146,3.1647,3.1839,3.1959,3.2871,3.327,3.3543,3.4511,3.4907,3.4986,3.4986,3.4986,3.4986,3.4986,3.4986,3.5067,3.5392,3.5504,3.5504,3.5504,3.5504,3.5504,3.5504,3.5504,3.5504,3.5504,3.5504,3.5504,3.5504,3.531,3.4996,3.4578,3.3724,3.3245,3.3469,3.2916,3.2766,3.3425,3.3499,3.3664,3.4144,3.3544,3.4087,3.6238,3.5742,3.6248,3.8195,3.8041,3.8024,3.8261,3.8041,3.8497,3.974,3.974,3.9859,4.0096,4.0096,4.0096,0.0,0.0,0.0,0.0,0.0,0.0,0.0,0.0,0.0,0.0,0.0,0.0,0.0,0.0,0.0,0.0,0.0,0.0,0.0,0.0,0.0,0.0,0.0,0.0,0.0,0.0,0.0,0.0,0.0,3.9504,3.8023,3.6545,3.4411,3.1598,3.1511,3.1511,3.1511,3.1511,3.1511,3.1511,3.1511,3.1511,3.1511,3.1511,3.1511,3.1409,3.0644,3.0748,3.1438,3.1438,3.0999,3.0329,3.1161,3.0999,3.0476,3.1916,3.2452,3.2676,3.4023,3.39,3.3415,3.4973,3.4839,3.4027,3.4027,3.4027,3.4027,3.4027,3.4027,3.4279,3.5246,3.5504,3.5504,3.5504,3.5504,3.5504,3.5504,3.5504,3.5504,3.5504,3.5504,3.5504,3.5504,3.4936,3.4503,3.4474,3.335,3.2751,3.341,3.2916,3.2766,3.3425,3.3499,3.3484,3.3469,3.2871,3.3429,3.5548,3.5091,3.599,3.8821,3.8261,3.821,3.8937,3.8244,3.8244,3.8988,3.8988,3.9377,4.0096,4.0096,4.0096,1.0399,0.0,0.0,0.0,0.0,0.0,0.0,0.0,0.0,0.0,0.0,0.0,0.0,0.0,0.0,0.0,0.0,0.0,0.0,0.0,0.0,0.0,0.0,0.0,0.0,0.0,0.0,0.0,4.1914,4.0788,3.872,3.577,3.3332,3.1569,3.1511,3.1511,3.1511,3.1511,3.1511,3.1511,3.1511,3.1511,3.1511,3.1511,3.119,3.0614,3.0389,3.0072,2.9735,3.0359,3.0133,2.9442,3.0299,3.0494,3.0401,3.1237,3.1562,3.1844,3.3806,3.4345,3.4258,3.5215,3.5326,3.51,3.51,3.51,3.51,3.51,3.51,3.5133,3.5439,3.5504,3.5504,3.5504,3.5504,3.5504,3.5504,3.5504,3.5504,3.5504,3.5504,3.5504,3.5504,3.4936,3.4354,3.3844,3.3051,3.2751,3.341,3.2916,3.2766,3.3425,3.3499,3.3305,3.2826,3.3058,3.3696,3.483,3.5221,3.6018,3.7341,3.7218,3.7449,3.8193,3.7466,3.7719,3.8988,3.8988,3.9377,4.0096,4.0096,4.0096,1.0737,1.0517,1.065,0.0,0.0,0.0,0.0,0.0,0.0,0.0,0.0,0.0,0.0,0.0,0.0,0.0,0.0,0.0,0.0,0.0,0.0,0.0,0.0,0.0,0.0,0.0,0.0,4.3227,4.2326,4.0534,3.7662,3.5233,3.3305,3.1959,3.1914,3.1914,3.1914,3.1914,3.178,3.1511,3.1511,3.1511,3.1511,3.1161,3.0748,3.0269,2.9535,2.8939,2.8492,2.9002,2.8907,2.8583,2.9659,2.9883,2.9682,3.0904,3.1632,3.2222,3.3753,3.4283,3.4422,3.5225,3.5213,3.4872,3.4872,3.4872,3.4872,3.4872,3.518,3.5504,3.5504,3.5504,3.5504,3.5504,3.5504,3.5504,3.5504,3.5504,3.5504,3.5504,3.5504,3.5504,3.5504,3.4696,3.3933,3.3559,3.2706,3.2437,3.338,3.3155,3.3171,3.3864,3.3924,3.3648,3.3013,3.3322,3.3831,3.4552,3.5578,3.648,3.7222,3.7246,3.7449,3.7889,3.7161,3.754,3.8988,3.8988,3.9377,4.0096,4.0096,4.0096,1.1959,1.099,1.0236,0.0,0.0,0.0,0.0,0.0,0.0,0.0,0.0,0.0,0.0,0.0,0.0,0.0,0.0,0.0,0.0,0.0,0.0,0.0,0.0,0.0,0.0,0.0,4.3115,4.4513,4.2368,3.9515,3.6157,3.5109,3.3978,3.2662,3.2617,3.2617,3.2617,3.2617,3.2303,3.172,3.172,3.1617,3.1455,3.0716,3.0266,2.9919,2.8363,2.7637,2.7571,2.7571,2.7604,2.7822,2.9143,2.9194,2.8754,3.0863,3.2136,3.2906,3.3709,3.3993,3.4143,3.5019,3.4806,3.4177,3.4177,3.4177,3.4177,3.4177,3.4806,3.5504,3.5504,3.5504,3.5504,3.5504,3.5504,3.5504,3.5504,3.5564,3.5609,3.5609,3.5609,3.5609,3.5609,3.4502,3.3589,3.3499,3.2407,3.2064,3.3335,3.3576,3.3834,3.4424,3.4583,3.4335,3.3658,3.3739,3.4043,3.4568,3.5985,3.7095,3.7746,3.7787,3.7855,3.8024,3.7472,3.7811,3.9106,3.9106,3.9469,4.0096,4.0096,4.0096,0.0,0.0,0.0,0.0,0.0,0.0,0.0,0.0,0.0,0.0,0.0,0.0,0.0,0.0,0.0,0.0,0.0,0.0,0.0,0.0,0.0,0.0,0.0,0.0,0.0,0.0,4.4293,4.4581,4.2348,4.0214,3.8419,3.6413,3.4696,3.335,3.3305,3.3305,3.3305,3.3305,3.3245,3.311,3.311,3.2449,3.1235,3.1112,2.9971,2.8182,2.7855,2.7317,2.6714,2.6714,2.7129,2.7756,2.8464,2.8643,2.8754,3.0931,3.141,3.1202,3.3285,3.3993,3.4027,3.4245,3.4725,3.5213,3.5213,3.5213,3.5213,3.5213,3.5359,3.5504,3.5504,3.5504,3.5504,3.5504,3.5504,3.5504,3.5504,3.5923,3.6297,3.6297,3.6297,3.6297,3.6297,3.5175,3.4098,3.3574,3.2826,3.2572,3.3395,3.3969,3.4337,3.4483,3.5068,3.4956,3.371,3.4648,3.5079,3.4625,3.5997,3.6858,3.7015,3.7015,3.7567,3.8751,3.9233,3.9605,3.9893,3.9893,3.996,4.0096,4.0096,4.0096,0.0,0.0,0.0,1.1465,0.0,0.0,0.0,0.0,0.0,0.0,0.0,0.0,0.0,0.0,0.0,0.0,0.0,0.0,0.0,0.0,0.0,0.0,0.0,0.0,0.0,0.0,4.4007,4.3943,4.2443,4.0577,3.8459,3.6868,3.537,3.4054,3.3978,3.3978,3.3978,3.3524,3.3125,3.2788,3.2283,3.1507,3.0499,3.0053,2.9054,2.767,2.7297,2.6871,2.6512,2.6788,2.7132,2.7537,2.809,2.8476,2.8931,3.0797,3.1217,3.1053,3.2708,3.3602,3.3993,3.3993,3.4691,3.5504,3.5504,3.5504,3.5504,3.5504,3.5504,3.5504,3.5504,3.5504,3.5504,3.5504,3.5504,3.5504,3.5504,3.6028,3.6492,3.6492,3.6731,3.6851,3.6537,3.5402,3.4399,3.4038,3.314,3.3006,3.4379,3.4538,3.4909,3.6047,3.6185,3.5938,3.5251,3.5832,3.5916,3.5148,3.6171,3.6795,3.6795,3.6795,3.7151,3.7895,3.8996,3.9554,3.9554,3.9926,4.0096,4.0096,4.0096,4.0096,0.0,0.0,0.0,0.0,0.0,1.2058,0.0,0.0,0.0,0.0,0.0,0.0,0.0,0.0,0.0,0.0,0.0,0.0,0.0,0.0,0.0,0.0,0.0,0.0,0.0,0.0,4.2835,4.3267,4.2017,4.0309,3.8183,3.717,3.6103,3.4938,3.4773,3.4698,3.4698,3.3929,3.318,3.2468,3.1648,3.0792,2.9894,2.9171,2.8405,2.7587,2.6947,2.665,2.6688,2.714,2.7406,2.7645,2.8084,2.8647,2.9351,3.0686,3.1217,3.1315,3.2285,3.2996,3.3518,3.3876,3.4691,3.5504,3.5504,3.5504,3.5504,3.5504,3.5504,3.5504,3.5504,3.5504,3.5504,3.5504,3.5504,3.5504,3.5504,3.6028,3.6492,3.6492,3.6985,3.721,3.6596,3.5507,3.4653,3.4533,3.3574,3.3547,3.5379,3.5076,3.5489,3.7586,3.7157,3.6729,3.68,3.6931,3.6603,3.565,3.6349,3.6745,3.6592,3.6728,3.6795,3.6795,3.8244,3.8988,3.8988,3.974,4.0096,4.0096,4.0096,4.0096,0.0,0.0,0.0,0.0,1.3137,0.0,0.0,0.0,0.0,0.0,0.0,0.0,0.0,0.0,0.0,0.0,0.0,0.0,0.0,0.0,0.0,0.0,0.0,0.0,0.0,0.0,0.0,4.3149,4.0339,3.8832,3.9441,3.8095,3.6985,3.6282,3.5699,3.5385,3.5385,3.5287,3.4725,3.3777,3.3661,3.2444,3.033,3.0222,2.9145,2.7321,2.7264,2.7228,2.7228,2.7256,2.7858,2.8712,2.8775,2.9409,3.0319,3.0982,3.1217,3.1315,3.2285,3.2141,3.1779,3.3449,3.4691,3.5504,3.5504,3.5504,3.5504,3.5504,3.5504,3.5504,3.5504,3.5504,3.5504,3.5504,3.5504,3.5504,3.5504,3.6028,3.6492,3.6492,3.6985,3.721,3.6596,3.5878,3.5175,3.4593,3.4384,3.4574,3.5487,3.5524,3.6064,3.764,3.7185,3.6787,3.6812,3.7398,3.7161,3.5684,3.6349,3.6468,3.5752,3.6417,3.6795,3.6795,3.8244,3.8988,3.8988,3.974,4.0096,4.0096,4.0096,4.0096,0.0,0.0,0.0,0.0,0.0,0.0,1.2286,0.0,1.0618,0.0,0.0,0.0,0.0,0.0,0.0,0.0,0.0,0.0,0.0,0.0,0.0,0.0,0.0,0.0,0.0,0.0,0.0,0.0,0.0,3.831,3.9625,3.8247,3.712,3.6507,3.5848,3.5504,3.5504,3.4375,3.3616,3.3171,3.2083,3.0866,2.9534,2.92,2.8407,2.7281,2.7281,2.7281,2.7331,2.7971,2.8511,2.8988,2.988,3.0172,3.0148,3.0928,3.1217,3.1315,3.2285,3.2357,3.2249,3.3567,3.4691,3.5504,3.5504,3.5504,3.5504,3.5504,3.5504,3.5504,3.5504,3.5504,3.5504,3.5504,3.5504,3.5504,3.5504,3.6028,3.6372,3.5998,3.6768,3.7292,3.6668,3.6317,3.6198,3.641,3.6094,3.6248,3.7375,3.675,3.6813,3.8312,3.7468,3.6981,3.7398,3.7719,3.7635,3.6969,3.684,3.666,3.6315,3.7026,3.7229,3.6812,3.8674,3.9208,3.8362,3.9537,4.0096,4.0096,4.0096,4.0096,1.7894,0.0,0.0,0.0,0.0,0.0,0.0,0.0,0.0,0.0,0.0,0.0,0.0,0.0,0.0,0.0,0.0,0.0,0.0,0.0,0.0,0.0,0.0,0.0,0.0,0.0,0.0,0.0,0.0,0.0,3.9228,3.8111,3.712,3.6507,3.5588,3.51,3.51,3.3429,3.2464,3.2213,3.0833,2.9808,2.9151,2.8586,2.8109,2.772,2.757,2.7595,2.7795,2.8562,2.8988,2.9277,3.039,3.0381,2.9934,3.1156,3.1573,3.1706,3.2664,3.3171,3.3463,3.3891,3.4691,3.5504,3.5504,3.5504,3.5504,3.5504,3.5504,3.5504,3.5504,3.5504,3.5504,3.5504,3.5504,3.5504,3.5504,3.5878,3.6124,3.584,3.661,3.7375,3.7518,3.7397,3.7364,3.7751,3.7546,3.7745,3.8777,3.7613,3.7293,3.883,3.7466,3.6772,3.7533,3.7787,3.7905,3.7905,3.7398,3.7015,3.6812,3.7313,3.7432,3.7094,3.8691,3.9056,3.821,3.9486,4.0096,4.0096,4.0096,4.0096,0.0,0.0,0.0,1.7017,0.0,0.0,0.0,0.0,1.2181,0.0,0.0,0.0,0.0,0.0,0.0,0.0,0.0,0.0,0.0,0.0,0.0,0.0,0.0,0.0,0.0,0.0,0.0,0.0,0.0,0.0,3.8242,3.7764,3.712,3.6507,3.4913,3.4061,3.4061,3.3101,3.2141,3.1254,3.118,3.0683,2.9741,2.9164,2.885,2.8813,2.831,2.8386,2.8838,2.8875,2.9252,2.9767,2.983,2.983,2.9998,3.1865,3.2558,3.2713,3.3636,3.4576,3.5246,3.4312,3.4691,3.5504,3.5504,3.5504,3.5504,3.5504,3.5504,3.5504,3.5504,3.5504,3.5504,3.5504,3.5504,3.5504,3.5504,3.5519,3.5748,3.6415,3.66,3.735,3.9612,3.934,3.8574,3.7918,3.8379,3.8847,3.8882,3.7613,3.7293,3.883,3.6992,3.596,3.6778,3.7483,3.7905,3.7905,3.7889,3.7533,3.6829,3.6829,3.7144,3.7855,3.7939,3.8311,3.8954,3.974,4.0096,4.0096,4.0096,4.0096,0.0,0.0,2.2418,1.9419,0.0,0.0,0.0,0.0,0.0,0.0,0.0,0.0,0.0,0.0,0.0,0.0,0.0,0.0,0.0,0.0,0.0,0.0,0.0,0.0,0.0,0.0,0.0,0.0,0.0,0.0,0.0,3.6383,3.6016,3.6492,3.4879,3.4194,3.4606,3.2671,3.1686,3.171,3.0738,3.0101,2.9779,2.9202,2.8888,2.8888,2.87,2.8712,2.8913,2.934,2.9616,2.9856,3.0482,3.0343,2.9934,3.1217,3.2069,3.2749,3.3671,3.4211,3.4461,3.4095,3.4691,3.5504,3.5504,3.5504,3.5504,3.5504,3.5504,3.5504,3.5504,3.5504,3.5504,3.5504,3.5504,3.5771,3.6746,3.6965,3.7326,3.8617,3.9285,3.9897,4.0675,4.1404,4.1461,4.0219,4.0253,4.0261,3.9763,3.8405,3.7691,3.822,3.6664,3.5943,3.6745,3.7905,3.8633,3.8633,3.8633,3.8514,3.8261,3.8268,3.8362,3.8616,3.9106,3.9225,3.8988,3.974,4.0096,4.0096,4.0096,4.0096,2.364,2.4271,0.0,2.1674,2.1221,0.0,1.749,0.0,0.0,0.0,0.0,0.0,0.0,0.0,0.0,0.0,0.0,0.0,0.0,0.0,0.0,0.0,0.0,0.0,0.0,0.0,0.0,0.0,0.0,0.0,0.0,0.0,3.5415,3.5588,3.4425,3.3797,3.386,3.2131,3.1422,3.1785,3.0811,3.0269,3.0068,2.949,2.9239,2.9227,2.8976,2.9013,2.9264,2.9641,2.9792,2.9869,3.0457,3.0317,3.0011,3.1609,3.2558,3.3171,3.3774,3.3993,3.3993,3.3993,3.4691,3.5549,3.5789,3.5848,3.5893,3.6133,3.6193,3.6193,3.6193,3.6193,3.6193,3.6193,3.6426,3.6892,3.7853,3.8294,3.8916,4.0181,4.084,4.1274,4.1544,4.2595,4.2885,4.1424,4.1424,4.1221,4.0231,3.8802,3.7905,3.7905,3.6512,3.6022,3.7094,3.8058,3.8616,3.8616,3.9089,3.9157,3.8633,3.8853,3.9242,3.9766,3.9715,3.9715,3.9783,4.0011,4.0096,4.0096,4.0096,4.0096]}]]